[[{"header":{"parameterUnit":"m.s-1","parameterCategory":1,"la1":30.6,"la2":28.766,"lo1":-90.7593,"lo2":-88.6598,"dy":0.0162,"dx":0.0183,"nx":116,"ny":114,"refTime":"2024-06-18T06:00:00:Z","depth":0,"parameterNumber":2,"parameterNumberName":"U-component_of_WINDS"},"data":[0.0,0.0,0.0,0.0,0.0,0.0,0.0,0.0,0.0,0.0,0.0,0.0,0.0,0.0,0.0,0.0,0.0,0.0,0.0,0.0,0.0,0.0,0.0,0.0,0.0,0.0,0.0,0.0,0.0,0.0,0.0,0.0,0.0,0.0,0.0,0.0,0.0,0.0,0.0,0.0,0.0,0.0,0.0,0.0,0.0,0.0,0.0,0.0,0.0,0.0,0.0,0.0,0.0,0.0,0.0,0.0,0.0,0.0,0.0,0.0,0.0,0.0,0.0,0.0,0.0,0.0,0.0,0.0,0.0,0.0,0.0,0.0,0.0,0.0,0.0,0.0,0.0,0.0,0.0,0.0,0.0,0.0,0.0,0.0,0.0,0.0,0.0,0.0,0.0,0.0,0.0,0.0,0.0,0.0,0.0,0.0,0.0,0.0,0.0,0.0,0.0,0.0,0.0,0.0,0.0,0.0,0.0,0.0,0.0,0.0,0.0,0.0,0.0,0.0,0.0,0.0,0.0,0.0,0.0,0.0,0.0,0.0,0.0,0.0,0.0,0.0,0.0,0.0,0.0,0.0,0.0,0.0,0.0,0.0,0.0,0.0,0.0,0.0,0.0,0.0,0.0,0.0,0.0,0.0,0.0,0.0,0.0,0.0,0.0,0.0,0.0,0.0,0.0,0.0,0.0,0.0,0.0,0.0,0.0,0.0,0.0,0.0,0.0,0.0,0.0,0.0,0.0,0.0,0.0,0.0,0.0,0.0,0.0,0.0,0.0,0.0,0.0,0.0,0.0,0.0,0.0,0.0,0.0,0.0,0.0,0.0,0.0,0.0,0.0,0.0,0.0,0.0,0.0,0.0,0.0,0.0,0.0,0.0,0.0,0.0,0.0,0.0,0.0,0.0,0.0,0.0,0.0,0.0,0.0,0.0,0.0,0.0,0.0,0.0,0.0,0.0,0.0,0.0,0.0,0.0,0.0,0.0,0.0,0.0,0.0,0.0,0.0,0.0,0.0,0.0,0.0,0.0,0.0,0.0,0.0,0.0,0.0,0.0,0.0,0.0,0.0,0.0,0.0,0.0,0.0,0.0,0.0,0.0,0.0,0.0,0.0,0.0,0.0,0.0,0.0,0.0,0.0,0.0,0.0,0.0,0.0,0.0,0.0,0.0,0.0,0.0,0.0,0.0,0.0,0.0,0.0,0.0,0.0,0.0,0.0,0.0,0.0,0.0,0.0,0.0,0.0,0.0,0.0,0.0,0.0,0.0,0.0,0.0,0.0,0.0,0.0,0.0,0.0,0.0,0.0,0.0,0.0,0.0,0.0,0.0,0.0,0.0,0.0,0.0,0.0,0.0,0.0,0.0,0.0,0.0,0.0,0.0,0.0,0.0,0.0,0.0,0.0,0.0,0.0,0.0,0.0,0.0,0.0,0.0,0.0,0.0,0.0,0.0,0.0,0.0,0.0,0.0,0.0,0.0,0.0,0.0,0.0,0.0,0.0,0.0,0.0,0.0,0.0,0.0,0.0,0.0,0.0,0.0,0.0,0.0,0.0,0.0,0.0,0.0,0.0,0.0,0.0,0.0,0.0,0.0,0.0,0.0,0.0,0.0,0.0,0.0,0.0,0.0,0.0,0.0,0.0,0.0,0.0,0.0,0.0,0.0,0.0,0.0,0.0,0.0,0.0,0.0,0.0,0.0,0.0,0.0,0.0,0.0,0.0,0.0,0.0,0.0,0.0,0.0,0.0,0.0,0.0,0.0,0.0,0.0,0.0,0.0,0.0,0.0,0.0,0.0,0.0,0.0,0.0,0.0,0.0,0.0,0.0,0.0,0.0,0.0,0.0,0.0,0.0,0.0,0.0,0.0,0.0,0.0,0.0,0.0,0.0,0.0,0.0,0.0,0.0,0.0,0.0,0.0,0.0,0.0,0.0,0.0,0.0,0.0,0.0,0.0,0.0,0.0,0.0,0.0,0.0,0.0,0.0,0.0,0.0,0.0,0.0,0.0,0.0,0.0,0.0,0.0,0.0,0.0,0.0,0.0,0.0,0.0,0.0,0.0,0.0,0.0,0.0,0.0,0.0,0.0,0.0,0.0,0.0,0.0,0.0,0.0,0.0,0.0,0.0,0.0,0.0,0.0,0.0,0.0,0.0,0.0,0.0,0.0,0.0,0.0,0.0,0.0,0.0,0.0,0.0,0.0,0.0,0.0,0.0,0.0,0.0,0.0,0.0,0.0,0.0,0.0,0.0,0.0,0.0,0.0,0.0,0.0,0.0,0.0,0.0,0.0,0.0,0.0,0.0,0.0,0.0,0.0,0.0,0.0,0.0,0.0,0.0,0.0,0.0,0.0,0.0,0.0,0.0,0.0,0.0,0.0,0.0,0.0,0.0,0.0,0.0,0.0,0.0,0.0,0.0,0.0,0.0,0.0,0.0,0.0,0.0,0.0,0.0,0.0,0.0,0.0,0.0,0.0,0.0,0.0,0.0,0.0,0.0,0.0,0.0,0.0,0.0,0.0,0.0,0.0,0.0,0.0,0.0,0.0,0.0,0.0,0.0,0.0,0.0,0.0,0.0,0.0,0.0,0.0,0.0,0.0,0.0,0.0,0.0,0.0,0.0,0.0,0.0,0.0,0.0,0.0,0.0,0.0,0.0,0.0,0.0,0.0,0.0,0.0,0.0,0.0,0.0,0.0,0.0,0.0,0.0,0.0,0.0,0.0,0.0,0.0,0.0,0.0,0.0,0.0,0.0,0.0,0.0,0.0,0.0,0.0,0.0,0.0,0.0,0.0,0.0,0.0,0.0,0.0,0.0,0.0,0.0,0.0,0.0,0.0,0.0,0.0,0.0,0.0,0.0,0.0,0.0,0.0,0.0,0.0,0.0,0.0,0.0,0.0,0.0,0.0,0.0,0.0,0.0,0.0,0.0,0.0,0.0,0.0,0.0,0.0,0.0,0.0,0.0,0.0,0.0,0.0,0.0,0.0,0.0,0.0,0.0,0.0,0.0,0.0,0.0,0.0,0.0,0.0,0.0,0.0,0.0,0.0,0.0,0.0,0.0,0.0,0.0,0.0,0.0,0.0,0.0,0.0,0.0,0.0,0.0,0.0,0.0,0.0,0.0,0.0,0.0,0.0,0.0,0.0,0.0,0.0,0.0,0.0,0.0,0.0,0.0,0.0,0.0,0.0,0.0,0.0,0.0,0.0,0.0,0.0,0.0,0.0,0.0,0.0,0.0,0.0,0.0,0.0,0.0,0.0,0.0,0.0,0.0,0.0,0.0,0.0,0.0,0.0,0.0,0.0,0.0,0.0,0.0,0.0,0.0,0.0,0.0,0.0,0.0,0.0,0.0,0.0,0.0,0.0,0.0,0.0,0.0,0.0,0.0,0.0,0.0,0.0,0.0,0.0,0.0,0.0,0.0,0.0,0.0,0.0,0.0,0.0,0.0,0.0,0.0,0.0,0.0,0.0,0.0,0.0,0.0,0.0,0.0,0.0,0.0,0.0,0.0,0.0,0.0,0.0,0.0,0.0,0.0,0.0,0.0,0.0,0.0,0.0,0.0,0.0,0.0,0.0,0.0,0.0,0.0,0.0,0.0,0.0,0.0,0.0,0.0,0.0,0.0,0.0,0.0,0.0,0.0,0.0,0.0,0.0,0.0,0.0,0.0,0.0,0.0,0.0,0.0,0.0,0.0,0.0,0.0,0.0,0.0,0.0,0.0,0.0,0.0,0.0,0.0,0.0,0.0,0.0,0.0,0.0,0.0,0.0,0.0,0.0,0.0,0.0,0.0,0.0,0.0,0.0,0.0,0.0,0.0,0.0,0.0,0.0,0.0,0.0,0.0,0.0,0.0,0.0,0.0,0.0,0.0,0.0,0.0,0.0,0.0,0.0,0.0,0.0,0.0,0.0,0.0,0.0,0.0,0.0,0.0,0.0,0.0,0.0,0.0,0.0,0.0,0.0,0.0,0.0,0.0,0.0,0.0,0.0,0.0,0.0,0.0,0.0,0.0,0.0,0.0,0.0,0.0,0.0,0.0,0.0,0.0,0.0,0.0,0.0,0.0,0.0,0.0,0.0,0.0,0.0,0.0,0.0,0.0,0.0,0.0,0.0,0.0,0.0,0.0,0.0,0.0,0.0,0.0,0.0,0.0,0.0,0.0,0.0,0.0,0.0,0.0,0.0,0.0,0.0,0.0,0.0,0.0,0.0,0.0,0.0,0.0,0.0,0.0,0.0,0.0,0.0,0.0,0.0,0.0,0.0,0.0,0.0,0.0,0.0,0.0,0.0,0.0,0.0,0.0,0.0,0.0,0.0,0.0,0.0,0.0,0.0,0.0,0.0,0.0,0.0,0.0,0.0,0.0,0.0,0.0,0.0,0.0,0.0,0.0,0.0,0.0,0.0,0.0,0.0,0.0,0.0,0.0,0.0,0.0,0.0,0.0,0.0,0.0,0.0,0.0,0.0,0.0,0.0,0.0,0.0,0.0,0.0,0.0,0.0,0.0,0.0,0.0,0.0,0.0,0.0,0.0,0.0,0.0,0.0,0.0,0.0,0.0,0.0,0.0,0.0,0.0,0.0,0.0,0.0,0.0,0.0,0.0,0.0,0.0,0.0,0.0,0.0,0.0,0.0,0.0,0.0,0.0,0.0,0.0,0.0,0.0,0.0,0.0,0.0,0.0,0.0,0.0,0.0,0.0,0.0,0.0,0.0,0.0,0.0,0.0,0.0,0.0,0.0,0.0,0.0,0.0,0.0,0.0,0.0,0.0,0.0,0.0,0.0,0.0,0.0,0.0,0.0,0.0,0.0,0.0,0.0,0.0,0.0,0.0,0.0,0.0,0.0,0.0,0.0,0.0,0.0,0.0,0.0,0.0,0.0,0.0,0.0,0.0,0.0,0.0,0.0,0.0,0.0,0.0,0.0,0.0,0.0,0.0,0.0,0.0,0.0,0.0,0.0,0.0,0.0,0.0,0.0,0.0,0.0,0.0,0.0,0.0,0.0,0.0,0.0,0.0,0.0,0.0,0.0,0.0,0.0,0.0,0.0,0.0,0.0,0.0,0.0,0.0,0.0,0.0,0.0,0.0,0.0,0.0,0.0,0.0,0.0,0.0,0.0,0.0,0.0,0.0,0.0,0.0,0.0,0.0,0.0,0.0,0.0,0.0,0.0,0.0,0.0,0.0,0.0,0.0,0.0,0.0,0.0,0.0,0.0,0.0,0.0,0.0,0.0,0.0,0.0,0.0,0.0,0.0,0.0,0.0,0.0,0.0,0.0,0.0,0.0,0.0,0.0,0.0,0.0,0.0,0.0,0.0,0.0,0.0,0.0,0.0,0.0,0.0,0.0,0.0,0.0,0.0,0.0,0.0,0.0,0.0,0.0,0.0,0.0,0.0,0.0,0.0,0.0,0.0,0.0,0.0,0.0,0.0,0.0,0.0,0.0,0.0,0.0,0.0,0.0,0.0,0.0,0.0,0.0,0.0,0.0,0.0,0.0,0.0,0.0,0.0,0.0,0.0,0.0,0.0,0.0,0.0,0.0,0.0,0.0,0.0,0.0,0.0,0.0,0.0,0.0,0.0,0.0,0.0,0.0,0.0,0.0,0.0,0.0,0.0,0.0,0.0,0.0,0.0,0.0,0.0,0.0,0.0,0.0,0.0,0.0,0.0,0.0,0.0,0.0,0.0,0.0,0.0,0.0,0.0,0.0,0.0,0.0,0.0,0.0,0.0,0.0,0.0,0.0,0.0,0.0,0.0,0.0,0.0,0.0,0.0,0.0,0.0,0.0,0.0,0.0,0.0,0.0,0.0,0.0,0.0,0.0,0.0,0.0,0.0,0.0,0.0,0.0,0.0,0.0,0.0,0.0,0.0,0.0,0.0,0.0,0.0,0.0,0.0,0.0,0.0,0.0,0.0,0.0,0.0,0.0,0.0,0.0,0.0,0.0,0.0,0.0,0.0,0.0,0.0,0.0,0.0,0.0,0.0,0.0,0.0,0.0,0.0,0.0,0.0,0.0,0.0,0.0,0.0,0.0,0.0,0.0,0.0,0.0,0.0,0.0,0.0,0.0,0.0,0.0,0.0,0.0,-4.7114,-4.8394,0.0,0.0,0.0,0.0,0.0,0.0,0.0,0.0,0.0,0.0,0.0,0.0,0.0,0.0,0.0,0.0,0.0,0.0,0.0,0.0,0.0,0.0,0.0,-2.4042,-2.4744,-2.5132,-2.6054,-2.6877,-2.7503,-2.7509,-2.7347,-2.6962,-2.6923,-2.6592,-2.5933,-2.6398,-2.6652,-2.6652,-2.6595,-2.6413,-2.6078,-2.6018,-2.6468,-2.7401,0.0,0.0,0.0,0.0,0.0,0.0,0.0,0.0,0.0,0.0,0.0,0.0,0.0,0.0,0.0,0.0,0.0,0.0,0.0,0.0,0.0,0.0,0.0,0.0,0.0,0.0,0.0,0.0,0.0,0.0,0.0,0.0,0.0,0.0,0.0,0.0,0.0,0.0,0.0,0.0,0.0,0.0,0.0,0.0,0.0,0.0,0.0,0.0,0.0,0.0,0.0,0.0,0.0,0.0,0.0,0.0,0.0,0.0,0.0,0.0,0.0,0.0,0.0,0.0,0.0,0.0,0.0,0.0,0.0,0.0,-4.7438,-4.8217,0.0,0.0,0.0,0.0,0.0,0.0,0.0,0.0,0.0,0.0,0.0,0.0,0.0,0.0,0.0,0.0,0.0,0.0,0.0,0.0,0.0,-2.2271,-2.2072,-2.3463,-2.454,-2.4805,-2.5779,-2.6627,-2.7185,-2.7331,-2.711,-2.6431,-2.6643,-2.6452,-2.5794,-2.6306,-2.6523,-2.6399,-2.6173,-2.579,-2.5274,-2.5393,-2.6274,-2.7842,-2.8175,0.0,0.0,0.0,0.0,0.0,0.0,0.0,0.0,0.0,0.0,0.0,0.0,0.0,0.0,0.0,0.0,0.0,0.0,0.0,0.0,0.0,0.0,0.0,0.0,0.0,0.0,0.0,0.0,0.0,0.0,0.0,0.0,0.0,0.0,0.0,0.0,0.0,0.0,0.0,0.0,0.0,0.0,0.0,0.0,0.0,0.0,0.0,0.0,0.0,0.0,0.0,0.0,0.0,0.0,0.0,0.0,0.0,0.0,0.0,0.0,0.0,0.0,0.0,-4.9119,-4.9013,-4.8844,-4.8116,-4.8191,-4.8818,-4.7819,-4.7926,-4.8741,-4.8217,0.0,0.0,0.0,0.0,0.0,0.0,0.0,0.0,0.0,0.0,0.0,0.0,0.0,0.0,0.0,0.0,0.0,0.0,0.0,-2.1657,-2.3174,-2.3576,-2.4168,-2.523,-2.5451,-2.5617,-2.5687,-2.6283,-2.6353,-2.5673,-2.6811,-2.7151,-2.6482,-2.6994,-2.6964,-2.6399,-2.5805,-2.5512,-2.5561,-2.6083,-2.6461,-2.6679,-2.5998,-2.5973,-2.6401,0.0,0.0,0.0,0.0,0.0,0.0,0.0,0.0,0.0,0.0,0.0,0.0,0.0,0.0,0.0,0.0,0.0,0.0,0.0,0.0,0.0,0.0,0.0,0.0,0.0,0.0,0.0,0.0,0.0,0.0,0.0,0.0,0.0,0.0,0.0,0.0,0.0,0.0,0.0,0.0,0.0,-4.3938,-4.5553,0.0,0.0,0.0,0.0,0.0,0.0,0.0,0.0,0.0,0.0,0.0,0.0,0.0,-4.9451,-4.9334,-4.9099,-4.8642,-4.7932,-4.7567,-4.7039,-4.6375,-4.6265,-4.6283,-4.6375,-4.6501,0.0,-4.834,-4.7798,0.0,0.0,0.0,0.0,0.0,0.0,0.0,0.0,0.0,0.0,0.0,0.0,0.0,0.0,0.0,0.0,0.0,0.0,0.0,0.0,0.0,-2.2454,-2.3183,-2.3364,-2.4036,-2.4553,-2.4872,-2.5196,-2.5399,-2.5442,-2.6416,-2.685,-2.6546,-2.6771,-2.6377,-2.5337,-2.504,-2.4744,-2.4477,-2.4758,-2.4874,-2.4844,-2.4481,-2.5023,-2.6258,-2.6193,0.0,0.0,0.0,0.0,0.0,0.0,0.0,0.0,0.0,0.0,0.0,0.0,0.0,0.0,0.0,0.0,0.0,0.0,0.0,0.0,0.0,0.0,0.0,0.0,0.0,0.0,0.0,0.0,0.0,0.0,0.0,0.0,0.0,0.0,0.0,0.0,0.0,0.0,0.0,-4.4727,-4.5792,-4.6489,-4.625,-4.6177,0.0,0.0,0.0,0.0,0.0,0.0,0.0,0.0,0.0,-4.8272,-4.8644,-4.8813,-4.8813,-4.8639,-4.8384,-4.8033,-4.7849,-4.759,-4.726,-4.726,-4.726,-4.726,-4.7408,-4.7528,-4.763,-4.7522,-4.7316,-4.7078,0.0,0.0,0.0,0.0,-4.699,-4.624,0.0,0.0,0.0,0.0,0.0,0.0,0.0,0.0,0.0,0.0,0.0,0.0,-1.9491,-2.0656,-2.1367,-2.1194,-2.2022,-2.2817,-2.3406,-2.3771,-2.4232,-2.486,-2.5753,-2.6229,-2.6229,-2.5916,-2.5177,-2.4028,-2.4056,-2.3804,-2.3377,-2.353,-2.3595,-2.3595,-2.3595,-2.4435,-2.5873,-2.5826,-2.5833,-2.5853,0.0,0.0,0.0,0.0,0.0,0.0,0.0,0.0,0.0,0.0,0.0,0.0,0.0,0.0,0.0,0.0,0.0,0.0,0.0,0.0,0.0,0.0,0.0,0.0,0.0,0.0,0.0,0.0,0.0,0.0,0.0,0.0,0.0,0.0,0.0,0.0,0.0,-4.603,-4.6856,-4.7076,-4.7278,-4.7333,0.0,0.0,0.0,0.0,0.0,0.0,-4.8269,-4.8306,-4.8398,-4.86,-4.882,-4.8838,-4.8636,-4.8636,-4.8526,-4.8306,-4.8306,-4.8306,-4.8306,-4.8306,-4.8306,-4.8306,-4.8306,-4.7737,-4.682,-4.7203,-4.7281,-4.7155,-4.7386,-4.7049,-4.6551,-4.7462,-4.6934,-4.5889,0.0,0.0,0.0,0.0,0.0,0.0,0.0,0.0,0.0,0.0,0.0,-1.755,-1.8448,-1.8253,-1.8411,-1.9353,-1.9485,-1.9831,-2.0562,-2.1736,-2.274,-2.3477,-2.475,-2.5453,-2.5453,-2.4332,-2.3444,-2.279,-2.279,-2.2775,-2.2777,-2.3334,-2.3595,-2.3595,-2.3595,-2.3991,-2.4694,-2.4543,-2.4849,-2.5481,-2.5984,0.0,0.0,0.0,0.0,0.0,0.0,0.0,0.0,0.0,0.0,0.0,0.0,0.0,0.0,0.0,0.0,0.0,0.0,0.0,0.0,0.0,0.0,0.0,0.0,0.0,0.0,0.0,0.0,0.0,0.0,0.0,0.0,0.0,0.0,0.0,0.0,0.0,0.0,-4.7003,-4.7755,0.0,0.0,0.0,0.0,-4.8306,-4.7516,-4.7443,-4.8269,-4.8306,-4.8655,-4.9407,-5.0233,-5.0306,-4.9537,-4.9537,-4.9114,-4.8306,-4.8306,-4.8306,-4.8306,-4.8306,-4.8306,-4.8306,-4.8306,-4.7407,-4.6011,-4.6739,-4.6585,-4.5872,-4.5773,-4.5506,-4.5322,-4.6513,-4.6666,-4.6337,0.0,0.0,0.0,-1.5337,-1.5308,-1.5594,-1.6398,-1.6683,-1.6993,-1.7538,-1.7245,-1.713,-1.7517,-1.7138,-1.7043,-1.7394,-1.7428,-1.7699,-1.8294,-1.978,-2.0911,-2.1578,-2.3581,-2.4521,-2.4118,-2.3353,-2.2628,-2.1986,-2.1997,-2.2014,-2.2077,-2.2271,-2.262,-2.3009,-2.3009,-2.3378,-2.3954,-2.39,-2.4212,-2.4761,-2.4967,-2.5477,0.0,0.0,0.0,0.0,0.0,0.0,0.0,0.0,0.0,0.0,0.0,0.0,0.0,0.0,0.0,0.0,0.0,0.0,0.0,0.0,0.0,0.0,0.0,0.0,0.0,0.0,0.0,0.0,0.0,0.0,0.0,0.0,0.0,0.0,0.0,0.0,0.0,-4.7847,-4.8141,0.0,-4.7901,-4.7939,-4.8306,-4.9077,-4.8361,-4.8471,-4.9848,-4.9921,-5.0288,-5.1077,-5.0912,-5.0912,-5.1153,-5.0124,-4.9445,-4.9132,-4.8563,-4.8306,-4.8306,-4.8306,-4.8306,-4.8306,-4.8306,-4.7682,-4.6673,-4.6615,-4.584,-4.4688,-4.5114,-4.5211,-4.5186,-4.5822,-4.5974,-4.588,-1.4628,-1.4628,0.0,-1.4407,-1.4661,-1.5114,-1.5727,-1.6105,-1.6421,-1.6637,-1.6294,-1.603,-1.603,-1.5646,-1.5492,-1.5618,-1.5628,-1.5953,-1.6717,-1.8116,-1.9257,-2.0053,-2.2076,-2.2853,-2.2114,-2.2028,-2.1641,-2.0992,-2.1223,-2.1352,-2.14,-2.1615,-2.1922,-2.2369,-2.2369,-2.2575,-2.298,-2.3209,-2.3608,-2.4152,-2.4376,-2.5046,-2.5941,0.0,0.0,0.0,0.0,0.0,0.0,0.0,0.0,0.0,0.0,0.0,0.0,0.0,0.0,0.0,0.0,0.0,0.0,0.0,0.0,0.0,0.0,0.0,0.0,0.0,0.0,0.0,0.0,0.0,0.0,0.0,0.0,0.0,0.0,-4.7121,-4.7673,-4.7883,-4.8398,-4.8526,-4.7957,-4.8158,-4.871,-4.9537,-4.9315,-4.9756,-5.1132,-5.1206,-5.1573,-5.238,-5.1903,-5.1738,-5.1995,-5.0675,-4.9867,-4.9592,-4.8728,-4.8306,-4.8306,-4.8306,-4.8306,-4.8306,-4.8306,-4.77,-4.6673,-4.6351,-4.5284,-4.3912,-4.4638,-4.4842,-4.4762,-4.514,-4.5182,-4.5069,-1.2905,-1.2905,-1.3079,-1.3661,-1.3952,-1.4317,-1.4976,-1.5255,-1.5264,-1.4863,-1.4414,-1.4104,-1.4104,-1.3724,-1.3652,-1.4036,-1.4065,-1.4553,-1.5762,-1.6796,-1.7892,-1.906,-2.0284,-2.0511,-1.9587,-2.0249,-2.0337,-1.9773,-2.0421,-2.0746,-2.0771,-2.1366,-2.1649,-2.1673,-2.1673,-2.1673,-2.1744,-2.2392,-2.3009,-2.3611,-2.4283,-2.4909,-2.5481,0.0,0.0,0.0,0.0,0.0,0.0,0.0,0.0,0.0,0.0,0.0,0.0,0.0,0.0,0.0,0.0,0.0,0.0,0.0,0.0,0.0,0.0,0.0,0.0,0.0,0.0,0.0,0.0,0.0,0.0,0.0,0.0,0.0,-4.5136,-4.5843,-4.6569,-4.7074,-4.8563,-4.8912,-4.7296,-4.9352,-5.0453,-4.9702,-5.038,-5.1187,-5.1977,-5.2032,-5.238,-5.3167,-5.3185,-5.2839,-5.205,-5.1206,-5.0398,-4.9629,-4.8728,-4.8306,-4.8306,-4.8306,-4.8306,-4.8306,-4.8306,-4.7388,-4.5902,-4.5902,-4.4947,-4.3563,-4.4294,-4.4332,-4.4061,-4.446,-4.4346,-4.4073,-1.2905,-1.2905,-1.2954,-1.3128,-1.3667,-1.4158,-1.4344,-1.4975,-1.5371,-1.5254,-1.4562,-1.4104,-1.4104,-1.3486,-1.3096,-1.3213,-1.3223,-1.35,-1.413,-1.5602,-1.7296,-1.9156,-1.9485,-1.9376,-1.8805,-1.8555,-1.8642,-1.9006,-1.919,-1.9554,-2.008,-2.0232,-2.057,-2.1053,-2.1053,-2.1293,-2.1697,-2.1899,-2.2063,-2.2331,-2.3422,-2.4552,-2.5576,0.0,0.0,0.0,0.0,0.0,0.0,0.0,0.0,0.0,0.0,0.0,0.0,0.0,0.0,0.0,0.0,0.0,0.0,0.0,0.0,0.0,0.0,0.0,0.0,0.0,0.0,0.0,0.0,0.0,0.0,0.0,-4.3617,-4.4297,-4.5773,-4.6999,-4.7803,-4.7957,-4.8379,-4.8489,-4.8012,-4.915,-5.0068,-5.0435,-5.1224,-5.2013,-5.2839,-5.2876,-5.2968,-5.3185,-5.3185,-5.3075,-5.2876,-5.1499,-5.0692,-5.0453,-4.9003,-4.8306,-4.8306,-4.8306,-4.8306,-4.8306,-4.8306,-4.7388,-4.5902,-4.5902,-4.4947,-4.3548,-4.3986,-4.4106,-4.4061,-4.446,-4.4527,-4.446,-1.2905,-1.2905,-1.2964,-1.3115,-1.3665,-1.4055,-1.3901,-1.4449,-1.472,-1.4222,-1.3579,-1.3113,-1.2949,-1.2373,-1.2123,-1.2403,-1.2622,-1.3008,-1.3714,-1.5224,-1.6675,-1.7918,-1.8189,-1.809,-1.7667,-1.7612,-1.7825,-1.8232,-1.8232,-1.8608,-1.9345,-1.9345,-1.9696,-2.0371,-2.0371,-2.0584,-2.0915,-2.1197,-2.1318,-2.1414,-2.2386,-2.3608,-2.4823,-2.5127,-2.6148,-2.7481,-2.7767,-2.7964,-2.8253,-2.9083,0.0,0.0,0.0,0.0,0.0,0.0,0.0,0.0,0.0,0.0,0.0,0.0,0.0,0.0,0.0,0.0,0.0,0.0,0.0,0.0,0.0,0.0,0.0,0.0,-4.3294,-4.4167,-4.5341,-4.6403,-4.7357,-4.8193,-4.8306,-4.8306,-4.8306,-4.9389,-5.0288,-5.0765,-5.1867,-5.2711,-5.3167,-5.3185,-5.3185,-5.3185,-5.3185,-5.3185,-5.3185,-5.161,-5.0802,-5.0784,-4.9114,-4.8306,-4.8306,-4.8306,-4.8306,-4.8306,-4.8306,-4.7388,-4.5902,-4.5902,-4.4947,0.0,0.0,0.0,0.0,0.0,-4.414,-4.414,-1.2851,-1.289,-1.301,-1.3378,-1.3715,-1.3809,-1.3516,-1.3814,-1.3684,-1.258,-1.2114,-1.1762,-1.1346,-1.101,-1.104,-1.1641,-1.2135,-1.2884,-1.4022,-1.5293,-1.5993,-1.6026,-1.6687,-1.6846,-1.6389,-1.7024,-1.7385,-1.7468,-1.7468,-1.7852,-1.8581,-1.8581,-1.8939,-1.9553,-1.9643,-1.9669,-1.9721,-2.0396,-2.0696,-2.0721,-2.1256,-2.2323,-2.3655,-2.4336,-2.5726,-2.7373,-2.8052,-2.867,-2.9219,-2.9275,0.0,0.0,0.0,0.0,0.0,0.0,0.0,0.0,0.0,0.0,0.0,0.0,0.0,0.0,0.0,0.0,0.0,0.0,0.0,0.0,0.0,0.0,0.0,0.0,-4.3454,-4.4335,-4.4497,-4.5051,-4.6105,-4.7983,-4.8267,-4.8343,-4.8434,-4.9866,-5.0839,-5.093,-5.2344,-5.3185,-5.3185,-5.3185,0.0,0.0,0.0,-5.3185,-5.3185,-5.161,-5.0802,-5.0784,-4.9114,-4.8306,-4.8306,-4.8306,-4.8306,-4.8306,-4.8306,-4.7388,-4.5902,-4.5902,-4.4947,-4.3515,-4.3515,-4.3515,-4.3515,-4.3515,-4.3515,-4.3515,-1.2441,-1.2748,-1.2914,-1.2987,-1.2858,-1.2716,-1.2639,-1.2957,-1.3057,-1.2609,-1.2162,-1.1782,-1.1479,-1.1062,-1.0838,-1.099,-1.1522,-1.247,-1.3934,-1.4914,-1.5467,-1.5537,-1.6019,-1.6089,-1.5613,-1.5748,-1.6112,-1.6708,-1.6708,-1.709,-1.7825,-1.7825,-1.7907,-1.8058,-1.8661,-1.89,-1.8953,-1.9683,-2.0003,-1.9991,-2.0105,-2.1262,-2.2958,-2.3655,-2.4781,-2.6129,-2.6756,-2.7391,-2.802,-2.8571,-2.8722,-2.8864,-2.9946,-3.0845,0.0,0.0,0.0,0.0,0.0,0.0,0.0,0.0,0.0,0.0,0.0,0.0,0.0,0.0,0.0,0.0,0.0,0.0,0.0,-4.3943,-4.3824,-4.3978,-4.5122,-4.581,-4.6532,-4.7452,-4.7997,-4.8581,-4.928,-5.0233,-5.1077,-5.172,-5.2656,-5.3185,-5.3185,-5.3185,-5.3185,-5.3185,-5.3185,-5.3185,-5.3185,-5.161,-5.0802,-5.0784,-4.9114,0.0,-4.8306,-4.8306,-4.8306,-4.8306,-4.8306,-4.7388,-4.5902,-4.5902,-4.4947,-4.3515,-4.3515,-4.3515,-4.3515,-4.3515,-4.3515,-4.3515,-1.1878,-1.2133,-1.2359,-1.262,-1.2501,-1.2333,-1.2144,-1.2279,-1.2212,-1.1654,-1.1249,-1.0912,-1.0639,-1.0404,-1.034,-1.0543,-1.1467,-1.2443,-1.3451,-1.3898,-1.4343,-1.4765,-1.4643,-1.4812,-1.5391,-1.5021,-1.5196,-1.595,-1.595,-1.634,-1.7062,-1.7062,-1.7257,-1.7633,-1.7988,-1.814,-1.8167,-1.8543,-1.89,-1.9254,-1.9254,-2.0053,-2.1397,-2.2656,-2.3772,-2.4816,-2.6087,-2.677,-2.7144,-2.7861,-2.8072,-2.8225,-2.922,-3.0237,-3.1327,0.0,0.0,0.0,0.0,0.0,0.0,0.0,0.0,0.0,0.0,0.0,0.0,0.0,0.0,-4.1982,-4.2709,0.0,-4.3555,-4.3944,-4.3995,-4.4251,-4.4947,-4.5571,-4.6312,-4.7281,-4.7937,-4.8636,-4.9519,-5.0325,-5.1132,-5.194,-5.2747,-5.3185,-5.3185,-5.3185,-5.3185,-5.3185,-5.3185,-5.3023,-5.2601,-5.1408,-5.06,-5.0178,-4.8912,-4.8306,-4.8306,-4.8306,-4.8306,-4.8306,-4.8306,-4.7388,-4.5847,-4.5021,-4.4231,-4.3515,-4.3515,-4.3515,-4.3515,-4.3515,-4.3515,-4.3515,-1.1219,-1.1328,-1.1634,-1.2199,-1.2136,-1.1932,-1.1611,-1.1562,-1.1298,-1.06,-1.0267,-1.0007,-0.9713,-0.9715,-0.9885,-1.0305,-1.1412,-1.228,-1.2807,-1.2831,-1.3166,-1.3944,-1.3342,-1.3666,-1.5138,-1.454,-1.4599,-1.541,-1.541,-1.569,-1.6293,-1.6293,-1.6595,-1.7191,-1.733,-1.7385,-1.7385,-1.755,-1.8018,-1.8642,-1.867,-1.9165,-2.0042,-2.1742,-2.2817,-2.3649,-2.5319,-2.6189,-2.659,-2.7203,-2.7484,-2.772,-2.8382,-2.9416,-3.0701,-3.2156,-3.3446,0.0,0.0,0.0,0.0,0.0,0.0,0.0,0.0,-4.0536,-4.0874,-4.2049,-4.2405,-4.2692,-4.3274,-4.4164,-4.4536,-4.3775,-4.4299,-4.4767,-4.4632,-4.5115,-4.5883,-4.691,-4.7677,-4.8574,-4.9719,-5.0417,-5.1206,-5.216,-5.2839,-5.3185,-5.3185,-5.3185,-5.3185,-5.3185,-5.3185,-5.2821,-5.1995,-5.1206,-5.0398,-4.9592,-4.8728,-4.8306,-4.8306,-4.8306,-4.8306,-4.8288,-4.7976,-4.7095,-4.5773,-4.4158,-4.3515,-4.3515,-4.3515,-4.3515,-4.3515,-4.3515,-4.3515,-4.3515,-1.0635,-1.0694,-1.0954,-1.1743,-1.127,-1.0798,-1.0737,-1.0744,-1.0586,-1.02,-1.011,-1.0007,-0.9713,-0.9715,-0.9939,-1.0523,-1.0718,-1.1217,-1.2208,-1.2294,-1.2546,-1.3108,-1.3039,-1.3425,-1.4293,-1.4243,-1.4599,-1.541,-1.541,-1.5439,-1.5526,-1.5526,-1.5584,-1.5661,-1.634,-1.6624,-1.668,-1.733,-1.7891,-1.8374,-1.8608,-1.9273,-2.026,-2.125,-2.209,-2.2804,-2.3637,-2.5029,-2.651,-2.659,-2.706,-2.772,-2.8382,-2.912,-3.009,-3.2037,-3.3106,-3.4051,-3.6047,-3.7073,-3.7914,-3.9462,-4.0023,-4.0552,0.0,-4.2033,-4.2083,-4.2252,-4.2828,-4.3291,-4.3375,-4.4604,-4.5331,-4.4598,-4.5077,-4.5348,-4.4699,-4.5115,-4.5545,-4.5699,-4.6774,-4.8314,-5.0468,-5.0747,-5.1426,-5.2968,-5.3148,-5.3185,-5.3185,-5.3185,-5.3185,-5.3185,-5.3185,-5.2821,-5.1995,-5.1206,-5.0398,-4.9592,-4.8728,-4.8306,-4.8306,-4.8306,-4.8306,-4.8233,-4.6783,-4.6067,-4.5773,-4.4158,-4.3515,-4.3515,-4.3515,-4.3515,-4.3515,-4.3515,-4.3515,-4.3515,-1.0499,-1.0593,-1.0713,-1.1045,-1.0839,-1.0593,-1.0593,-1.0593,-1.0546,-1.0419,-1.0374,-1.0261,-0.9967,-0.9933,-1.0174,-1.0794,-1.0847,-1.1018,-1.146,-1.15,-1.1739,-1.2282,-1.1849,-1.2212,-1.3455,-1.3485,-1.3906,-1.4688,-1.5167,-1.541,-1.541,-1.541,-1.541,-1.542,-1.6028,-1.6256,-1.6295,-1.6856,-1.7422,-1.8048,-1.869,-1.9425,-2.0284,-2.116,-2.1906,-2.2616,-2.3987,-2.5003,0.0,-2.6675,-2.7163,-2.7568,-2.8356,-2.9056,-2.9991,-3.1957,-3.2998,-3.3862,-3.5538,-3.6831,-3.7786,-3.8018,-3.8731,-3.9569,-4.0165,-4.0311,-4.0712,-4.202,-4.254,-4.3031,-4.3927,-4.4976,-4.5602,-4.528,-4.5855,-4.6075,-4.5331,-4.5478,-4.5586,-4.5511,-4.5982,-4.7328,-4.9967,-4.9777,-5.0545,-5.2999,-5.2766,-5.2711,-5.3167,-5.3185,-5.3185,-5.3185,-5.2747,-5.2123,-5.1316,-5.049,-4.9664,-4.8838,-4.8471,-4.8306,-4.8306,-4.8306,-4.8049,-4.7535,-4.6397,-4.5626,-4.5112,-4.3956,-4.3515,-4.3515,-4.3515,-4.3515,-4.3515,-4.3515,-4.3515,-4.3515,-1.0506,-1.0593,-1.0593,-1.0593,-1.0593,-1.0593,-1.0593,-1.0593,-1.0593,-1.0593,-1.0593,-1.0512,-1.0261,-1.0241,-1.0441,-1.0949,-1.0995,-1.0995,-1.0995,-1.0995,-1.1147,-1.1452,-1.0926,-1.1233,-1.2634,-1.2665,-1.3111,-1.3974,-1.4835,-1.5309,-1.5363,-1.5652,-1.5771,-1.5761,-1.6103,-1.6281,-1.6269,-1.6592,-1.7062,-1.7739,-1.8455,-1.9358,-2.0405,-2.1104,-2.1944,-2.2921,-2.4124,-2.4779,-2.5256,-2.6325,-2.7088,-2.7675,-2.813,-2.9012,-3.0193,-3.1988,-3.311,-3.4023,-3.519,-3.6139,-3.6769,-3.6631,-3.7445,-3.8309,-3.8556,-3.8936,-3.9698,-4.1355,-4.2028,-4.2692,-4.4012,-4.5043,-4.5703,-4.5703,-4.6498,-4.6769,-4.5838,-4.5703,-4.5665,-4.5557,-4.5568,-4.6621,-4.9293,-4.8819,-4.9541,-5.2409,-5.2043,-5.2078,-5.286,-5.3082,-5.3093,-5.2894,-5.2307,-5.1499,-5.0472,-4.9904,-4.915,-4.8306,-4.8306,-4.8306,-4.8306,-4.8086,-4.7645,-4.7039,-4.6012,-4.5241,-4.4654,-4.3828,-4.3515,-4.3515,-4.3515,-4.3515,-4.3515,-4.3515,-4.3515,-4.3515,-1.0586,-1.0593,-1.0593,-1.0593,-1.0593,-1.0593,-1.0593,-1.0593,-1.0593,-1.0593,-1.0593,-1.0586,-1.0579,-1.0579,-1.07,-1.0969,-1.0995,-1.0995,-1.0995,-1.0995,-1.0894,-1.0638,-1.0624,-1.0989,-1.1834,-1.1826,-1.236,-1.3425,-1.444,-1.5042,-1.5317,-1.6218,-1.6658,-1.6658,-1.6677,-1.6677,-1.6687,-1.6697,-1.6973,-1.7455,-1.7708,-1.8951,-2.0617,-2.0902,-2.2244,-2.3879,-2.3351,-2.4004,-2.512,-2.515,-2.655,-2.8182,-2.7703,-2.8897,-3.0746,-3.2108,-3.344,-3.4638,-3.531,-3.5058,-3.4919,-3.6276,-3.6661,-3.6874,-3.7677,-3.8983,-4.0095,-4.0144,-4.1291,-4.2523,-4.3318,-4.4688,-4.5703,-4.5703,-4.6938,-4.7348,-4.5906,-4.5703,-4.5703,-4.5698,-4.5698,-4.6539,-4.8726,-4.8194,-4.8682,-5.0986,-5.1096,-5.1357,-5.2082,-5.2809,-5.2839,-5.205,-5.1995,-5.1224,-4.9647,-4.961,-4.915,-4.8306,-4.8306,-4.8306,-4.8269,-4.748,-4.7113,-4.7003,-4.5406,-4.4709,-4.4654,-4.3828,-4.3515,-4.3515,-4.3515,-4.3515,-4.3515,-4.3515,-4.3515,-4.3515,-0.8774,-0.9239,-0.9556,-0.8967,-0.9358,-0.9722,-0.9722,-1.0238,-1.0396,-0.9817,-0.9317,0.0,0.0,0.0,0.0,0.0,-1.1283,-1.1283,-1.1283,-1.1283,-1.1149,-1.0894,-1.0693,-1.0807,-1.1249,-1.1774,-1.2355,-1.2933,-1.3811,-1.4616,-1.5321,-1.562,-1.6096,-1.6716,-1.7031,-1.7314,-1.7545,-1.7545,-1.8154,-1.9046,-1.888,-1.9515,-2.0698,-2.173,-2.2543,-2.3291,0.0,-2.5044,-2.5454,-2.5589,-2.6338,-2.7329,-2.7854,-2.9117,-3.0749,-3.2616,-3.4113,-3.5115,-3.4891,-3.4996,-3.5269,-3.5753,-3.5863,-3.607,-3.6828,-3.7407,-3.8224,-3.9773,-4.0873,-4.1944,-4.3158,-4.4671,-4.5872,-4.6346,-4.7276,-4.772,-4.7242,-4.7175,-4.6989,-4.6481,-4.643,-4.692,-4.8106,-4.7457,-4.8136,-5.0883,-5.0133,-5.0096,-5.1372,-5.122,-5.0946,-5.0677,-5.0077,-4.9477,-4.8932,-4.8789,-4.86,-4.8306,-4.8306,-4.8012,-4.748,-4.7223,-4.6526,-4.548,-4.4929,-4.4397,-4.3883,-4.3608,-4.3515,-4.3515,-4.3515,-4.3515,-4.3515,-4.3515,-4.3515,-4.3515,-0.8842,-0.9303,-0.9588,-0.9032,-0.939,0.0,0.0,0.0,0.0,0.0,0.0,0.0,0.0,0.0,0.0,0.0,0.0,-1.1316,-1.1382,-1.1389,-1.1309,-1.1156,-1.0969,-1.0955,-1.1142,-1.1661,-1.2076,-1.2412,-1.3278,-1.4245,-1.5268,-1.5601,-1.6331,-1.7389,-1.7705,-1.8066,-1.8457,-1.8301,-1.8711,-1.9421,-1.9162,-1.9565,-2.0505,-2.1901,-2.278,0.0,-2.4793,-2.5573,-2.5912,-2.5807,-2.6231,-2.69,-2.7575,-2.9086,-3.0924,-3.2542,-3.3832,-3.4741,-3.4563,-3.4801,-3.519,-3.5444,-3.5504,-3.5619,-3.6117,-3.6415,-3.7029,-3.8541,-3.9883,-4.1165,-4.2378,-4.4299,-4.594,-4.6667,-4.7648,-4.8206,-4.7922,-4.7889,-4.7703,-4.7259,-4.7192,-4.7479,-4.824,-4.7534,-4.7976,-5.0175,-4.9424,-4.9381,-5.0646,-5.0257,-4.988,-4.9571,-4.874,-4.8142,-4.7815,-4.7702,-4.7738,-4.7977,-4.8191,-4.7865,-4.7094,-4.6801,-4.5938,-4.4673,-4.4397,-4.3975,-4.3515,-4.3515,-4.3515,-4.3515,-4.3515,-4.3515,-4.3515,-4.3515,-4.3515,-4.3515,-1.0471,-1.0485,-1.0523,0.0,0.0,0.0,0.0,0.0,0.0,0.0,0.0,0.0,0.0,0.0,0.0,0.0,0.0,0.0,-1.1395,-1.1415,-1.1415,-1.1415,-1.1395,-1.1402,-1.1435,-1.1435,-1.1623,-1.1973,-1.2919,-1.4014,-1.5256,-1.6202,-1.7365,-1.8637,-1.8637,-1.888,-1.9287,-1.8822,-1.8666,-1.8724,-1.8656,-1.9164,-2.0093,-2.1523,-2.2949,-2.4242,-2.4785,-2.5661,-2.6487,-2.5812,-2.6192,-2.6963,-2.7016,-2.8911,-3.126,-3.195,-3.2769,-3.3648,-3.4307,-3.4533,-3.4713,-3.534,-3.5504,-3.5504,-3.5504,-3.6023,-3.6554,-3.6569,-3.8453,-4.032,-4.1007,-4.3628,-4.5889,-4.6616,-4.7953,-4.868,-4.8024,-4.7939,-4.7939,-4.7939,-4.7939,-4.824,-4.8934,-4.8376,-4.8257,-4.8951,-4.8918,-4.9145,-4.9861,-4.9863,-4.9452,-4.8675,-4.7964,-4.7185,-4.6359,-4.6365,-4.671,-4.7363,-4.7901,-4.7734,-4.6909,-4.614,-4.537,-4.4563,-4.3828,-4.3515,-4.3515,-4.3515,-4.3515,-4.3515,-4.3515,-4.3515,-4.3515,-4.3515,-4.3515,-4.3515,0.0,0.0,0.0,0.0,0.0,0.0,0.0,0.0,0.0,0.0,0.0,0.0,0.0,0.0,0.0,0.0,0.0,0.0,-1.1785,-1.1757,-1.1757,-1.1757,-1.1543,-1.1595,-1.2071,-1.2078,-1.2338,-1.2872,-1.3903,-1.4947,-1.5955,-1.7047,-1.8117,-1.9121,-1.9121,-1.9355,-1.9727,-1.9297,-1.9687,-2.045,-1.9512,-1.9649,-2.0634,-2.2521,-2.3487,-2.4125,-2.6426,-2.7444,-2.7469,-2.6063,-2.6449,-2.7657,-2.8562,-2.9515,-3.0628,-3.2348,-3.3039,-3.3472,-3.4286,-3.4846,-3.5295,-3.5459,-3.5504,-3.5504,-3.5504,-3.5651,-3.5958,-3.6508,-3.8451,-4.0096,-4.0346,-4.2842,-4.5111,-4.5855,-4.6752,-4.7682,-4.8595,-4.8731,-4.8731,-4.8731,-4.8731,-4.8798,-4.8984,-4.8832,-4.8798,-4.8984,-4.8472,-4.8252,-4.8439,-4.7911,-4.7255,-4.6518,-4.6204,-4.5941,-4.5732,-4.6167,-4.6501,-4.6664,-4.6239,-4.5648,-4.4857,-4.4556,-4.3972,-4.3211,-4.3431,-4.3515,-4.3515,-4.3515,-4.3515,-4.3515,-4.3515,-4.3515,-4.3515,-4.3515,-4.3515,-4.3515,0.0,0.0,0.0,0.0,0.0,0.0,0.0,0.0,0.0,0.0,0.0,0.0,0.0,0.0,0.0,0.0,0.0,0.0,0.0,-1.1906,-1.2228,-1.2961,-1.2215,-1.2294,-1.3377,-1.2958,-1.309,-1.3888,-1.4638,-1.5669,-1.6963,-1.758,-1.8518,-1.9561,-1.9561,-1.9795,-2.0166,-1.9746,-1.999,0.0,0.0,-2.0252,-2.151,-2.3277,-2.4383,-2.5252,-2.7348,-2.7946,-2.7632,-2.6929,-2.7074,-2.764,-2.8308,-2.9098,-3.0079,-3.1923,-3.2758,-3.3336,-3.4267,-3.4981,-3.5504,-3.5504,-3.5504,-3.5579,-3.5863,-3.5938,-3.6129,-3.6814,-3.8495,-3.991,-3.9985,-4.218,-4.4338,-4.5503,-4.6283,-4.7267,-4.8771,-4.9001,-4.9001,-4.9001,-4.9001,-4.9001,-4.9001,-4.9001,-4.9001,-4.9001,-4.8629,-4.8227,-4.7906,-4.7192,-4.6464,-4.572,-4.5326,-4.5115,-4.5115,-4.5707,-4.5839,-4.5512,-4.5382,-4.4723,-4.3603,-4.3539,-4.3077,-4.2322,-4.262,-4.2753,-4.2753,-4.2753,-4.2753,-4.2753,-4.2753,-4.2903,-4.316,-4.316,-4.3286,-4.3515,0.0,0.0,0.0,0.0,0.0,0.0,0.0,0.0,0.0,-1.0281,-1.0178,-0.999,-0.9561,-1.0206,0.0,0.0,0.0,0.0,0.0,0.0,-1.3021,-1.45,-1.3409,-1.3484,-1.5033,-1.418,-1.4163,-1.5125,-1.5573,-1.655,-1.805,-1.82,-1.8883,-2.0,-2.0,-2.0215,-2.0576,-2.0166,-2.0,-2.001,-2.0068,-2.0969,-2.245,0.0,-2.5439,-2.6872,-2.794,-2.7971,-2.7557,-2.7971,-2.7733,-2.7306,-2.7457,-2.8318,-2.9513,-3.1105,-3.2192,-3.3149,-3.4164,-3.4944,-3.5504,-3.5504,-3.5504,-3.5684,-3.6342,-3.6492,-3.6656,-3.7285,-3.8635,-3.9715,-3.9749,-4.1421,-4.3378,-4.5077,-4.5896,-4.6888,-4.8584,-4.8923,-4.9001,-4.9001,-4.9001,-4.9001,-4.9001,-4.9001,-4.9001,-4.9001,-4.8917,-4.8545,-4.777,-4.7056,-4.6312,-4.5585,-4.4925,-4.4615,-4.4615,-4.5013,-4.4898,-4.4275,-4.4598,-4.4071,-4.2767,-4.2728,-4.2343,-4.1686,-4.1768,-4.181,-4.181,-4.181,-4.181,-4.181,-4.181,-4.2121,-4.2596,-4.2655,-4.2995,-4.341,0.0,0.0,0.0,0.0,0.0,0.0,-1.0914,-1.1635,-1.2277,-1.2635,-1.2025,-1.1611,-1.1745,-1.1888,0.0,0.0,0.0,0.0,0.0,0.0,0.0,-1.5528,-1.5304,-1.5595,-1.6509,-1.6369,-1.6444,-1.6871,-1.7852,-1.8497,-1.8837,-1.9705,-2.0265,-2.0488,-2.0488,-2.0537,-2.0595,-2.0517,-2.0488,-2.0527,-2.0859,-2.1687,-2.2981,-2.4813,-2.6281,0.0,-2.8996,-2.9126,-2.8549,-2.8235,-2.7733,-2.7444,-2.8348,-2.8496,-2.8711,-3.0682,-3.1638,-3.2336,-3.3725,-3.4784,-3.5504,-3.5504,-3.5504,-3.5684,-3.6342,-3.6492,-3.6656,-3.7285,-3.8635,-3.9542,-3.9097,-4.0286,-4.1831,-4.3323,-4.4285,-4.5555,-4.7554,-4.8513,-4.9001,-4.9001,-4.9001,-4.9001,-4.9001,-4.9001,-4.9001,-4.9001,-4.8443,-4.7784,-4.7022,-4.6295,-4.5551,-4.479,-4.4682,-4.4615,-4.4615,-4.402,-4.3685,-4.3559,-4.2449,-4.1767,-4.1519,-4.1335,-4.1186,-4.1087,-4.1578,-4.181,-4.181,-4.181,-4.181,-4.181,-4.181,-4.1874,-4.2018,-4.2519,-4.2769,-4.2902,0.0,0.0,0.0,0.0,0.0,0.0,-1.1686,-1.2611,-1.3561,-1.4295,-1.4114,-1.3994,-1.4109,-1.432,-1.4674,0.0,0.0,0.0,0.0,0.0,0.0,-1.7159,-1.6483,-1.6691,-1.7965,-1.742,-1.7473,-1.8189,0.0,-1.9405,-1.9844,-2.0362,-2.0605,-2.0644,-2.1116,-2.1336,-2.1375,-2.1897,-2.1821,-2.1415,-2.2397,-2.3317,-2.431,-2.6005,-2.7513,0.0,-2.9524,-2.9415,-2.89,-2.8976,-2.8612,-2.8235,-2.8725,-2.895,-2.9315,-3.1091,-3.1892,-3.2479,-3.3702,-3.4725,-3.5504,-3.5504,-3.5504,-3.5759,-3.6746,-3.6971,-3.7255,-3.8257,-3.9028,-3.9458,-3.9248,-3.9741,-4.0946,-4.3379,-4.3378,-4.4334,-4.7844,-4.8004,-4.8077,-4.8889,-4.9001,-4.9001,-4.9001,-4.9001,-4.8849,-4.8477,-4.775,-4.7175,-4.6802,-4.5737,-4.4987,-4.4615,-4.4615,-4.4412,-4.3978,-4.3578,-4.3003,-4.2269,-4.1542,-4.1001,-4.062,-4.0539,-4.0473,-4.0497,-4.0791,-4.0932,-4.0932,-4.0932,-4.0932,-4.0932,-4.0932,-4.1082,-4.138,-4.1643,-4.1958,-4.2304,0.0,0.0,0.0,0.0,0.0,0.0,-1.2706,-1.3705,-1.4739,-1.5666,-1.6246,-1.6577,-1.6664,-1.6517,-1.6518,0.0,0.0,0.0,0.0,0.0,0.0,0.0,-1.7734,-1.7923,-1.9592,0.0,0.0,-2.0116,-2.0495,0.0,0.0,0.0,0.0,0.0,-2.2147,-2.2424,-2.2366,-2.3147,-2.3091,0.0,0.0,-2.4943,-2.5853,0.0,0.0,0.0,0.0,-2.9503,-2.9164,-2.9503,-2.939,-2.9076,-2.9076,-2.9503,-3.02,-3.147,-3.2273,-3.2937,-3.3768,-3.4725,-3.5504,-3.5504,-3.5504,-3.5833,-3.712,-3.7404,-3.7793,-3.9104,-3.9388,-3.945,-3.957,-3.9358,-4.015,-4.3089,-4.2744,-4.3456,-4.7355,-4.7272,-4.7271,-4.8541,-4.8688,-4.8798,-4.897,-4.8866,-4.8528,-4.7922,-4.7073,-4.6498,-4.6329,-4.5241,-4.4615,-4.4615,-4.4418,-4.4045,-4.3392,-4.3071,-4.2371,-4.1204,-4.1035,-4.0646,-4.0096,-4.0096,-4.0096,-4.0096,-4.0096,-4.0096,-4.0096,-4.0096,-4.0096,-4.0096,-4.0096,-4.0343,-4.0733,-4.0874,-4.1201,-4.1686,0.0,0.0,0.0,0.0,0.0,0.0,-1.3835,-1.4744,-1.5776,-1.6902,-1.8179,-1.9099,-1.9475,-1.7665,-1.6856,0.0,0.0,0.0,0.0,0.0,0.0,0.0,0.0,0.0,0.0,0.0,0.0,-2.3797,-2.4371,0.0,0.0,0.0,0.0,0.0,0.0,-2.3817,-2.3368,-2.3441,0.0,0.0,0.0,0.0,0.0,0.0,0.0,0.0,0.0,-2.9754,-2.9641,-2.9126,-2.9327,-2.9716,-2.9716,-3.0093,-3.0629,-3.1117,-3.2233,-3.3442,-3.3896,-3.4725,-3.5504,-3.5504,-3.5504,-3.5833,-3.712,-3.7404,-3.7793,-3.9104,-3.9388,-3.945,-3.957,-3.8998,-3.9028,-4.069,-4.2127,-4.3349,-4.4161,-4.614,-4.7556,-4.7721,-4.7737,-4.8047,-4.894,-4.8409,-4.7956,-4.7889,-4.6616,-4.55,-4.4852,-4.4682,-4.4615,-4.4615,-4.3893,-4.346,-4.3392,-4.2083,-4.1339,-4.1187,-4.051,-4.018,-4.0096,-4.0096,-4.0096,-4.0096,-4.0096,-4.0096,-4.0096,-4.0096,-4.0096,-4.0096,-4.0096,-4.0121,-4.0229,-4.0709,-4.0926,-4.1064,0.0,0.0,0.0,0.0,0.0,0.0,-1.4819,-1.5661,-1.6764,-1.8273,-1.8952,-1.9551,-2.0234,-1.9974,-1.9735,-1.9687,-2.0098,0.0,0.0,0.0,0.0,0.0,0.0,0.0,0.0,0.0,-2.4105,-2.4828,-2.507,0.0,0.0,0.0,0.0,0.0,0.0,-2.5073,-2.4912,-2.5528,0.0,0.0,0.0,0.0,0.0,0.0,0.0,0.0,0.0,0.0,-2.9754,-2.9528,-2.9603,-2.9792,-2.9792,-3.0168,-3.0649,-3.0777,-3.144,-3.2222,-3.2946,-3.3856,-3.4725,-3.5359,-3.5504,-3.5833,-3.712,-3.7404,-3.7793,-3.9104,-3.9388,-3.9406,-3.9461,-3.9204,-3.9521,-4.1079,-4.1453,-4.2283,-4.4518,-4.5223,-4.5846,-4.6832,-4.7448,-4.7718,-4.7511,-4.7749,-4.7517,-4.665,-4.5618,-4.4891,-4.4632,-4.4615,-4.4615,-4.4615,-4.3826,-4.32,-4.2743,-4.1728,-4.0984,-4.0527,-4.0248,-4.0096,-4.0096,-4.0096,-4.0096,-4.0096,-4.0096,-4.0096,-4.0096,-4.0096,-4.0096,-4.0096,-4.0096,-4.0096,-4.0121,-4.0343,-4.0417,-4.0497,0.0,0.0,0.0,0.0,0.0,-1.4847,-1.5724,-1.6329,-1.7442,-1.9483,-1.9739,-2.0179,-2.1321,-2.2038,-2.2241,-2.175,-2.2149,0.0,0.0,0.0,0.0,0.0,0.0,0.0,0.0,0.0,-2.5401,-2.6278,-2.648,-2.6562,0.0,0.0,-2.648,-2.6305,0.0,0.0,0.0,0.0,0.0,0.0,0.0,0.0,0.0,0.0,0.0,0.0,0.0,0.0,0.0,0.0,0.0,-3.0043,-3.0043,-3.0193,-3.0409,-3.0698,-3.1099,-3.1689,-3.272,-3.3484,-3.4245,-3.5246,-3.5654,-3.6088,-3.7165,-3.7554,-3.8018,-3.9149,-3.9388,-3.9388,-3.9388,-3.9388,-3.976,-4.0918,-4.0929,-4.1623,-4.3981,-4.4134,-4.4498,-4.5835,-4.6422,-4.6631,-4.6502,-4.6929,-4.6735,-4.5466,-4.4874,-4.4615,-4.4615,-4.435,-4.4231,-4.4231,-4.3487,-4.2726,-4.1982,-4.1238,-4.0595,-4.0096,-4.0096,-4.0096,-4.0096,-4.0096,-4.0096,-4.0096,-4.0096,-4.0096,-4.0096,-4.0096,-4.0096,-4.0096,-4.0096,-4.0096,-4.0096,-4.0096,-4.0096,-4.0146,0.0,0.0,0.0,0.0,0.0,-1.5683,-1.656,-1.6697,-1.7693,-2.0418,-2.079,-2.146,-2.3267,-2.3478,-2.3679,-2.4198,-2.3806,0.0,0.0,0.0,0.0,0.0,0.0,0.0,0.0,0.0,-2.7318,-2.8838,-2.9452,-2.9728,-2.9728,-2.9728,-2.9427,-2.8838,0.0,0.0,0.0,0.0,0.0,0.0,0.0,0.0,-2.9792,0.0,0.0,0.0,0.0,0.0,0.0,0.0,0.0,0.0,0.0,-3.0231,-2.9972,-3.0908,-3.1589,-3.227,-3.3619,-3.3993,-3.4245,-3.5246,-3.5998,-3.6641,-3.727,-3.7913,-3.8571,-3.9275,-3.9388,-3.9388,-3.9388,-3.9388,-3.9424,-3.9424,-4.0751,-4.1694,-4.1453,-4.2805,-4.408,-4.4756,-4.4251,-4.4539,-4.6323,-4.6026,-4.5415,-4.4682,-4.4615,-4.4615,-4.4615,-4.3859,-4.3409,-4.3409,-4.2692,-4.1948,-4.1221,-4.0485,-4.0113,-4.0096,-4.0096,-4.0096,-4.0096,-4.0096,-4.0096,-4.0096,-4.0096,-4.0096,-4.0096,-4.0096,-4.0096,-4.0096,-4.0096,-4.0096,-4.0096,-4.0096,-4.0096,-4.0096,0.0,0.0,0.0,0.0,0.0,0.0,-1.8244,-1.864,-1.9543,-2.139,-2.1633,-2.2112,-2.3377,-2.4443,-2.515,-2.5314,-2.5185,0.0,0.0,0.0,0.0,0.0,0.0,0.0,0.0,-2.7903,-2.8611,-2.9515,-2.9704,-2.9792,-2.9792,-2.9792,-2.9691,-2.9503,-2.9063,-2.88,0.0,0.0,0.0,0.0,-2.9867,-3.0018,-3.0319,0.0,0.0,0.0,0.0,0.0,0.0,0.0,0.0,0.0,0.0,0.0,0.0,-3.1144,-3.1185,-3.1344,-3.2785,-3.3725,-3.4494,-3.5528,-3.6463,-3.7285,-3.7928,-3.8242,-3.8586,-3.9239,-3.9388,-3.9388,-3.9388,-3.9388,-3.9388,-3.9388,-4.0188,-4.1013,-4.1536,-4.2844,-4.3969,-4.4598,-4.4072,-4.3807,-4.4154,-4.3554,-4.3307,-4.3667,-4.371,-4.3977,-4.457,-4.3842,-4.3392,-4.3392,-4.2202,-4.1441,-4.1204,-4.0485,-4.0096,-4.0096,-4.0096,-4.0096,-4.0096,-4.0096,-4.0096,-4.0096,-4.0096,-4.0096,-4.0096,-4.0096,-4.0096,-4.0096,-4.0096,-4.0096,-4.0096,-4.0096,-4.0096,-4.0096,0.0,0.0,0.0,0.0,0.0,0.0,-1.9321,-1.968,-2.0536,-2.233,-2.2559,-2.3087,-2.4471,-2.5673,-2.6432,-2.6639,-2.6834,0.0,0.0,0.0,0.0,0.0,0.0,0.0,-2.8097,-2.8612,-2.9214,-2.9792,-2.9792,-2.9792,-2.9792,-2.9792,-2.9792,-2.9779,-2.9415,-2.9252,0.0,0.0,0.0,0.0,-2.993,-2.9993,-3.0269,0.0,0.0,0.0,0.0,0.0,0.0,0.0,0.0,0.0,0.0,0.0,0.0,0.0,-3.2072,-3.2028,-3.3129,-3.4176,-3.5232,-3.6228,-3.7118,-3.7883,-3.8287,-3.8601,-3.8901,-3.9334,-3.9388,-3.9388,-3.9388,-3.9388,-3.9388,-3.9388,-3.9768,-4.0407,-4.1443,-4.2524,-4.3364,-4.3724,-4.3494,-4.2992,-4.227,-4.2075,-4.2237,-4.2785,-4.2816,-4.2947,-4.3223,-4.2505,-4.2104,-4.216,-4.1529,-4.1068,-4.0781,-4.0333,-4.0096,-4.0096,-4.0096,-4.0096,-4.0096,-4.0096,-4.0096,-4.0096,-4.0096,-4.0096,0.0,-4.0096,-4.0096,-4.0096,-4.0096,-4.0096,-4.0096,-4.0096,-4.0096,-4.0096,0.0,0.0,0.0,0.0,0.0,0.0,0.0,-2.009,-2.096,-2.3299,-2.358,-2.4323,-2.6305,-2.7014,-2.7544,-2.8059,-2.8612,0.0,0.0,0.0,0.0,0.0,0.0,0.0,-2.816,-2.8675,-2.9252,-2.9792,-2.9792,-2.9792,-2.9792,-2.9792,-2.9792,-2.9792,-2.9792,-2.9792,0.0,0.0,0.0,0.0,-2.9829,-2.9842,0.0,0.0,0.0,0.0,0.0,0.0,0.0,0.0,0.0,0.0,0.0,0.0,0.0,0.0,0.0,0.0,0.0,-3.5359,-3.6344,-3.7213,-3.7933,-3.8467,-3.8467,-3.896,0.0,-3.9388,-3.9388,-3.9388,-3.9448,-3.9418,-3.9454,-3.9544,-3.9448,-3.9888,-4.1265,-4.2051,-4.2425,-4.2336,-4.2489,-4.2083,-4.0727,-4.1346,-4.1836,-4.1901,-4.1853,-4.1598,-4.1021,-4.0252,-3.9876,-4.0017,-4.0628,-4.0678,-4.0113,-4.0096,-4.0096,-4.0096,-4.0096,-4.0096,-4.0096,-4.0096,-4.0096,-4.0096,-4.0096,-4.0096,-4.0096,-4.0096,-4.0096,-4.0096,-4.0096,-4.0096,-4.0096,-4.0096,-4.0096,-4.0096,0.0,0.0,0.0,0.0,0.0,0.0,0.0,0.0,0.0,0.0,-2.4471,-2.4992,-2.6339,-2.7331,-2.7959,0.0,0.0,0.0,0.0,0.0,0.0,0.0,0.0,0.0,-2.87,-2.9302,-2.9654,-2.9792,-2.9792,-2.9792,-2.9792,-2.9792,-2.9792,-2.9792,-2.9792,-2.9792,0.0,0.0,0.0,0.0,-3.0118,-3.0281,0.0,0.0,0.0,0.0,-2.9792,-2.988,0.0,0.0,0.0,0.0,0.0,0.0,0.0,0.0,-3.5597,-3.6896,-3.6983,0.0,-3.742,-3.7657,-3.8428,-3.917,0.0,-3.9305,-3.9388,-3.9388,-3.9388,-3.9574,-4.0083,-3.9768,-3.9753,-4.0756,-4.0083,-4.0053,-4.1916,-4.2701,-4.2731,-4.1767,-4.1686,-4.1165,-3.9838,-3.99,-4.0289,-4.0946,-4.0528,-4.0447,-4.0958,-3.9818,-3.9154,-3.9169,-3.8796,-3.9095,-4.007,-4.0096,-4.0096,-4.0096,-4.0096,-4.0096,-4.0096,-4.0096,-4.0096,-4.0096,-4.0096,-4.0096,-4.0096,-4.0096,-4.0096,-4.0096,-4.0096,-4.0096,-4.0096,-4.0096,-4.0096,-4.0096,0.0,0.0,0.0,0.0,0.0,0.0,0.0,0.0,0.0,0.0,-2.4788,-2.5247,-2.6373,-2.7444,-2.8109,0.0,0.0,0.0,0.0,0.0,0.0,0.0,0.0,-2.8888,-2.8888,-2.991,-3.0457,-3.0457,-3.0884,-3.0846,-3.0457,-3.0884,-3.0646,-2.983,-3.0241,-3.0216,0.0,0.0,-3.0661,-3.0959,-3.0131,0.0,0.0,0.0,0.0,0.0,-2.9792,-2.9792,0.0,-3.0143,-3.0407,-3.0758,0.0,0.0,0.0,0.0,-3.5842,-3.6607,-3.7548,-3.8362,-3.8986,-3.8986,-3.9424,-3.9873,-3.9873,-3.9634,-3.9388,-3.9388,-3.9388,-3.9493,-3.9888,-3.9903,-4.0113,-4.0816,-4.0591,-4.0801,-4.2201,-4.2671,-4.2521,-4.1542,-4.1115,-4.0531,-3.9514,-3.9388,-3.9474,-3.9623,-3.9306,-3.9054,-3.8929,-3.8215,-3.781,-3.7845,-3.7468,-3.7819,-3.9022,-3.9385,-3.9542,-3.9542,-3.9927,-4.0096,-4.0096,-4.0096,-4.0096,-4.0096,-4.0096,-4.0096,-4.0096,-4.0096,-4.0096,-4.0096,-4.0096,-4.0096,-4.0096,-4.0096,-4.0096,-4.0096,0.0,0.0,0.0,0.0,0.0,0.0,0.0,0.0,0.0,0.0,0.0,0.0,0.0,0.0,0.0,0.0,0.0,0.0,0.0,0.0,0.0,0.0,-2.9264,-2.9339,-2.9476,-3.0745,-3.1466,-3.1559,-3.2254,-3.2254,-3.1596,-3.229,-3.1756,-3.0254,-3.1044,-3.0908,-3.0075,-3.1007,-3.1249,-3.0909,-3.0445,0.0,0.0,0.0,0.0,0.0,0.0,0.0,0.0,-2.9792,-3.0218,-3.0809,-3.1248,0.0,0.0,0.0,0.0,0.0,-3.7074,-3.8757,-4.0009,-4.0018,-4.0085,-4.0167,-4.0225,-3.9689,-3.9177,-3.9373,-3.9388,-3.9412,-3.9445,-3.9972,-4.042,-4.0427,-4.0957,-4.1542,-4.1901,-4.2036,-4.1856,-4.116,-4.0591,-4.0023,-3.9469,-3.9334,-3.902,-3.8437,-3.8212,-3.7629,-3.6552,-3.6387,-3.6356,-3.643,-3.6446,-3.6768,-3.7442,-3.8302,-3.8745,-3.8745,-3.9558,-3.9927,-3.9927,-4.0045,-4.0096,-4.0096,-4.0096,0.0,-4.0096,-4.0096,-4.0096,-4.0096,-4.0096,-4.0096,-4.0096,-4.0096,-4.0096,-4.0096,0.0,0.0,0.0,0.0,0.0,0.0,0.0,0.0,0.0,0.0,0.0,0.0,0.0,0.0,0.0,0.0,0.0,0.0,0.0,0.0,0.0,-3.0802,-3.0839,-3.1219,-3.2005,-3.2266,-3.2676,-3.3221,-3.282,-3.2833,-3.3207,-3.2806,-3.2464,-3.2177,-3.2321,-3.1852,-3.1044,-3.1997,-3.2499,-3.2607,-3.231,0.0,0.0,0.0,0.0,0.0,0.0,0.0,0.0,-2.9792,-3.0444,-3.1286,-3.1361,0.0,0.0,0.0,0.0,0.0,-3.6369,-3.7402,-3.8327,-3.8246,-3.862,-3.9124,-3.9496,-3.8767,-3.8308,-3.9228,-3.9388,-3.9431,-3.9552,-4.0012,-4.0441,-4.0564,-4.1047,-4.1025,-4.0008,-4.0352,-4.0457,-3.9798,-3.9634,-3.9493,-3.9388,-3.8901,-3.8497,-3.8407,-3.7389,-3.6686,-3.6492,-3.5953,-3.5659,-3.5683,-3.5668,-3.5733,-3.5861,-3.7265,-3.7978,-3.7978,-3.8718,-3.9086,-3.9113,-3.9782,-4.0096,-4.0096,0.0,-4.0096,-4.0096,-4.0096,-4.0096,-4.0096,-4.0096,-4.0096,-4.0096,-4.0096,-4.0096,-4.0096,0.0,0.0,0.0,0.0,0.0,0.0,0.0,0.0,0.0,0.0,0.0,0.0,0.0,0.0,0.0,0.0,0.0,0.0,0.0,0.0,-3.1719,-3.2664,-3.2713,-3.2664,-3.2593,-3.3101,-3.3521,-3.3804,-3.4048,-3.4048,-3.3804,-3.298,-3.289,-3.3345,-3.3345,-3.2855,-3.2046,-3.3345,-3.3857,-3.3731,0.0,0.0,0.0,0.0,0.0,0.0,0.0,0.0,0.0,0.0,-3.0319,-3.1022,-3.1298,0.0,0.0,0.0,0.0,0.0,-3.5238,-3.6034,-3.6617,-3.6234,-3.7515,-3.8883,-3.9096,-3.8221,-3.7582,-3.8063,-3.7892,-3.7782,-3.818,-3.8481,-3.8989,-3.9989,-4.0866,-4.1055,-4.0083,-4.0217,-4.0157,-3.9499,-3.9388,-3.9275,-3.8901,-3.8571,-3.8108,-3.7419,-3.6821,-3.6327,-3.5968,-3.5669,-3.5504,-3.5504,-3.5504,-3.5504,-3.5504,-3.6196,-3.6768,-3.7144,-3.7933,-3.8318,-3.833,-3.9102,-3.9463,-3.9489,0.0,-4.0096,-4.0096,-4.0096,-4.0096,-4.0096,-4.0096,-4.0096,-4.0096,-4.0096,-4.0096,-4.0096,0.0,0.0,0.0,0.0,0.0,0.0,0.0,0.0,0.0,0.0,0.0,0.0,0.0,0.0,0.0,0.0,0.0,0.0,0.0,-3.2096,-3.3031,-3.3959,-3.3993,-3.3774,-3.329,-3.3959,-3.4433,-3.4578,-3.5207,-3.5174,-3.4578,-3.3864,-3.397,-3.4796,-3.4796,-3.4286,-3.3479,-3.4942,-3.5361,-3.5022,0.0,0.0,0.0,0.0,0.0,0.0,0.0,0.0,0.0,0.0,0.0,0.0,0.0,0.0,0.0,-3.3936,-3.3755,-3.3283,-3.4108,-3.4763,-3.5064,-3.4447,-3.6159,-3.7975,-3.8227,-3.7277,-3.6428,-3.6821,-3.6503,-3.6312,-3.6661,-3.6784,-3.7505,-3.9623,-4.0283,-4.0464,-4.0195,-4.0172,-3.9933,-3.926,-3.9185,-3.8916,-3.8227,-3.8033,-3.7539,-3.6552,-3.6342,-3.6028,-3.5534,-3.5504,-3.5504,-3.5504,-3.5504,-3.5504,-3.5504,-3.5504,-3.5782,-3.6368,-3.713,-3.7515,-3.7544,-3.8302,-3.8635,-3.8663,-3.9305,-3.9558,-3.9558,-3.9558,-3.9679,-3.9808,-3.9808,-3.9927,-4.0096,-4.0096,-4.0096,-4.0096,0.0,0.0,0.0,0.0,0.0,0.0,0.0,0.0,0.0,0.0,0.0,0.0,0.0,0.0,0.0,0.0,0.0,0.0,0.0,-3.2219,-3.3031,-3.3959,-3.3993,-3.4394,-3.5279,-3.5359,-3.569,-3.6335,-3.5771,-3.5786,-3.6335,-3.6253,-3.6567,-3.7167,-3.7167,-3.6625,-3.5805,-3.6803,-3.7061,-3.6851,-3.7092,0.0,0.0,0.0,0.0,0.0,0.0,0.0,0.0,0.0,0.0,0.0,0.0,0.0,-3.3061,-3.3185,-3.3154,-3.3124,-3.3197,-3.36,-3.389,-3.3336,-3.4157,-3.5316,-3.6206,-3.5156,-3.446,-3.5959,-3.6225,-3.6072,-3.5696,-3.5606,-3.6675,-3.9852,-3.9073,-3.8387,-3.9339,-3.9448,-3.923,-3.8542,-3.8467,-3.8197,-3.7539,-3.6971,-3.6582,-3.6492,-3.5923,-3.5549,-3.5504,-3.5504,-3.5504,-3.5504,-3.5504,-3.5504,-3.5504,-3.5504,-3.5537,-3.5587,-3.6337,-3.6691,-3.6691,-3.7499,-3.7863,-3.7892,-3.7921,-3.7966,-3.7966,-3.7966,-3.8374,-3.9005,-3.9005,-3.9437,-4.0096,-4.0096,-4.0096,-4.0096,0.0,0.0,0.0,0.0,0.0,0.0,0.0,0.0,0.0,0.0,0.0,0.0,0.0,0.0,0.0,0.0,0.0,0.0,0.0,-3.3321,-3.412,-3.489,-3.4953,-3.51,-3.5504,-3.5504,-3.5624,-3.5878,-3.6028,-3.6237,-3.6492,-3.6881,-3.718,-3.7404,-3.7404,-3.7009,-3.6409,-3.7535,-3.7704,-3.732,-3.8281,-3.7579,0.0,0.0,0.0,0.0,0.0,0.0,0.0,0.0,-3.0778,-3.0972,-3.1286,-3.1687,-3.2102,-3.2441,-3.229,-3.2102,-3.2441,-3.2692,-3.2805,-3.2591,-3.2586,-3.3029,-3.4451,-3.4017,-3.3617,-3.4595,-3.4497,-3.4202,-3.4024,-3.4845,-3.5822,-3.6733,-3.7398,-3.7956,-3.8345,-3.8625,-3.8676,-3.8422,-3.8033,-3.7524,-3.6896,-3.6626,-3.6312,-3.5908,-3.5639,-3.5504,-3.5504,-3.5504,-3.5504,-3.5504,-3.5504,-3.5504,-3.5504,-3.5504,-3.5504,-3.5504,-3.5782,-3.5926,-3.5943,-3.6722,-3.7054,-3.7084,-3.7573,-3.7793,-3.7793,-3.7793,-3.795,-3.8246,-3.8718,-3.9394,-4.0096,-4.0096,-4.0096,-4.0096,0.0,0.0,0.0,0.0,0.0,0.0,0.0,0.0,0.0,0.0,0.0,0.0,0.0,0.0,0.0,0.0,0.0,0.0,-3.2841,-3.3917,-3.4713,-3.516,-3.5385,-3.5504,-3.5504,-3.5504,-3.5504,-3.5504,-3.5953,-3.6387,-3.6791,-3.721,-3.7644,-3.8033,-3.7823,-3.7479,-3.7135,-3.7793,-3.7943,-3.7808,-3.8721,-3.8023,0.0,0.0,0.0,0.0,0.0,0.0,0.0,0.0,-3.1135,-3.1069,-3.1143,-3.126,-3.1461,-3.1838,-3.1813,-3.1738,-3.2114,-3.234,-3.2441,-3.2252,-3.1926,-3.1951,-3.3106,-3.2943,-3.2754,-3.3483,-3.3194,-3.2983,-3.353,-3.4078,-3.4622,-3.5087,-3.5955,-3.6777,-3.7399,-3.7579,-3.7658,-3.7774,-3.7389,-3.6866,-3.6237,-3.6178,-3.5983,-3.5534,-3.5504,-3.5504,-3.5504,-3.5504,-3.5504,-3.5504,-3.5504,-3.5504,-3.5504,-3.5504,-3.5504,-3.5504,-3.5504,-3.5504,-3.5537,-3.6023,-3.6244,-3.6275,-3.6814,-3.7055,-3.7055,-3.7055,-3.7205,-3.7515,-3.8274,-3.8897,-3.9358,-3.9358,-3.9532,-3.9731,0.0,0.0,0.0,0.0,0.0,0.0,0.0,0.0,-3.0485,-3.101,-3.1176,0.0,0.0,0.0,0.0,0.0,0.0,0.0,-3.2512,-3.3724,-3.4503,-3.4503,-3.513,-3.5489,-3.5504,-3.5519,-3.5519,-3.5519,-3.5519,-3.6163,-3.7404,-3.7419,-3.8123,-3.9328,-3.8691,-3.8377,-3.8332,-3.7689,-3.7778,-3.8377,-3.8377,-3.7988,-3.7404,0.0,0.0,0.0,0.0,0.0,0.0,0.0,-3.1549,-3.1821,-3.0899,-3.0972,-3.1386,-3.1386,-3.1763,-3.2202,-3.2202,-3.2616,-3.2918,-3.234,-3.2202,-3.2202,-3.2202,-3.1788,-3.1712,-3.2885,-3.2616,-3.2701,-3.4352,-3.3309,-3.3036,-3.5731,-3.4834,-3.4482,-3.6488,-3.6324,-3.6087,-3.6451,-3.6477,-3.6222,-3.5564,-3.5504,-3.5504,-3.5504,-3.5504,-3.5504,-3.5504,-3.5504,-3.5504,-3.5504,-3.5504,-3.5504,-3.5504,-3.5504,-3.5504,-3.5504,-3.5504,-3.5504,-3.5504,-3.5504,-3.5504,-3.5504,-3.5504,-3.5504,-3.5504,-3.5504,-3.5911,-3.6661,-3.7485,-3.7777,-3.7793,-3.7793,-3.8246,-3.8881,0.0,0.0,0.0,0.0,0.0,0.0,0.0,0.0,-3.1191,-3.1353,-3.1797,0.0,0.0,0.0,0.0,0.0,0.0,0.0,-3.2512,-3.2886,-3.3499,-3.4474,-3.4698,-3.5011,-3.5489,-3.5953,-3.6193,-3.6193,-3.6193,-3.6611,-3.7419,-3.7883,-3.8063,-3.8018,-3.8272,-3.7883,-3.7075,-3.73,-3.727,-3.709,-3.7524,-3.733,-3.6761,0.0,0.0,0.0,0.0,0.0,0.0,0.0,0.0,0.0,-3.0773,-3.0721,-3.0846,-3.0846,-3.0959,-3.1173,-3.1537,-3.1486,-3.1386,-3.1587,-3.1637,-3.1637,-3.1637,-3.1813,-3.2177,-3.2918,-3.2616,-3.2336,-3.2864,-3.2237,-3.1921,-3.2688,-3.3053,-3.3461,-3.4057,-3.4228,-3.4583,-3.5369,-3.5015,-3.493,-3.5454,-3.5504,-3.5504,-3.5504,-3.5504,-3.5504,-3.5504,-3.5504,-3.5504,-3.5504,-3.5504,-3.5504,-3.5504,-3.5504,-3.5504,-3.5504,-3.5504,-3.5504,-3.5504,-3.5504,-3.5504,-3.5504,-3.5504,-3.5504,-3.5504,-3.5504,-3.5911,-3.66,-3.6843,-3.7293,-3.7793,-3.7793,-3.7921,-3.8121,0.0,0.0,0.0,0.0,0.0,0.0,0.0,0.0,-3.1511,-3.1511,-3.1854,-3.2348,0.0,0.0,0.0,-3.3469,-3.2901,0.0,-3.2512,-3.2512,-3.2976,-3.4069,-3.4369,-3.4953,-3.5878,-3.6282,-3.6731,-3.724,-3.6731,-3.6806,-3.7404,-3.7569,-3.7554,-3.7419,-3.7569,-3.721,-3.6492,-3.6611,-3.6582,-3.6522,-3.6896,-3.6821,-3.6492,0.0,0.0,0.0,0.0,0.0,0.0,0.0,0.0,0.0,-3.0903,-3.062,-3.0658,-3.0871,-3.0783,-3.0733,-3.1248,-3.116,-3.1047,-3.1587,-3.1725,-3.1775,-3.2001,-3.2315,-3.2591,-3.2704,-3.2277,-3.1888,-3.1888,-3.1449,-3.1148,-3.1361,-3.1762,-3.2189,-3.2553,-3.2619,-3.3001,-3.3946,-3.3676,-3.3822,-3.4806,-3.4905,-3.5067,-3.5472,-3.5504,-3.5504,-3.5504,-3.5504,-3.5504,-3.5504,-3.5504,-3.5504,-3.5504,-3.5504,-3.5504,-3.5504,-3.5504,-3.5504,-3.5504,-3.5504,-3.5504,-3.5504,-3.5504,-3.5504,-3.5504,-3.5504,-3.575,-3.6165,-3.6165,-3.6477,-3.689,-3.689,-3.7086,-3.7338,0.0,0.0,-3.0567,-3.0507,0.0,0.0,0.0,-3.1511,-3.1511,-3.1511,-3.1511,-3.175,0.0,0.0,0.0,-3.335,-3.2856,-3.2452,-3.2392,-3.2392,-3.2751,-3.3469,-3.4188,-3.5207,-3.6462,-3.6537,-3.7135,-3.8302,-3.7075,-3.6806,-3.7404,-3.6776,-3.6746,-3.7225,-3.6716,-3.6447,-3.6357,-3.5759,-3.5848,-3.6402,-3.6402,-3.6402,-3.6402,-3.6402,0.0,0.0,0.0,0.0,0.0,0.0,0.0,0.0,-3.1318,-3.0725,-3.0771,-3.1198,-3.0984,-3.0733,-3.1248,-3.1323,-3.1386,-3.1989,-3.2177,-3.2353,-3.288,-3.3006,-3.2855,-3.2328,-3.1738,-3.1323,-3.1323,-3.0896,-3.0696,-3.1173,-3.0846,-3.0823,-3.1679,-3.1373,-3.1426,-3.2357,-3.2464,-3.2855,-3.3774,-3.3959,-3.4394,-3.5279,-3.5439,-3.5504,-3.5504,-3.5504,-3.5504,-3.5504,-3.5504,-3.5504,-3.5504,-3.5504,-3.5504,-3.5504,-3.5504,-3.5504,-3.5504,-3.5504,-3.5504,-3.5504,-3.5504,-3.5504,-3.5504,-3.5504,-3.5504,-3.5504,-3.5504,-3.5504,-3.5504,-3.5504,-3.5911,-3.6492,0.0,0.0,-3.1122,-3.0597,0.0,0.0,-3.1511,-3.1511,-3.1511,-3.1511,-3.1511,-3.175,-3.2437,-3.2512,0.0,-3.2706,-3.2572,-3.2273,-3.175,-3.172,-3.2243,-3.344,-3.4651,-3.5669,-3.6477,-3.6956,-3.7345,-3.7629,-3.6866,-3.6806,-3.7404,-3.6776,-3.6282,-3.5938,-3.6312,-3.6207,-3.5714,-3.5564,-3.5594,-3.5714,-3.5714,-3.5714,-3.5714,-3.5714,-3.5624,0.0,0.0,0.0,0.0,0.0,0.0,0.0,-3.2362,-3.1562,-3.1173,-3.0871,-3.0708,-3.0733,-3.1248,-3.0783,-3.0369,-3.1323,-3.1888,-3.224,-3.2365,-3.2403,-3.2365,-3.224,-3.1449,-3.0783,-3.0783,-3.0331,-3.0005,-3.0118,-3.0043,-3.0033,-3.0253,-3.0177,-3.0457,-3.1389,-3.1499,-3.1852,-3.282,-3.3567,-3.4095,-3.4312,-3.5052,-3.5504,-3.5504,-3.5504,-3.5504,-3.5504,-3.5504,-3.5504,-3.5504,-3.5504,-3.5504,-3.5504,-3.5504,-3.5504,-3.5504,-3.5504,-3.5504,-3.5504,-3.5504,-3.5504,-3.5504,-3.5504,-3.5504,-3.5504,-3.5504,-3.5504,-3.5504,-3.5504,-3.5619,-3.5718,0.0,0.0,0.0,0.0,0.0,0.0,0.0,0.0,-3.2721,-3.2049,-3.1974,-3.2108,-3.2452,-3.2512,0.0,0.0,-3.2512,-3.2333,-3.1989,-3.1974,-3.2587,-3.3903,-3.4951,-3.5804,-3.6477,-3.6806,-3.7105,-3.7404,-3.6791,-3.6656,-3.6956,-3.6641,-3.6297,-3.5983,-3.6327,-3.6297,-3.5953,-3.5639,-3.5504,-3.5504,-3.5504,-3.5504,-3.5504,-3.5504,-3.5504,-3.5504,-3.5504,0.0,0.0,0.0,0.0,0.0,0.0,0.0,-3.1586,-3.1145,-3.0809,-3.067,-3.0947,-3.0608,-3.0319,-3.0884,-3.1424,-3.1813,-3.1813,-3.1625,-3.1449,-3.1449,-3.1009,-3.0532,-3.0269,-2.9993,-2.9792,-2.9792,-2.9792,-2.9792,-2.9792,-2.9792,-2.9972,-3.0482,-3.052,-3.0908,-3.1852,-3.2393,-3.3031,-3.391,-3.4476,-3.4986,-3.5472,-3.5504,-3.5504,-3.5504,-3.5504,-3.5504,-3.5504,-3.5504,-3.5504,-3.5504,-3.5504,-3.5504,-3.5504,-3.5504,-3.5504,-3.5504,-3.5504,-3.5504,-3.5504,-3.5504,-3.5504,-3.5504,-3.5504,-3.5504,-3.5504,-3.5504,-3.5504,-3.5504,0.0,0.0,0.0,0.0,0.0,0.0,0.0,0.0,0.0,-3.2677,-3.2512,-3.2512,-3.2512,-3.2392,-3.2318,0.0,0.0,0.0,-3.2318,-3.2527,-3.317,-3.4294,-3.507,-3.5759,-3.6312,-3.6432,-3.6686,-3.7075,-3.6686,-3.6492,-3.6492,-3.6492,-3.6552,-3.6641,-3.6537,-3.6492,-3.6447,-3.5789,-3.5504,-3.5504,-3.5504,-3.5504,-3.5504,-3.5504,-3.5504,-3.5504,-3.5504,-3.5579,-3.5571,-3.4704,0.0,0.0,0.0,0.0,-3.1913,-3.142,-3.0884,-3.047,-3.047,-3.047,-3.0495,-3.0595,-3.0997,-3.1361,-3.1273,-3.0922,-3.0583,-3.0495,-3.047,-3.0331,-2.988,-2.9792,-2.9792,-2.9792,-2.9792,-2.9792,-2.9792,-2.9792,-2.9792,-2.9792,-2.9792,-3.0101,-3.0871,-3.1106,-3.1852,-3.338,-3.3808,-3.4361,-3.5213,-3.5407,-3.5504,-3.5504,-3.5504,-3.5504,-3.5504,-3.5504,-3.5504,-3.5504,-3.5504,-3.5504,-3.5504,-3.5504,-3.5504,-3.5504,-3.5504,-3.5504,-3.5504,-3.5504,-3.5504,-3.5504,-3.5504,-3.5504,-3.5504,-3.5504,-3.5504,-3.5504,0.0,0.0,0.0,0.0,0.0,0.0,0.0,0.0,0.0,0.0,-3.2512,-3.2512,-3.2512,-3.1974,-3.163,-3.163,-3.163,-3.163,-3.163,0.0,0.0,-3.3619,-3.4831,-3.5549,-3.5639,-3.6193,-3.6252,-3.5759,-3.6252,-3.6492,-3.6492,-3.6492,-3.6776,-3.727,-3.6731,-3.6492,-3.6447,-3.5789,-3.5504,-3.5504,-3.5504,-3.5504,-3.5504,-3.5504,-3.5504,-3.5504,-3.5504,-3.5863,-3.6357,-3.6209,-3.5981,0.0,0.0,0.0,-3.1834,-3.0949,-3.0331,-2.9905,-2.9905,-2.9905,-3.0018,-3.0495,-3.0997,-3.1273,-3.0821,-3.067,-3.0482,-2.9993,-2.9905,-2.988,-2.9804,-2.9792,-2.9792,-2.9792,-2.9792,-2.9792,-2.9792,-2.9792,-2.9792,-2.9792,-2.9792,-2.9869,-2.996,-3.0733,-3.1278,-3.1573,-3.3066,-3.4061,-3.4211,-3.5019,-3.5504,-3.5504,-3.5504,-3.5504,-3.5504,-3.5504,-3.5504,-3.5504,-3.5504,-3.5504,-3.5504,-3.5504,-3.5504,-3.5504,-3.5504,-3.5504,-3.5504,-3.5504,-3.5504,-3.5504,-3.5504,-3.5504,-3.5504,-3.5504,-3.5504,-3.5504,0.0,0.0,0.0,0.0,0.0,0.0,0.0,0.0,0.0,0.0,0.0,-3.3066,-3.3066,-3.2452,-3.1914,-3.154,-3.1511,-3.166,-3.2034,-3.2617,-3.3275,-3.4039,-3.4622,-3.4936,-3.4936,-3.5594,-3.5609,-3.4936,-3.5609,-3.6297,-3.7,-3.7,-3.7345,-3.7943,-3.7674,-3.7345,-3.6956,-3.6327,-3.5833,-3.5504,-3.5504,-3.5729,-3.6013,-3.5639,-3.5729,-3.6013,-3.5639,-3.5684,-3.5938,-3.5938,-3.5837,-3.5463,-3.4204,0.0,0.0,0.0,-3.0624,-3.0256,-3.0256,-2.9792,-2.944,-3.0018,-3.0331,-3.0432,-3.0206,-3.0156,-3.008,-2.9842,-2.9792,-2.9792,-2.9792,-2.9792,-2.9792,-2.9792,-2.9792,-2.9792,-2.9792,-2.9792,-2.9792,-2.9792,-2.9792,-2.9792,-2.9792,-3.0177,-3.062,-3.118,-3.196,-3.2664,-3.3206,-3.4143,-3.4658,-3.4658,-3.5213,-3.5504,-3.5504,-3.5504,-3.5504,-3.5504,-3.5504,-3.5504,-3.5504,-3.5504,-3.5504,-3.5504,-3.5504,-3.5504,-3.5504,-3.5504,-3.5504,-3.5504,-3.5504,-3.5504,-3.5504,-3.5504,-3.5504,-3.5504,0.0,0.0,0.0,0.0,0.0,0.0,0.0,0.0,0.0,0.0,0.0,-3.3499,-3.3499,0.0,0.0,0.0,-3.1511,-3.1705,-3.2198,-3.2422,-3.2961,-3.3933,-3.4324,-3.4429,-3.4264,-3.4891,-3.4996,-3.4503,-3.4996,-3.5983,-3.7404,-3.7404,-3.7853,-3.8646,-3.8467,-3.8018,-3.736,-3.6746,-3.6207,-3.5744,-3.5744,-3.6043,-3.6447,-3.6118,-3.6297,-3.6626,-3.5983,-3.5744,-3.5729,-3.5564,-3.5504,-3.5311,-3.4312,-3.3345,0.0,0.0,0.0,-3.0218,-3.0369,-2.9792,-2.9289,-2.9867,-2.9993,-2.9993,-2.9993,-2.9892,-2.9792,-2.9792,-2.9792,-2.9792,-2.9792,-2.9792,-2.9792,-2.9792,-2.9792,-2.9792,-2.9792,-2.9792,-2.9792,-2.9792,-2.9792,-2.9792,-2.9792,-2.9792,-3.0113,-3.0796,-3.1068,-3.1499,-3.2213,-3.3136,-3.3636,-3.3636,-3.4591,-3.5133,-3.5133,-3.5359,-3.5504,-3.5504,-3.5504,-3.5504,-3.5504,-3.5504,-3.5504,-3.5504,-3.5504,-3.5504,-3.5504,-3.5504,-3.5504,-3.5504,-3.5504,-3.5504,-3.5504,-3.5504,-3.5504,-3.5504,0.0,0.0,0.0,0.0,0.0,0.0,0.0,0.0,0.0,0.0,0.0,-3.3499,-3.3499,-3.2901,-3.2213,-3.157,-3.1511,-3.1511,-3.1555,-3.2138,0.0,0.0,-3.3814,0.0,-3.3559,-3.4219,-3.4533,-3.4503,-3.4533,-3.5519,-3.7404,-3.7404,-3.8108,-3.9298,-3.8676,-3.8018,-3.736,-3.6746,-3.6462,-3.6432,-3.6432,-3.6462,-3.6552,-3.7105,-3.733,-3.7285,-3.6656,-3.6432,-3.6342,-3.5714,-3.5504,-3.5311,-3.4312,-3.3345,-3.2429,0.0,0.0,0.0,-2.9691,-2.9792,-2.988,-3.0432,-3.057,-3.057,-3.057,-3.0168,-2.9792,-2.9792,-2.9792,-2.9792,-2.9792,-2.9792,-2.9792,-2.9792,-2.9792,-2.9792,-2.9792,-2.9792,-2.9792,-2.9792,-2.9792,-2.9792,-2.9792,-2.9792,-2.983,-2.9869,-3.0696,-3.1217,-3.1278,-3.2177,-3.2664,-3.2664,-3.3602,-3.4061,-3.4061,-3.5019,-3.5504,-3.5504,-3.5504,-3.5504,-3.5504,-3.5504,-3.5504,-3.5504,-3.5504,-3.5504,-3.5504,-3.5504,-3.5504,-3.5504,-3.5504,-3.5504,-3.5504,-3.5504,-3.5504,-3.5504,0.0,0.0,0.0,0.0,0.0,0.0,0.0,0.0,0.0,0.0,0.0,0.0,0.0,-3.3529,-3.2886,-3.2183,-3.175,-3.1511,-3.1511,-3.172,0.0,0.0,-3.3589,-3.3933,-3.4159,-3.4786,-3.4921,-3.4503,-3.4921,-3.5714,-3.6821,-3.7225,-3.7674,-3.8138,-3.8317,-3.8257,-3.8003,-3.7345,-3.7075,-3.7075,-3.7075,-3.733,-3.7644,-3.7045,-3.706,-3.727,-3.6222,-3.5863,-3.5818,-3.5579,-3.5504,-3.535,-3.4581,-3.3274,-3.1781,-3.0212,-2.9074,-2.8599,-2.9541,-2.9528,-2.9377,-2.9942,-2.9751,-2.9363,-2.9052,-2.85,-2.7982,-2.7748,-2.7678,-2.7879,-2.8557,-2.9326,-2.9792,-2.9792,-2.9792,-2.9792,-2.9792,-2.9792,-2.9792,-2.9792,-2.9792,-2.9792,-2.9792,-2.9792,-2.9792,-2.9792,-3.0101,-3.0317,-3.0317,-3.118,-3.1997,-3.2558,-3.3518,-3.4312,-3.4953,-3.5326,-3.5504,-3.5504,-3.5504,-3.5504,-3.5504,-3.5504,-3.5504,-3.5504,-3.5504,-3.5504,-3.5504,-3.5504,-3.5504,-3.5504,-3.5504,-3.5504,-3.5504,-3.5504,-3.5504,-3.5504,0.0,0.0,0.0,-3.6327,0.0,-3.5609,-3.4921,-3.4262,-3.3978,-3.4444,0.0,0.0,0.0,0.0,-3.3559,-3.2901,-3.2437,-3.2168,-3.2168,-3.2168,0.0,0.0,-3.3709,-3.3918,-3.4174,-3.4592,-3.4711,-3.4503,-3.4711,-3.54,-3.6492,-3.6911,-3.721,-3.7419,-3.7644,-3.7988,-3.8362,-3.7913,-3.7749,-3.7749,-3.7749,-3.8003,-3.8317,-3.7704,-3.7584,-3.7599,-3.6522,-3.6148,-3.6118,-3.5908,-3.5833,-3.5714,-3.504,-3.3496,-3.1542,-2.9613,-2.8928,-2.8929,-2.9366,-2.9503,-2.959,-3.0193,-2.9875,-2.9359,-2.9246,-2.8578,-2.7912,-2.7667,-2.7597,-2.7839,-2.8518,-2.9275,-2.9792,-2.9792,-2.9792,-2.9792,-2.9792,-2.9792,-2.9792,-2.9792,-2.9792,-2.9792,-2.9792,-2.9792,-2.9792,-2.9792,-2.9792,-2.9792,-2.9792,-3.0381,-3.1291,-3.2558,-3.3206,-3.4143,-3.5504,-3.5504,-3.5504,-3.5504,-3.5504,-3.5504,-3.5504,-3.5504,-3.5504,-3.5504,-3.5504,-3.5504,-3.5504,-3.5504,-3.5504,-3.5504,-3.5504,-3.5504,-3.5504,-3.5504,-3.5504,-3.5504,-3.7539,-3.7943,-3.8182,-3.7524,-3.6911,-3.6297,-3.5639,-3.4951,-3.4548,-3.4563,0.0,0.0,0.0,0.0,0.0,-3.3589,-3.3529,-3.3514,-3.3499,-3.3499,-3.3499,-3.3529,-3.4159,-3.4219,-3.3559,-3.3559,-3.3873,-3.4533,-3.3873,-3.4547,-3.6462,-3.6477,-3.6806,-3.736,-3.6776,-3.7195,-3.8362,-3.8347,-3.8362,-3.8392,-3.8392,-3.8392,-3.8467,-3.911,-3.8945,-3.8272,-3.7599,-3.736,-3.7285,-3.6671,-3.6462,-3.6342,-3.5621,-3.388,-3.1738,-2.9947,-2.9789,-3.0009,0.0,0.0,0.0,-3.1223,-3.0931,-3.0693,-3.1182,-3.0453,-2.9714,-2.9714,-2.9689,-2.9689,-2.974,-2.9753,-2.9753,-2.9792,-2.9792,-2.9792,-2.9792,-2.9792,-2.9792,-2.9792,-2.9792,-2.9792,-2.9792,-2.9792,-2.9792,-2.9792,-2.9792,-2.9792,-2.9792,-2.983,-3.0671,-3.25,-3.2593,-3.3547,-3.5439,-3.5504,-3.5504,-3.5504,-3.5504,-3.5504,-3.5504,-3.5504,-3.5504,-3.5504,-3.5504,-3.5504,-3.5504,-3.5504,-3.5504,-3.5504,-3.5504,-3.5504,-3.5504,-3.5504,-3.5504,-3.5504,-3.7449,-3.7943,-3.8182,-3.7524,-3.727,-3.6941,-3.6312,-3.5654,-3.54,0.0,0.0,0.0,-3.5878,-3.5504,-3.4951,-3.4294,-3.4234,-3.4039,-3.3529,-3.3499,-3.3709,-3.4219,-3.4414,-3.4653,-3.4936,-3.4951,-3.504,-3.522,-3.504,-3.5235,-3.5789,-3.6267,-3.6582,-3.6746,-3.703,-3.7345,-3.7659,-3.721,-3.7554,-3.8392,-3.8392,-3.8392,-3.8362,-3.8078,-3.7853,-3.7539,-3.6432,-3.6342,-3.6641,-3.5998,-3.5774,-3.5466,-3.3683,-3.2669,-3.1861,-3.0187,-2.9985,-3.0276,-2.9936,0.0,0.0,0.0,0.0,0.0,-2.908,-2.8108,-2.729,-2.7383,-2.7082,-2.713,-2.8366,-2.8557,-2.8858,-2.9663,-2.9792,-2.9792,-2.9792,-2.9792,-2.9792,-2.9792,-2.9792,-2.9792,-2.9792,-2.9792,-2.9792,-2.9792,-2.9792,-2.9792,-2.9792,-3.0457,-3.1044,-3.1573,-3.289,-3.3891,-3.4394,-3.5133,-3.5504,-3.5504,-3.5504,-3.5504,-3.5504,-3.5504,-3.5504,-3.5504,-3.5504,-3.5504,-3.5504,-3.5504,-3.5504,-3.5504,-3.5504,-3.5504,-3.5504,-3.5504,-3.5504,-3.5504,-3.7764,-3.8362,-3.8691,-3.8317,-3.8003,-3.7704,-3.7345,-3.6716,-3.6432,0.0,0.0,0.0,-3.6821,-3.6522,-3.6148,-3.5729,-3.5459,-3.516,-3.4771,-3.4487,-3.4502,-3.4891,-3.4906,-3.51,-3.5489,-3.522,-3.522,-3.5504,-3.522,-3.522,-3.5519,-3.5893,-3.6073,-3.6088,-3.6447,-3.6611,-3.6582,-3.6222,-3.6821,-3.8003,-3.8287,-3.8227,-3.7973,-3.7853,-3.7494,-3.6926,-3.6178,-3.6163,-3.6432,-3.6043,-3.5729,-3.5257,-3.3989,-3.3196,-3.248,-3.1168,-3.1146,-3.1332,-3.0516,-3.0342,-3.033,-3.0185,0.0,0.0,-2.9159,-2.8215,-2.7418,-2.7509,-2.7427,-2.7561,-2.8285,-2.8831,-2.9285,-2.9752,-2.9792,-2.9792,-2.9792,-2.9792,-2.988,-3.0105,-3.0131,-3.0131,-3.0131,-3.0131,-3.0043,-2.9817,-2.9792,-2.9792,-2.9792,-3.0317,-3.0796,-3.118,-3.2629,-3.3602,-3.3993,-3.4986,-3.5504,-3.5504,-3.5504,-3.5504,-3.5504,-3.5504,-3.5504,-3.5504,-3.5504,-3.5504,-3.5504,-3.5504,-3.5504,-3.5504,-3.5504,-3.5504,-3.5504,-3.5504,-3.5504,-3.5504,0.0,-3.8945,-3.9388,-3.9388,-3.8916,-3.8482,-3.8407,-3.7898,-3.7524,0.0,-3.7524,-3.7539,-3.7614,-3.7569,-3.7524,-3.7524,-3.7015,-3.6641,-3.6492,-3.5938,-3.5579,-3.5504,-3.5504,-3.5504,-3.5504,-3.4906,-3.4891,-3.5504,-3.4891,-3.4906,-3.5504,-3.5504,-3.5504,-3.5504,-3.5504,-3.5504,-3.5504,-3.5504,-3.6163,-3.7255,-3.7913,-3.7778,-3.727,-3.7928,-3.7479,-3.6477,-3.6402,-3.6432,-3.6477,-3.6402,-3.6028,-3.5594,-3.5444,-3.4666,-3.3645,-3.2643,-3.2757,-3.2839,-3.1148,-3.1,-3.1237,-3.0788,-3.03,0.0,-3.0407,-2.9704,-2.8913,-2.8976,-2.939,-2.9566,-2.9076,-2.9866,-3.0432,-2.988,-2.9842,-2.9867,-2.9804,-2.9792,-2.9993,-3.0557,-3.062,-3.0633,-3.0696,-3.0645,-3.0407,-2.9917,-2.9829,-2.9792,-2.9792,-2.9792,-3.0177,-3.1007,-3.196,-3.2855,-3.3671,-3.4691,-3.5213,-3.5326,-3.5326,-3.5392,-3.5504,-3.5504,-3.5504,-3.5504,-3.5504,-3.5504,-3.5504,-3.5504,-3.5504,-3.5504,-3.5504,-3.5504,-3.5504,-3.5504,-3.5504,-3.5504,-3.8362,-3.8945,-3.9388,-3.9388,-3.9305,-3.9035,-3.8467,-3.8287,-3.8197,-3.8197,-3.8197,-3.8407,-3.894,-3.8527,-3.8197,-3.8197,-3.8093,-3.7584,-3.6552,-3.6372,-3.6058,-3.5534,-3.5504,-3.5504,-3.5504,-3.537,-3.537,-3.5504,-3.537,-3.537,-3.5504,-3.5504,-3.5504,-3.5504,-3.5504,-3.5504,-3.5504,-3.5504,-3.5654,-3.5938,-3.6596,-3.6462,-3.5953,-3.6611,-3.6701,-3.6417,-3.5893,-3.6028,-3.6402,-3.5878,-3.5968,-3.6103,-3.5058,-3.5267,-3.5547,-3.3761,-3.3513,-3.3638,-3.2814,-3.2444,-3.2132,-3.1288,-3.1024,0.0,-3.0099,-2.9428,-2.9026,-2.9528,-2.934,-2.9202,-2.9566,-3.0168,-3.0432,-2.988,-3.0168,-3.0306,-2.9854,-2.9792,-2.9993,-3.0557,-3.062,-3.0783,-3.1198,-3.0859,-3.057,-3.0457,-3.0043,-2.9792,-2.9792,-2.9792,-2.9895,-3.0075,-3.097,-3.1573,-3.1742,-3.2678,-3.3533,-3.4279,-3.4279,-3.4725,-3.5504,-3.5504,-3.5504,-3.5504,-3.5504,-3.5504,-3.5504,-3.5504,-3.5504,-3.5504,-3.5504,-3.5504,-3.5504,-3.5504,-3.5504,-3.5504,-3.8841,-3.9185,-3.9388,-3.9388,-3.9388,-3.9305,-3.896,-3.8901,-3.8901,-3.8901,-3.8901,-3.9035,-3.9343,-3.911,-3.8901,-3.8901,-3.8586,-3.8123,-3.7479,-3.6836,-3.6342,-3.6013,-3.5684,-3.5504,-3.5504,-3.5504,-3.5504,-3.5504,-3.5504,-3.5504,-3.5504,-3.5504,-3.5684,-3.5983,-3.5654,-3.5684,-3.5968,-3.5639,-3.531,-3.5085,-3.6088,-3.6088,-3.5579,-3.6237,-3.6282,-3.5953,-3.5624,-3.5714,-3.5953,-3.5609,-3.5489,-3.5507,-3.5507,-3.5714,-3.5863,-3.5175,-3.5136,-3.4995,-3.3854,-3.3443,-3.3066,-3.2141,-3.1888,0.0,0.0,-3.0057,-2.9587,-2.9378,-2.9365,-2.9365,-2.9365,-3.0055,-3.052,-3.0244,-3.0206,-3.0105,-2.9829,-2.9792,-2.9993,-3.0557,-3.062,-3.0821,-3.1336,-3.0922,-3.0507,-3.0231,-2.9942,-2.9792,-2.9792,-2.9792,-2.9792,-2.9792,-3.0733,-3.1217,-3.1217,-3.2141,-3.2855,-3.331,-3.3774,-3.4027,-3.409,-3.4543,-3.4758,-3.4758,-3.4758,-3.5019,-3.5504,-3.5504,-3.5504,-3.5504,-3.5504,-3.5504,-3.5504,-3.5504,-3.5504,-3.5504,-3.9269,-3.9388,-3.9388,-3.9388,-3.9388,-3.9388,-3.9388,-3.9388,-3.9388,-3.9388,-3.9388,-3.9328,-3.923,-3.923,-3.9275,-3.9373,-3.8796,-3.8437,-3.8571,-3.7494,-3.6791,-3.6671,-3.6148,-3.5878,-3.5878,-3.5878,-3.5878,-3.5878,-3.5744,-3.5684,-3.5684,-3.5564,-3.5863,-3.6462,-3.5923,-3.6058,-3.6611,-3.5833,-3.5325,-3.5147,-3.5953,-3.5908,-3.5385,-3.6043,-3.5968,-3.5504,-3.5504,-3.5594,-3.5669,-3.5549,-3.522,-3.5043,-3.5833,-3.5908,-3.5744,-3.6013,-3.6282,-3.6194,-3.4685,-3.4279,-3.4075,-3.3101,-3.289,-3.2629,0.0,0.0,0.0,-2.9514,-2.9606,-2.9641,-2.9176,-2.993,-3.0583,-3.047,-3.0168,-2.9942,-2.9942,-2.9942,-3.008,-3.0419,-3.0557,-3.0821,-3.1336,-3.0922,-3.0382,-2.9829,-2.9792,-2.9792,-2.9792,-2.9792,-2.9792,-2.9792,-3.052,-3.0932,-3.0932,-3.1683,-3.2141,-3.2357,-3.3101,-3.3171,-3.2629,-3.338,-3.3668,-3.3568,-3.3682,-3.4119,-3.4791,-3.4909,-3.5067,-3.5246,-3.5424,-3.5504,-3.5504,-3.5504,-3.5504,-3.5504,-3.9199,-3.9388,-3.9388,-3.9388,-3.9388,-3.9388,-3.9388,-3.9388,-3.9388,-3.9388,-3.9388,-3.9185,-3.8571,-3.8497,-3.8751,-3.9364,-3.8796,-3.8646,-3.926,-3.8586,-3.7913,-3.733,-3.7225,-3.7195,-3.7195,-3.7195,-3.7195,-3.7195,-3.6641,-3.6372,-3.6357,-3.5774,-3.5863,-3.6492,-3.6417,-3.6731,-3.7225,-3.6013,-3.6118,-3.6985,-3.6013,-3.5205,-3.4698,-3.5355,-3.5564,-3.5504,-3.5504,-3.5878,-3.6297,-3.5699,-3.5833,-3.6073,-3.5058,-3.5507,-3.6148,-3.5058,-3.5582,-3.6342,-3.5538,-3.5326,-3.51,-3.4095,-3.3842,-3.3602,-3.2629,0.0,-3.1088,-3.0976,0.0,-2.9779,-2.9704,0.0,0.0,-2.9967,-3.0244,-3.052,-3.052,-3.052,-3.0369,-2.9942,-3.0319,-3.0821,-3.1336,-3.0922,-3.0382,-2.9829,-2.9792,-2.9792,-2.9792,-2.9792,-2.9792,-2.9792,-2.9895,-2.9972,-2.9972,-3.0075,-3.0533,-3.1352,-3.1462,-3.1888,-3.2593,-3.2713,-3.2493,-3.2076,-3.2548,-3.2535,-3.2261,-3.2737,-3.3429,-3.4245,-3.5166,-3.5504,-3.5504,-3.5504,-3.5504,-3.5504,-3.8256,-3.898,-3.9388,-3.9388,-3.9388,-3.9388,-3.9388,-3.9738,-3.9993,-3.9993,-3.9993,-4.0023,-4.0113,-3.9454,-3.926,-3.9933,-3.9379,-3.8931,-3.8826,-3.8556,-3.8093,-3.7434,-3.7404,-3.7404,-3.7404,-3.7404,-3.7404,-3.7404,-3.6791,-3.6492,-3.6477,-3.6207,-3.6417,-3.7015,-3.7015,-3.7165,-3.7345,-3.6462,-3.5938,-3.5699,-3.5564,-3.51,-3.4623,-3.5669,-3.5833,-3.5504,-3.5504,-3.5684,-3.5759,-3.4696,-3.4517,-3.4651,-3.4083,-3.4562,-3.5327,-3.5115,-3.5744,-3.6342,-3.5684,-3.5504,-3.5392,-3.4986,-3.4872,-3.461,-3.3636,-3.3101,-3.2522,-3.1426,0.0,0.0,0.0,0.0,0.0,0.0,-3.0193,-3.0143,-3.0143,-3.0407,-3.0645,-3.0708,-3.0922,-3.1148,-3.1373,-3.1198,-3.0846,-3.0306,-2.998,-2.9792,-2.9792,-2.9792,-2.9792,-2.9792,-2.9792,-2.9792,-2.9792,-2.9792,-2.9998,-3.0381,-3.0932,-3.1119,-3.0983,-3.1536,-3.1505,-3.098,-3.1236,-3.1346,-3.1396,-3.1889,-3.2361,-3.2851,-3.4148,-3.4986,-3.5504,-3.5504,-3.5504,-3.5504,-3.6802,-3.8032,-3.8943,-3.8943,-3.9177,-3.9388,-3.9388,-3.9828,-4.0187,-4.0382,-4.0247,-4.0382,-4.104,-3.9933,-3.9484,-4.0337,-3.9634,-3.9005,-3.8691,-3.8497,-3.8062,-3.7277,-3.7535,-3.761,-3.7493,-3.7804,-3.7958,-3.7958,-3.733,-3.7015,-3.7,-3.6656,-3.6821,-3.7404,-3.7404,-3.7509,-3.7629,-3.7,-3.6282,-3.5597,-3.5714,-3.5474,-3.5147,-3.5908,-3.5923,-3.5504,-3.5504,-3.5504,-3.5325,-3.4158,-3.3649,-3.3469,-3.3275,-3.3679,-3.4309,-3.4592,-3.528,-3.5804,-3.513,-3.5085,-3.522,-3.522,-3.537,-3.5326,-3.4576,-3.4211,-3.3679,-3.249,-3.2021,0.0,0.0,0.0,-3.0659,-3.061,0.0,-3.0018,-3.0018,-3.0482,-3.0859,-3.0947,-3.121,-3.1386,-3.1386,-3.1386,-3.1173,-3.0658,-3.0244,-2.9955,-2.9804,-2.9792,-2.9792,-2.9792,-2.9792,-2.9792,-2.9792,-2.9792,-2.9792,-2.9792,-3.0482,-3.0367,-2.9591,-3.0237,-3.0207,-2.9542,-2.9699,-2.9932,-3.0241,-3.0767,-3.1246,-3.174,-3.2814,-3.3822,-3.4773,-3.5294,-3.5504,-3.5504,-3.4787,-3.645,-3.7829,-3.7829,-3.8708,-3.9388,-3.9388,-3.9439,-3.9679,-4.0322,-3.9843,-3.9709,-4.0367,-3.923,-3.896,-4.0277,-3.9185,-3.8691,-3.9349,-3.8751,-3.7923,-3.6857,-3.7807,-3.8204,-3.7794,-3.8796,-3.9328,-3.9328,-3.8661,-3.8332,-3.8302,-3.7075,-3.6821,-3.7404,-3.7404,-3.7764,-3.8317,-3.7659,-3.7719,-3.8167,-3.6941,-3.6447,-3.6357,-3.5759,-3.5519,-3.5504,-3.5504,-3.5504,-3.54,-3.4713,-3.4054,-3.338,-3.2751,-3.2991,-3.341,-3.2796,-3.3529,-3.4429,-3.3739,-3.4054,-3.4533,-3.4533,-3.5011,-3.5504,-3.5472,-3.4691,-3.4166,-3.477,-3.4164,-3.3399,-3.2971,-3.2895,-3.2372,-3.0842,-3.0608,0.0,0.0,-3.1035,-3.0984,-2.9967,-3.0758,-3.1386,-3.1386,-3.1386,-3.1173,-3.0658,-3.0595,-3.0357,-2.9817,-2.9792,-2.9792,-2.9792,-2.9792,-2.9792,-2.9792,-2.9792,-2.9792,-2.9792,-2.983,-2.9529,-2.8913,-2.895,-2.8397,-2.744,-2.7932,-2.8195,-2.8208,-2.8761,-2.9879,-3.1214,-3.1278,-3.1852,-3.2925,-3.482,-3.5504,-3.5504,-3.3641,-3.4787,-3.5961,-3.6618,-3.7046,-3.7534,-3.8219,-3.871,-3.9501,-4.0875,-4.0846,-4.113,-4.2183,-4.0771,-4.0068,-4.0965,-3.9843,-3.8975,-3.8751,-3.8527,-3.7923,-3.6835,-3.7402,-3.7769,-3.7814,-3.7709,-3.7908,-3.8345,-3.6994,-3.6344,-3.6353,-3.6172,-3.6195,-3.6449,-3.7575,-3.7943,-3.7749,-3.7973,-3.7449,-3.6447,-3.6013,-3.6088,-3.6462,-3.6237,-3.5893,-3.5504,-3.5504,-3.5504,-3.5325,-3.4203,-3.3679,-3.3305,-3.2183,-3.2288,-3.2796,-3.2587,-3.314,-3.3784,0.0,-3.3978,-3.4623,-3.504,-3.5325,-3.5624,-3.6058,-3.5558,-3.4865,-3.4418,-3.4452,-3.4082,-3.2595,-3.271,-3.2568,-3.1309,-3.1135,-3.1009,0.0,-3.0771,-3.1148,-3.1876,-3.2277,-3.2546,-3.2546,-3.2152,-3.1863,-3.1687,-3.1336,-3.0896,-3.0369,-3.0331,-3.0168,-2.9804,-2.9792,-2.9792,-2.9792,-2.9792,-2.9792,-2.9792,-2.9402,-2.9076,-2.8875,-2.8512,-2.7984,-2.7329,-2.7482,-2.7557,-2.7607,-2.816,-2.8886,-2.9767,-3.0813,-3.1389,-3.1815,-3.3115,-3.3581,-3.3685,-3.3124,-3.367,-3.447,-3.548,-3.5974,-3.6448,-3.7137,-3.793,-3.8948,-4.0285,-4.0591,-4.1062,-4.1937,-4.0509,-3.9576,-3.9901,-3.9237,-3.8538,-3.7881,-3.7851,-3.7354,-3.6315,-3.6511,-3.6675,-3.671,-3.6612,-3.6803,-3.7214,-3.6164,-3.5606,-3.5631,-3.5456,-3.537,-3.5421,-3.649,-3.6734,-3.6378,-3.7237,-3.6833,-3.5651,-3.5553,-3.5893,-3.6462,-3.6237,-3.6013,-3.5818,-3.5594,-3.5355,-3.5011,-3.4143,-3.3529,-3.2991,-3.2123,-3.1989,-3.2138,-3.2138,-3.2437,-3.2796,-3.2796,-3.3275,0.0,-3.4337,-3.4622,-3.4966,-3.5657,-3.5444,-3.5088,-3.4926,-3.5409,-3.5224,-3.3227,-3.3572,-3.3555,-3.1681,-3.1549,-3.1499,0.0,-3.106,-3.1574,-3.2641,-3.2767,-3.2855,-3.3056,-3.2742,-3.2441,-3.2227,-3.1888,-3.1449,-3.0922,-3.0721,-3.0457,-3.0093,-2.9892,-2.9792,-2.9792,-2.9792,-2.9691,-2.9478,-2.9076,-2.8687,-2.8335,-2.7971,-2.7507,-2.7027,-2.7027,-2.7241,-2.7607,-2.7959,-2.8549,-2.9302,-3.0302,-3.0696,-3.0871,-3.2141,-3.2593,-3.2713,-3.3124,-3.3106,-3.3479,-3.4468,-3.5386,-3.6052,-3.6119,-3.6954,-3.7849,-3.8611,-3.9031,-3.9387,-3.9704,-3.8529,-3.7603,-3.7217,-3.7519,-3.7442,-3.681,-3.6739,-3.6292,-3.5319,-3.5264,-3.5056,-3.4692,-3.556,-3.6064,-3.6132,-3.6052,-3.6012,-3.6012,-3.4881,-3.4369,-3.4369,-3.4406,-3.4444,-3.4527,-3.5701,-3.6087,-3.5935,-3.564,-3.5935,-3.6462,-3.5804,-3.5953,-3.6402,-3.5744,-3.5085,-3.4548,-3.4518,-3.3619,-3.2557,-3.2497,-3.2034,-3.1511,-3.1511,-3.1511,-3.1511,-3.1511,-3.1989,-3.2497,-3.2557,-3.3036,-3.3664,-3.4354,-3.4474,-3.4818,-3.6073,-3.6866,-3.6718,-3.4729,-3.5339,-3.5073,-3.1985,-3.1854,-3.1951,-3.1461,-3.1788,-3.2127,-3.2202,-3.2164,-3.2378,-3.3061,-3.3056,-3.2817,-3.229,-3.2227,-3.1989,-3.1461,-3.0972,-3.0631,-3.062,-3.0105,-2.9817,-2.9792,-2.9792,-2.9503,-2.8888,-2.8863,-2.8323,-2.7281,-2.7256,-2.6989,-2.6499,-2.6499,-2.7115,-2.8109,-2.8109,-2.8775,-2.9792,-2.9792,-2.9792,-3.0011,-3.1792,-3.2464,-3.2464,-3.3124,-3.3407,-3.3771,-3.4051,-3.3623,-3.3658,-3.4899,-3.4942,-3.5338,-3.6825,-3.7451,-3.7983,-3.8555,-3.7858,-3.7306,-3.7218,-3.6849,-3.6535,-3.6367,-3.5924,-3.5432,-3.4861,-3.466,-3.4595,-3.4692,-3.4033,-3.4153,-3.5088,-3.3847,-3.3472,-3.3885,-3.3871,-3.3873,-3.3913,-3.4722,-3.5068,-3.511,-3.5894,-3.635,-3.651,-3.6012,-3.6334,-3.7105,-3.6477,-3.6342,-3.6402,-3.5744,-3.5385,-3.516,-3.4683,-3.3918,-3.3155,-3.2677,-3.2034,-3.1511,-3.1511,-3.1511,-3.1511,-3.1511,-3.1989,-3.2632,-3.3125,-3.3365,-3.3664,0.0,0.0,-3.3844,-3.4188,-3.519,-3.5589,-3.426,-3.45,-3.4342,-3.2686,-3.1631,-3.111,-3.1348,-3.0821,-3.0859,-3.2077,-3.1512,-3.1562,-3.2943,-3.2692,-3.2554,-3.283,-3.2453,-3.2152,-3.2001,-3.1876,-3.1436,-3.0645,-3.0482,-3.0206,-2.9792,-2.9792,-2.9503,-2.8888,-2.8511,-2.7959,-2.7304,-2.6889,-2.6625,-2.6499,-2.6499,-2.7115,-2.8109,-2.8109,-2.8775,-2.9792,-2.9792,-2.9792,-2.9869,-3.0355,-3.0533,-3.0608,-3.3432,-3.3884,-3.4336,-3.4575,-3.3853,-3.3536,-3.4229,-3.4256,-3.4459,-3.5154,-3.5945,-3.6368,-3.6293,-3.6198,-3.5912,-3.543,-3.548,-3.5547,-3.5547,-3.5223,-3.4955,-3.4692,-3.4124,-3.3842,-3.4024,-3.3062,-3.2995,-3.3995,-3.2815,-3.2503,-3.3099,-3.304,-3.3047,-3.3047,-3.3672,-3.394,-3.3993,-3.4794,-3.5227,-3.5461,-3.4969,-3.5175,0.0,-3.5042,-3.4795,-3.4752,-3.4356,-3.4773,-3.5444,-3.5055,-3.4487,-3.3814,-3.3155,-3.2497,-3.1869,-3.1585,-3.1511,-3.1511,-3.1511,-3.178,-3.2138,-3.2512,-3.2647,-3.2811,-3.3469,-3.3335,-3.3155,0.0,-3.4023,-3.4113,-3.28,-3.2836,-3.278,-3.198,-3.1333,-3.0972,-3.1047,-3.0532,-3.057,-3.1712,-3.1122,-3.126,-3.296,-3.2554,-3.2453,-3.3031,-3.278,-3.2591,-3.2591,-3.2114,-3.1574,-3.0972,-3.0495,-3.0105,-2.9792,-2.9792,-2.9377,-2.8561,-2.8247,-2.7695,-2.6952,-2.6637,-2.6499,-2.6499,-2.6499,-2.7115,-2.8109,-2.8109,-2.8775,-2.9792,-2.9792,-2.9792,-2.9792,-2.9792,-2.9792,-2.9869,-3.401,-3.4512,-3.5019,-3.542,-3.5219,-3.4839,-3.4211,-3.4461,-3.4483,-3.388,-3.4633,-3.4831,-3.391,-3.4235,-3.4108,-3.3197,-3.3953,-3.4511,-3.4511,-3.4511,-3.4511,-3.4511,-3.3598,-3.3124,-3.3124,-3.2441,-3.2428,-3.3124,-3.2428,-3.2441,-3.3111,-3.2554,-3.2328,-3.2328,-3.2328,-3.2328,-3.2357,-3.3168,-3.3631,-3.3767,-3.3352,-3.3358,-3.3545,-3.2864,-3.2593,-3.2593,-3.2593,-3.3754,-3.5311,-3.5311,-3.4944,-3.4399,-3.3709,-3.3036,-3.2377,-3.1705,-3.1511,-3.1511,-3.1511,-3.1511,-3.1511,-3.1511,-3.1511,-3.1645,-3.2228,-3.2363,-3.2512,-3.3125,-3.3069,-3.2528,-3.1104,-3.0986,-3.088,-3.035,-3.0783,-3.0972,-3.0369,-3.0532,-3.0809,-3.1035,-3.0733,0.0,-3.2516,-3.2315,-3.234,-3.2918,-3.2905,-3.2898,-3.2898,-3.1926,-3.1361,-3.1286,-3.0382,-2.9867,-2.9792,-2.9792,-2.9227,-2.8109,-2.8109,-2.7532,-2.6499,-2.6499,-2.6499,-2.6499,-2.6499,-2.7115,-2.8109,-2.8109,-2.8775,-2.9792,-2.9792,-2.9792,-2.9792,-2.9792,-2.9792,-2.9792,-3.4575,-3.5391,-3.5956,-3.5558,-3.6219,-3.6408,-3.537,-3.4911,-3.4477,-3.3964,-3.4061,-3.4091,-3.3888,-3.3571,-3.3313,-3.3124,-3.3283,-3.3398,-3.3398,-3.3398,-3.3398,-3.3398,-3.3197,-3.3124,-3.3124,-3.2064,-3.2039,-3.3124,-3.2039,-3.2064,-3.3124,-3.2968,-3.2918,-3.2918,-3.2918,-3.2918,-3.2935,-3.2613,-3.2993,-3.3701,-3.2654,-3.2803,-3.3545,-3.2864,-3.2593,-3.2593,-3.2593,-3.331,-3.4245,-3.4245,-3.4383,-3.4399,-3.3709,-3.3036,-3.2377,-3.1705,-3.1511,-3.1511,-3.1511,-3.1511,-3.1511,-3.1511,-3.1511,-3.1525,-3.1645,-3.1675,-3.1705,-3.1824,-3.1688,-3.1449,-3.1177,0.0,-2.9523,-2.8672,-2.9402,-2.9716,-2.8687,-3.0105,-3.0783,-2.9477,-2.9704,-3.0055,-3.0344,-3.1072,-3.1763,-3.2315,-3.1938,-3.1687,-3.1687,-3.1499,-3.1198,0.0,-3.057,-3.0256,0.0,0.0,-2.9227,-2.8109,-2.8109,-2.7532,-2.6499,-2.6499,-2.6499,-2.6499,-2.6499,-2.7115,-2.8109,-2.8109,-2.8775,-2.9792,-2.9792,-2.9792,-2.9792,-2.9792,-2.9792,-2.9792,-3.637,-3.6621,-3.6797,-3.6822,-3.7023,-3.701,-3.6483,-3.6169,-3.5491,-3.4085,-3.3897,-3.3796,-3.3508,-3.3483,-3.3382,-3.3106,-3.3124,-3.3124,-3.3124,-3.3124,-3.3124,-3.3124,-3.3124,-3.3124,-3.3124,-3.1964,-3.1951,-3.3124,-3.1951,-3.1964,-3.3124,-3.3124,-3.3124,-3.3124,-3.3124,-3.2918,-3.2604,-3.2328,-3.2165,-3.2092,-3.1511,-3.1409,-3.1589,-3.1275,-3.1169,-3.1169,-3.1169,-3.1756,-3.2629,-3.3101,-3.3388,-3.336,-3.2411,-3.1875,-3.1538,-3.1025,-3.0554,-3.0389,-3.1248,-3.119,-3.097,-3.1409,-3.1511,-3.1511,-3.1511,-3.119,-3.0866,-3.0866,-3.0085,-2.9256,-2.8833,-2.8754,0.0,-2.817,-2.9302,-3.003,-2.949,-3.0319,-3.0696,-2.9866,-2.9541,-2.9679,-3.0545,-3.0846,-3.1097,-3.1361,-3.165,-3.1687,-3.1399,-3.1135,-3.0871,0.0,0.0,0.0,-2.9792,0.0,-2.9365,-2.8499,-2.8499,-2.7959,-2.6927,-2.718,-2.719,-2.6939,-2.7228,-2.777,-2.8561,-2.885,-2.9302,-2.9792,-2.9792,-2.9792,-2.9792,-2.9792,-2.9792,-2.9792,-3.76,-3.74,-3.7287,-3.76,-3.74,-3.7149,-3.7023,-3.7111,-3.6521,-3.4663,-3.4324,-3.4035,-3.3483,-3.3709,-3.3671,-3.3174,-3.3124,-3.3124,-3.3124,-3.3124,-3.3124,-3.3124,-3.3124,-3.3124,-3.3124,-3.2089,-3.2001,-3.2893,-3.2001,-3.2014,-3.2893,-3.3061,-3.3048,-3.2893,-3.2893,-3.2579,-3.2026,-3.1926,-3.1386,-3.0608,-3.0482,-3.0181,-2.9792,-2.9792,-2.9792,-2.9792,-2.9792,-3.0279,-3.1007,-3.1756,-3.2285,-3.2414,-3.1302,-3.0894,-3.0724,-3.0307,-2.9634,-2.9286,-3.0614,-3.0524,-3.0178,-3.0807,-3.097,-3.097,-3.097,-3.0494,-3.0011,-3.0011,-2.878,-2.7451,-2.6658,-2.7203,0.0,-2.7908,-2.9239,-3.0218,-3.0093,-3.0482,-3.0658,-3.0294,-2.9427,-2.944,-3.0746,-3.0608,-3.0444,-3.0444,-3.1436,-3.175,-3.1085,-3.067,-3.0444,-3.0444,0.0,-2.9792,-2.9792,0.0,-2.9503,-2.8888,-2.8888,-2.8411,-2.7469,-2.7908,-2.7871,-2.7482,-2.7921,-2.8411,-2.8938,-2.9553,-2.9792,-2.9792,-2.9792,-2.9792,-2.9792,-2.9792,-2.9792,-2.9792,-3.6656,-3.6872,-3.7048,-3.6644,-3.6885,-3.7023,-3.6568,-3.6908,-3.6923,-3.6267,-3.5692,-3.5144,-3.4625,-3.4173,-3.3671,-3.3174,-3.3124,-3.3124,-3.3124,-3.3124,-3.3124,-3.3124,-3.3124,-3.3124,-3.3124,-3.2453,-3.219,-3.229,-3.219,-3.219,-3.2303,-3.283,-3.2805,-3.229,-3.229,-3.1989,0.0,-3.0972,-3.0708,-3.057,-3.0068,-2.9842,-2.9792,-2.9792,-2.9792,-2.9792,-2.9792,-2.9869,-2.9934,-3.0037,-3.1206,-3.2483,-3.175,-3.1206,-3.0673,-3.0043,-2.943,-2.9034,-2.9192,-2.9192,-2.9129,-2.9223,-2.9223,-2.9223,-2.9223,-2.9192,-2.9129,-2.9129,-2.8363,-2.7451,-2.6658,-2.6575,-2.6813,-2.7316,-2.8335,-2.8875,-2.8411,-3.0055,-3.0758,-2.9226,-2.895,-2.895,-2.9101,-2.9591,-2.9867,-2.9867,-3.0859,-3.1022,-2.9993,-2.9892,-2.9867,-2.9867,-2.9817,-2.9792,-2.9792,-2.9792,-2.9503,-2.8888,-2.8888,-2.8574,-2.8034,-2.8084,-2.8084,-2.8034,-2.8084,-2.8411,-2.8938,-2.9553,-2.9792,-2.9792,-2.9792,-2.9792,-2.9792,-2.9792,-2.9792,-2.9792,-3.7387,-3.7262,-3.7211,-3.7324,-3.6985,-3.6782,-3.6835,-3.6807,-3.6656,-3.6443,-3.6169,-3.5705,-3.4813,-3.4525,-3.4035,-3.3156,-3.3124,-3.3124,-3.3124,-3.3124,-3.3124,-3.3124,-3.3124,-3.3124,-3.3124,-3.2503,-3.239,-3.2729,-3.239,-3.239,-3.2742,-3.3011,-3.2767,-3.2202,-3.1863,-3.1424,-3.0909,-3.0708,-3.0419,-3.0105,-2.988,-2.9792,-2.9792,-2.9792,-2.9792,-2.9792,-2.9792,-2.9792,-2.9792,-2.9792,-3.0279,-3.0817,-3.0192,-2.9816,-2.966,-2.9579,-2.8802,-2.8183,-2.9217,-2.886,-2.833,-2.8876,-2.9002,-2.9002,-2.9002,-2.8588,-2.8214,-2.8214,-2.7571,-2.6871,-2.6555,-2.6763,-2.7065,-2.7291,-2.8499,-2.9377,-2.9151,-3.0432,-3.1035,-3.0016,-2.9654,-2.9578,-2.9905,-3.0156,-3.0419,-3.0733,-3.1449,-3.1549,-3.0796,-3.0746,-3.0608,-3.0294,0.0,-3.0131,-2.9792,-2.9792,-2.9679,-2.9453,-2.9453,-2.9151,-2.8612,-2.8963,-2.9114,-2.9114,-2.9114,-2.9239,-2.9465,-2.9691,-2.9792,-2.9792,-2.9792,-2.9792,-2.9792,-2.9792,-2.9792,-2.9792,-3.7525,-3.7211,-3.7061,-3.745,-3.6872,-3.6543,-3.6933,-3.6656,-3.6405,-3.6405,-3.6405,-3.599,-3.4839,-3.468,-3.4274,-3.3169,-3.3124,-3.3124,-3.3124,-3.3124,-3.3124,-3.3124,-3.3124,-3.3124,-3.3124,-3.2679,-3.2591,-3.283,-3.2591,-3.2503,-3.2579,-3.2579,-3.2277,-3.1725,-3.1336,-3.0871,-3.0369,-3.0369,-3.0143,-2.9792,-2.9792,-2.9792,-2.9792,-2.9792,-2.9792,-2.9792,-2.9792,-2.9792,-2.9792,-2.9792,-2.9792,-2.9729,-2.9315,-2.9026,-2.8962,-2.9179,-2.8426,-2.7792,-2.8982,-2.8456,-2.7732,-2.8338,-2.8368,-2.8279,-2.8279,-2.7802,-2.7351,-2.7351,-2.6905,-2.6499,-2.6499,-2.6813,-2.719,-2.7469,-2.8524,-2.9415,-2.9741,-3.0444,-3.0846,-3.0645,-2.998,-2.9829,-3.0545,-3.062,-3.0834,-3.1348,-3.2051,-3.2152,-3.1436,-3.1248,0.0,0.0,0.0,0.0,-2.9792,-2.9792,-2.9792,-2.9792,-2.9792,-2.9578,-2.9202,-2.9603,-2.9792,-2.9792,-2.9792,-2.9792,-2.9792,-2.9792,-2.9792,-2.9792,-2.9792,-2.9792,-2.9792,-2.9792,-2.9792,-2.9792,-3.643,-3.6417,-3.6417,-3.643,-3.6417,-3.6405,-3.6417,-3.6417,-3.6405,-3.6405,-3.6405,-3.599,-3.4839,-3.468,-3.4274,-3.3169,-3.3124,-3.3124,-3.3124,-3.3124,-3.3124,-3.3124,-3.3124,-3.3124,-3.3124,-3.3111,-3.2792,-3.2227,-3.2792,-3.2546,-3.1411,0.0,-3.1135,-3.0633,-3.062,-3.0319,-2.9804,-2.9804,-2.9804,-2.9792,-2.9792,-2.9792,-2.9792,-2.9792,-2.9792,-2.9792,-2.9792,-2.9792,-2.9792,-2.9792,-2.9792,-2.9792,-2.9779,-2.939,-2.8888,-2.8875,-2.8524,-2.8097,-2.8133,-2.7731,-2.7304,-2.7304,-2.6924,-2.6521,-2.6521,-2.6521,-2.6499,-2.6499,-2.6499,-2.6499,-2.6499,-2.6499,-2.6864,-2.7921,0.0,-2.8511,-2.9628,-2.9804,-3.0018,-3.0557,-2.9577,-2.9352,-3.0507,-3.062,-3.0834,-3.1348,-3.2428,-3.2579,-3.1449,0.0,0.0,-3.062,-3.0093,0.0,-2.9792,-2.9792,-2.9792,-2.9792,-2.9792,-2.9792,-2.9779,-2.9792,-2.9792,-2.9792,-2.9792,-2.9792,-2.9792,-2.9792,-2.9792,-2.9792,-2.9792,-2.9792,-2.9792,-2.9792,-2.9792,-2.9792,-3.6405,-3.6405,-3.6405,-3.6405,-3.6405,-3.6405,-3.6405,-3.6405,-3.6405,-3.6405,-3.6405,-3.6094,-3.532,-3.4906,-3.4424,-3.3709,-3.3294,-3.3124,-3.3124,-3.3124,-3.3124,-3.3124,-3.3124,-3.3124,-3.3124,-3.3124,-3.2993,-3.2805,0.0,0.0,0.0,-3.1198,-3.0771,-3.0595,-3.0218,-2.9955,-2.9792,-2.9792,-2.9792,-2.9792,-2.9792,-2.9792,-2.9792,-2.9792,-2.9792,-2.9792,-2.9792,-2.9792,-2.9792,-2.9792,-2.9792,-2.9792,-2.9792,-2.9666,-2.9515,-2.9515,-2.9114,-2.8662,-2.8662,-2.826,-2.7846,-2.7846,-2.7431,-2.7052,-2.7052,-2.6763,-2.6499,-2.6499,-2.6499,-2.6499,-2.6499,-2.6801,-2.7165,-2.7494,-2.8185,0.0,-2.9151,-2.9541,-2.9993,-3.0557,-2.9967,-2.9804,-3.0545,-3.062,-3.0683,-3.0846,-3.1876,-3.2503,-3.2583,0.0,0.0,0.0,-3.0633,0.0,-2.9792,-2.9792,-2.9792,-2.9792,-2.9792,-2.9792,-2.9792,-2.9792,-2.9792,-2.9792,-2.9792,-2.9792,-2.9792,-2.9792,-2.9792,-2.9792,-2.9792,-2.9792,-2.9792,-2.9792,-2.9792,-2.9792,-3.4848,-3.4848,-3.4848,-3.4848,-3.4848,-3.4848,-3.4848,-3.5307,-3.5463,-3.4945,-3.575,-3.6078,-3.5151,-3.503,-3.468,-3.396,-3.3583,-3.3294,-3.3093,-3.3124,-3.3124,-3.3124,-3.3124,-3.3124,-3.3124,-3.3124,0.0,-3.3124,-3.2654,-3.2252,-3.1888,-3.0809,-3.0306,-3.0294,-2.9942,-2.9792,-2.9792,-2.9792,-2.9792,-2.9792,-2.9792,-2.9792,-2.9792,-2.9792,-2.9792,-2.9792,-2.9792,-2.9792,-2.9792,-2.9792,-2.9792,-2.9792,-2.9792,-2.9792,-2.9792,-2.9792,-2.9528,-2.9252,-2.9252,-2.885,-2.8411,-2.8411,-2.7996,-2.7544,-2.7331,-2.7052,-2.6738,-2.6537,-2.6499,-2.6562,-2.6763,-2.709,-2.7419,-2.7833,-2.8473,-2.8963,-2.9227,-2.9566,-2.9917,-3.0269,-2.9993,-2.993,-3.0269,-3.0495,-3.062,-3.062,-3.1424,-3.2064,0.0,0.0,-3.165,-3.1122,-3.0583,-3.0143,-2.9792,-2.9792,-2.9792,-2.9792,-2.9792,-2.9792,-2.9792,-2.9792,-2.9792,-2.9792,-2.9792,-2.9792,-2.9792,-2.9792,-2.9792,-2.9792,-2.9792,-2.9792,-2.9792,-2.9792,-2.9792,-2.9792,-3.228,-3.228,-3.228,-3.228,-3.228,-3.228,-3.228,-3.3415,-3.3773,-3.2493,-3.4545,-3.5667,-3.4385,-3.4879,-3.4877,-3.3819,-3.3846,-3.3684,-3.3212,-3.3106,-3.3124,-3.3124,-3.3124,-3.3124,-3.3124,-3.3124,-3.3124,-3.3124,-3.1976,-3.1436,-3.1361,-3.0331,-2.9829,-2.9792,-2.9792,-2.9792,-2.9792,-2.9792,-2.9792,-2.9792,-2.9792,-2.9792,-2.9792,-2.9792,-2.9792,-2.9792,-2.9792,-2.9792,-2.9792,-2.9792,-2.9792,-2.9792,-2.9792,-2.9792,-2.9792,-2.9792,-2.9792,-2.9792,-2.9792,-2.9402,-2.895,-2.895,-2.8574,-2.8021,-2.7469,-2.7379,-2.718,-2.6663,-2.6587,-2.6751,-2.7228,-2.7344,-2.7733,-2.8725,-2.8925,-2.9176,-2.9716,-2.9792,-2.9792,-2.9792,-2.9792,0.0,-2.9792,-3.0256,-3.0557,-3.0557,-3.1035,-3.1323,0.0,0.0,-3.1122,-3.0633,-3.008,-2.9792,-2.9792,-2.9792,-2.9792,-2.9792,-2.9792,-2.9792,-2.9792,-2.9792,-2.9792,-2.9792,-2.9792,-2.9792,-2.9792,-2.9792,-2.9792,-2.9792,-2.9792,-2.9792,-2.9792,-2.9792,-2.9792,-2.9792,-3.228,-3.228,-3.228,-3.228,-3.228,-3.228,-3.228,-3.2593,-3.2694,-3.2331,-3.2883,-3.3132,-3.2844,-3.2941,-3.2817,-3.2135,-3.3196,-3.3847,-3.3709,-3.3307,-3.3124,-3.3124,-3.3124,-3.3124,-3.3124,-3.3124,-3.3124,-3.3124,-3.2365,-3.18,-3.1373,-3.0721,-3.0193,-2.9792,-2.9792,-2.9792,-2.9792,-2.9792,-2.9792,-2.9792,-2.9792,-2.9792,-2.9792,-2.9792,-2.9792,-2.9792,-2.9792,-2.9792,-2.9792,-2.9792,-2.9792,-2.9792,-2.9792,-2.9792,-2.9792,-2.9792,-2.9792,-2.9792,-2.9792,-2.9691,-2.9591,-2.9591,-2.9164,-2.8549,-2.8034,-2.7908,-2.7758,-2.7241,-2.7419,-2.762,-2.7344,-2.7971,-2.8587,-2.885,-2.9302,-2.9641,-2.9779,-2.9792,-2.9792,-2.9792,-2.9792,-2.9792,-2.9792,-2.9905,-2.9993,0.0,-3.0495,-3.062,-3.0193,-3.057,-3.0746,-3.062,-3.008,-2.9792,-2.9792,-2.9792,-2.9792,-2.9792,-2.9792,-2.9792,-2.9792,-2.9792,-2.9792,-2.9792,-2.9792,-2.9792,-2.9792,-2.9792,-2.9792,-2.9792,-2.9792,-2.9792,-2.9792,-2.9792,-2.9792,-2.9792,-3.0473,-3.0473,-3.0473,-3.0473,-3.0473,-3.0473,-3.0473,-3.0979,-3.1173,-3.0566,-3.1531,-3.2079,-3.148,-3.1927,-3.2169,-3.1911,-3.2783,-3.3261,-3.3016,-3.3053,-3.3124,-3.3124,-3.3124,-3.3124,-3.3124,-3.3124,-3.3124,-3.3124,-3.2503,-3.2051,-3.175,-3.0984,-3.0457,-3.0156,-2.9905,-2.9792,-2.9792,-2.9792,-2.9792,-2.9792,-2.9792,-2.9792,-2.9792,-2.9792,-2.9792,-2.9792,-2.9792,-2.9792,-2.9792,-2.9792,-2.9792,-2.9792,-2.9792,-2.9792,-2.9792,-2.9792,-2.9792,-2.9792,-2.9792,-2.9792,-2.9792,-2.9792,-2.9553,-2.9176,-2.8612,-2.8486,-2.8323,-2.777,-2.7896,-2.8097,-2.8047,-2.8524,-2.8976,-2.9289,-2.9591,-2.9792,-2.9792,-2.9792,-2.9792,-2.9792,-2.9792,-2.9792,-2.9792,-2.9792,-2.9792,-2.9792,-3.0068,0.0,-2.9817,-3.008,-3.0231,-3.0231,-2.9942,-2.9792,-2.9792,-2.9792,-2.9792,-2.9792,-2.9792,-2.9792,-2.9792,-2.9792,-2.9792,-2.9792,-2.9792,-2.9792,-2.9792,-2.9792,-2.9792,-2.9792,-2.9792,-2.9792,-2.9792,-2.9792,-2.9792,-2.9792,-2.8291,-2.8291,-2.8291,-2.8291,-2.8291,-2.8291,-2.8291,-2.925,-2.9608,-2.8451,-3.0266,-3.1276,-3.011,-3.1019,-3.1673,-3.1673,-3.2039,-3.2066,-3.1783,-3.2289,-3.2698,-3.2797,-3.2797,-3.2884,-3.3124,-3.3124,-3.3124,-3.3124,-3.2591,-3.2303,-3.219,-3.1286,-3.0809,-3.0708,-3.0244,-2.9993,-2.9917,-2.9917,-2.9867,-2.9792,-2.9792,-2.9792,-2.9792,-2.9792,-2.9792,-2.9792,-2.9792,-2.9792,-2.9792,-2.9792,-2.9792,-2.9792,-2.9792,-2.9792,-2.9792,-2.9792,-2.9792,-2.9792,-2.9792,-2.9792,-2.9792,-2.9792,-2.9792,-2.9666,-2.9126,-2.9026,-2.8863,-2.8348,-2.8298,-2.8473,-2.8813,-2.8963,-2.9176,-2.9716,-2.9867,-2.9892,-2.9804,0.0,-2.988,-2.9804,-2.9792,-2.974,-2.9585,-2.9714,-2.9714,-2.9585,-2.9702,-2.9792,-2.9792,-2.9792,-2.9792,-2.9792,-2.9792,-2.9792,-2.9792,-2.9792,-2.9792,-2.9792,-2.9792,-2.9792,-2.9792,-2.9792,-2.9792,-2.9792,-2.9792,-2.9792,-2.9792,-2.9792,-2.9792,-2.9792,-2.9792,-2.9792,-2.9792,-2.9792,-2.9792,-2.9792,-2.8291,-2.8291,-2.8291,-2.8291,-2.8291,-2.8291,-2.8291,-2.8495,-2.8548,-2.8344,-2.8644,-2.8847,-2.8644,-2.8804,-2.89,-2.89,-2.9579,-3.0307,-3.0988,-3.0668,-3.0801,-3.1468,-3.15,-3.2008,-3.3081,-3.3124,-3.3124,-3.3124,-3.2993,-3.2692,-3.2215,-3.2039,-3.1712,-3.1273,-3.1185,-3.0896,-3.0482,-3.0482,-3.0218,-2.9792,-2.9792,-2.9792,-2.9792,-2.9792,-2.9792,-2.9792,-2.9792,-2.9792,-2.9792,-2.9792,-2.9792,-2.9792,-2.9792,-2.9792,-2.9792,-2.9792,-2.9792,-2.9792,-2.9792,-2.9792,-2.9792,-2.9792,-2.9792,-2.9767,-2.9679,-2.9654,-2.949,-2.8875,-2.9189,-2.9415,-2.8963,-2.9327,-2.9691,-2.9779,-3.0181,-3.0331,-2.9854,0.0,-3.0319,-2.9842,-2.9792,-2.9404,-2.8478,-2.9236,-2.9404,-2.8426,-2.9275,-2.9792,-2.9792,-2.9792,-2.9792,-2.9792,-2.9792,-2.9792,-2.9792,-2.9792,-2.9792,-2.9792,-2.9792,-2.9792,-2.9792,-2.9792,-2.9792,-2.9792,-2.9792,-2.9792,-2.9792,-2.9792,-2.9792,-2.9792,-2.9792,-2.9792,-2.9792,-2.9792,-2.9792,-2.9792,-2.8291,-2.8291,-2.8291,-2.8291,-2.8291,-2.8291,-2.8291,-2.8291,-2.8291,-2.8291,-2.8291,-2.8291,-2.8291,-2.8291,-2.8291,-2.8291,-2.8615,-2.8971,-2.9161,-2.9687,-3.0163,-3.0537,-3.0364,-3.0496,-3.1101,-3.1101,-3.1424,-3.2096,-3.1424,-3.1292,-3.1662,-3.1369,-3.1113,-3.09,-3.1265,-3.126,-3.1035,-3.1035,-3.0884,-3.0645,-3.0645,-3.0645,-3.0645,-3.0645,-3.0645,-3.0645,-3.0645,-3.0645,-3.0608,-3.0331,-3.0231,-3.0181,-2.988,-2.9792,-2.9663,-2.9067,-2.9326,-2.9792,-2.9792,-2.9792,-2.9792,-2.9792,-2.9792,-2.9792,-2.9792,-2.9792,-2.9716,-2.9453,-2.9603,-2.9716,-2.9453,-2.9616,-2.9792,-2.9792,-3.0005,0.0,-2.9829,-3.0018,-3.008,-2.9829,-2.9792,-2.9365,-2.8215,-2.8597,-2.8688,-2.8136,-2.8597,-2.9157,-2.9753,-2.9792,-2.9792,-2.9792,-2.9792,-2.9792,-2.9792,-2.9792,-2.9792,-2.9792,-2.9792,-2.9792,-2.9792,-2.9792,-2.9792,-2.9792,-2.9792,-2.9792,-2.9792,-2.9792,-2.9792,-2.9792,-2.9792,-2.9792,-2.9792,-2.9792,-2.9792,-2.9792,-2.8291,-2.8291,-2.8291,-2.8291,-2.8291,-2.8291,-2.8291,-2.8291,-2.8291,-2.8291,-2.8291,-2.8291,-2.8291,-2.8291,-2.8291,-2.8291,-2.8291,-2.8154,-2.7885,-2.8877,-2.9513,-2.9569,-2.9479,-2.9407,-2.9407,-2.9407,-2.9852,-3.0765,-2.9852,-2.9863,-3.0754,-3.0367,-3.0179,-3.02,-3.0694,-3.0873,-3.0751,-3.0751,-3.0678,-3.0555,-3.0555,-3.0555,-3.0555,-3.0869,-3.0787,-3.0567,-3.0869,-3.0774,-3.0494,-3.0424,-3.0154,-2.9894,-2.9646,-2.9394,-2.8989,-2.8011,-2.8359,-2.904,-2.904,-2.9209,-2.9404,-2.9404,-2.9585,-2.9792,-2.9792,-2.9585,-2.9404,-2.9404,-2.9404,-2.9404,-2.9404,-2.9624,-2.9792,-2.9792,0.0,-2.9942,-2.9817,-2.9905,-2.9852,-2.9456,-2.9404,-2.8858,-2.747,-2.7562,-2.7602,-2.7348,-2.7562,-2.8108,-2.9,-2.904,-2.917,-2.9404,-2.9663,-2.9792,-2.9792,-2.9792,-2.9792,-2.9792,-2.9792,-2.9792,-2.9792,-2.9792,-2.9792,-2.9792,-2.9792,-2.9792,-2.9792,-2.9792,-2.9792,-2.9792,-2.9792,-2.9792,-2.9792,-2.9792,-2.9792,-2.9792,-2.8291,-2.8291,-2.8291,-2.8291,-2.8291,-2.8291,-2.8291,-2.8291,-2.8291,-2.8291,-2.8291,-2.8291,-2.8291,-2.8291,-2.8291,-2.8291,-2.8291,-2.8281,-2.8252,-2.8022,-2.7995,-2.8341,-2.9014,-2.9407,-2.9407,-2.9407,-2.9453,-2.9544,-2.9453,-2.9453,-2.9544,-2.9499,-2.9488,-2.9488,-2.9545,-2.9274,-2.879,-2.879,-2.8475,-2.7949,-2.7949,-2.7949,-2.8079,-2.9261,-2.9005,-2.8123,-2.9303,-2.8951,-2.8166,-2.9268,-2.8905,-2.803,-2.8728,-2.8191,-2.7223,-2.673,-2.6678,-2.673,-2.673,-2.7452,-2.8215,-2.8215,-2.9028,-2.9792,-2.9792,-2.8976,-2.8215,-2.8215,-2.8215,-2.8215,-2.8215,-2.9106,-2.9792,-2.9792,0.0,0.0,-2.9867,-3.0231,-2.9975,-2.8407,-2.8215,-2.7389,-2.5241,-2.6005,-2.6171,-2.5115,-2.6005,-2.6637,-2.673,-2.673,-2.7209,-2.8176,-2.9236,-2.9792,-2.9792,-2.9792,-2.9792,-2.9792,-2.9792,-2.9792,-2.9792,-2.9792,-2.9792,-2.9792,-2.9792,-2.9792,-2.9792,-2.9792,-2.9792,-2.9792,-2.9792,-2.9792,-2.9792,-2.9792,-2.9792,-2.9792,-2.8291,-2.8291,-2.8291,-2.8291,-2.8291,-2.8291,-2.8291,-2.8291,-2.8291,-2.8291,-2.8291,-2.8291,-2.8291,-2.8291,-2.8291,-2.8291,-2.8291,-2.8291,-2.8291,-2.8144,-2.7799,-2.7092,-2.7084,-2.7115,-2.7115,-2.7115,-2.7484,-2.8272,-2.7484,-2.7484,-2.8272,-2.8272,-2.8272,-2.8319,-2.9085,-2.9306,-2.9081,-2.9081,-2.897,-2.8746,-2.8746,-2.8746,-2.8791,-2.9283,-2.9194,-2.8836,-2.9294,-2.9149,-2.8791,-2.893,-2.8652,-2.8254,-2.8182,-2.768,-2.6877,-2.5771,-2.4935,-2.4392,-2.4392,-2.5724,-2.7128,-2.7128,-2.7424,-2.7758,-2.7758,-2.7424,-2.7128,-2.7128,-2.7654,-2.8096,-2.8096,-2.8466,-2.8976,-2.9702,0.0,-2.8224,-2.8673,-2.8338,-2.7807,-2.7191,-2.7128,-2.6491,-2.4957,-2.521,-2.5252,-2.483,-2.521,-2.5755,-2.6472,-2.6524,-2.6678,-2.7075,-2.8148,-2.9106,-2.9792,-2.9792,-2.9792,-2.9792,-2.9792,-2.9792,-2.9792,-2.9792,-2.9792,-2.9792,-2.9792,-2.9792,-2.9792,-2.9792,-2.9792,-2.9792,-2.9792,-2.9792,-2.9792,-2.9792,-2.9792,-2.9792,-2.8291,-2.8291,-2.8291,-2.8291,-2.8291,-2.8291,-2.8291,-2.8291,-2.8291,-2.8291,-2.8291,-2.8291,-2.8291,-2.8291,-2.8291,-2.8291,-2.8291,-2.8291,-2.8291,-2.8164,-2.7646,-2.6631,-2.6172,-2.583,-2.5693,-2.5693,-2.611,-2.6982,-2.611,-2.6149,-2.6982,-2.6982,-2.6982,-2.703,-2.7851,-2.8215,-2.8215,-2.8215,-2.8215,-2.8215,-2.8215,-2.8215,-2.8262,-2.868,-2.8588,-2.8308,-2.868,-2.8588,-2.8254,-2.8298,-2.8006,-2.7645,-2.7521,-2.6899,-2.6043,-2.4809,-2.3924,-2.331,-2.313,-2.4221,-2.5515,-2.5891,-2.6224,-2.6524,-2.6524,-2.6224,-2.5975,-2.5975,-2.6532,-2.7052,-2.7052,-2.7348,-2.7855,-2.8621,-2.7476,-2.676,-2.7481,-2.6964,-2.6359,-2.6016,-2.5975,-2.5504,-2.4382,-2.4253,-2.4253,-2.4253,-2.4253,-2.4595,-2.5389,-2.5431,-2.5599,-2.5964,-2.6696,-2.7602,-2.8752,-2.9456,-2.9792,-2.9792,-2.9792,-2.9792,-2.9792,-2.9792,-2.9792,-2.9792,-2.9792,-2.9792,-2.9792,-2.9792,-2.9792,-2.9792,-2.9792,-2.9792,-2.9792,-2.9792,-2.9792,-2.9792,-2.8291,-2.8291,-2.8291,-2.8291,-2.8291,-2.8291,-2.8291,-2.8291,-2.8291,-2.8291,-2.8291,-2.8291,-2.8291,-2.8291,-2.8291,-2.8291,-2.8291,-2.8291,-2.8291,-2.7953,-2.748,-2.7041,-2.6621,-2.6191,-2.5703,-2.5693,-2.5693,-2.5693,-2.5693,-2.5693,-2.5693,-2.5693,-2.5693,-2.5693,-2.5693,-2.5693,-2.5693,-2.5693,-2.5693,-2.5693,-2.5693,-2.5693,-2.583,-2.7078,-2.6802,-2.5878,-2.7125,-2.6754,-2.5878,-2.7173,-2.6754,-2.5848,-2.6625,-2.5757,-2.4336,-2.3916,-2.3799,-2.3701,-2.3218,-2.3101,-2.3396,-2.45,-2.563,-2.6483,-2.6483,-2.5588,-2.4787,-2.4787,-2.4787,-2.4787,-2.4787,-2.5714,-2.6483,-2.6524,-2.6472,-2.6483,-2.6483,-2.6472,-2.6058,-2.4914,-2.4787,-2.4329,-2.3222,-2.3091,-2.3091,-2.3091,-2.3091,-2.3091,-2.3091,-2.3091,-2.3637,-2.4745,-2.4787,-2.5336,-2.6483,-2.8673,-2.9792,-2.9792,-2.9792,-2.9792,-2.9792,-2.9792,-2.9792,-2.9792,-2.9792,-2.9792,-2.9792,-2.9792,-2.9792,-2.9792,-2.9792,-2.9792,-2.9792,-2.9792,-2.9792,-2.9792,-2.8291,-2.8291,-2.8291,-2.8291,-2.8291,-2.8291,-2.8291,-2.8291,-2.8291,-2.8291,-2.8291,-2.8291,-2.8291,-2.8291,-2.8291,-2.8291,-2.8291,-2.8291,-2.8291,-2.8174,-2.791,-2.749,-2.706,-2.6768,-2.6641,-2.6348,-2.6191,-2.6191,-2.584,-2.5693,-2.5693,-2.5693,-2.5693,-2.5693,-2.5693,-2.5693,-2.5693,-2.5693,-2.5693,-2.5693,-2.5693,-2.5693,-2.5732,-2.611,-2.6014,-2.5732,-2.611,-2.6014,-2.5781,-2.6159,-2.6014,-2.5703,-2.567,-2.53,-2.4785,-2.4355,-2.4228,-2.4141,-2.3711,-2.3594,-2.3604,-2.3587,-2.3844,-2.4092,-2.4092,-2.3844,-2.3594,-2.3594,-2.4253,-2.4787,-2.4787,-2.5083,-2.5588,-2.6348,-2.5147,-2.4392,-2.521,-2.4638,-2.3973,-2.3637,-2.3594,-2.3464,-2.3135,-2.3091,-2.3091,-2.3091,-2.3091,-2.3091,-2.3091,-2.3091,-2.3266,-2.3594,-2.4372,-2.4957,-2.5294,-2.676,-2.7867,-2.8597,-2.8597,-2.9028,-2.9792,-2.9792,-2.9792,-2.9792,-2.9792,-2.9792,-2.9792,-2.9792,-2.9792,-2.9792,-2.9792,-2.9792,-2.9792,-2.9792,-2.9792,-2.9792,-2.8291,-2.8291,-2.8291,-2.8291,-2.8291,-2.8291,-2.8291,-2.8291,-2.8291,-2.8291,-2.8291,-2.8291,-2.8291,-2.8291,-2.8291,-2.8291,-2.8291,-2.8291,-2.8291,-2.8291,-2.8174,-2.792,-2.7666,-2.7363,-2.7021,-2.6768,-2.6641,-2.6641,-2.6211,-2.5996,-2.5986,-2.5771,-2.5693,-2.5693,-2.5693,-2.5693,-2.5693,-2.5693,-2.5693,-2.5693,-2.5693,-2.5693,-2.5693,-2.5693,-2.5693,-2.5693,-2.5693,-2.5693,-2.5693,-2.5693,-2.5693,-2.5645,-2.542,-2.5332,-2.5244,-2.4805,-2.4678,-2.458,-2.415,-2.4043,-2.3935,-2.3506,-2.3227,-2.3091,-2.3091,-2.3091,-2.3091,-2.3091,-2.3627,-2.4125,-2.4125,-2.4125,-2.4339,-2.5052,-2.4016,-2.3343,-2.4049,-2.3551,-2.3091,-2.3091,-2.3091,-2.3091,-2.3091,-2.3091,-2.3091,-2.3091,-2.3091,-2.3091,-2.3091,-2.3091,-2.3091,-2.3091,-2.3757,-2.4125,-2.4125,-2.4808,-2.5922,-2.7481,-2.7884,-2.8227,-2.8502,-2.9417,-2.9534,-2.9157,-2.9585,-2.9792,-2.9792,-2.9792,-2.9792,-2.9792,-2.9792,-2.9792,-2.9792,-2.9792,-2.9792,-2.9792,-2.8291,-2.8291,-2.8291,-2.8291,-2.8291,-2.8291,-2.8291,-2.8291,-2.8291,-2.8291,-2.8291,-2.8291,-2.8291,-2.8291,-2.8291,-2.8291,-2.8291,-2.8291,-2.8291,-2.8291,-2.8291,-2.8291,-2.8291,-2.793,-2.7148,-2.709,-2.707,-2.707,-2.665,-2.6426,-2.6387,-2.6016,-2.5781,-2.5742,-2.5791,-2.5801,-2.5801,-2.5801,-2.5801,-2.5801,-2.5801,-2.5801,-2.5801,-2.5801,-2.5801,-2.5801,-2.5801,-2.5771,-2.5742,-2.5703,-2.5693,-2.5693,-2.5693,-2.5693,-2.5615,-2.5244,-2.5127,-2.5029,-2.459,-2.4473,-2.4375,-2.3955,-2.3545,-2.3188,-2.311,-2.3091,-2.3091,-2.3091,-2.3091,-2.3091,-2.3091,-2.3091,-2.3091,-2.3091,-2.3091,-2.3091,-2.3091,-2.3091,-2.3091,-2.3091,-2.3091,-2.3091,-2.3091,-2.3091,-2.3091,-2.3091,-2.3091,-2.3091,-2.3091,-2.3091,-2.3091,-2.3091,-2.3091,-2.3091,-2.3091,-2.3091,-2.4178,-2.6348,-2.7319,-2.736,-2.6565,-2.8593,-2.8949,-2.8016,-2.9157,-2.9663,-2.9663,-2.9753,-2.9792,-2.9792,-2.9792,-2.9792,-2.9792,-2.9792,-2.9792,-2.9792,-2.8291,-2.8291,-2.8291,-2.8291,-2.8291,-2.8291,-2.8291,-2.8291,-2.8291,-2.8291,-2.8291,-2.8291,-2.8291,-2.8291,-2.8291,-2.8291,-2.8291,-2.8291,-2.8291,-2.8291,-2.8291,-2.8291,-2.8291,-2.8203,-2.8018,-2.7695,-2.7529,-2.7529,-2.709,-2.6709,-2.6396,-2.6631,-2.6562,-2.626,-2.6592,-2.6738,-2.6738,-2.6738,-2.6738,-2.6738,-2.6738,-2.6738,-2.6738,-2.6738,-2.6738,-2.6738,-2.6738,-2.6523,-2.6191,-2.5801,-2.5693,-2.5693,-2.5693,-2.5693,-2.5674,-2.5625,-2.5596,-2.5498,-2.5049,-2.4969,-2.4824,-2.4394,-2.4209,-2.3919,-2.3247,-2.3091,-2.3091,-2.3091,-2.3091,-2.3091,-2.3091,-2.3091,-2.3091,-2.3091,-2.3091,-2.3091,-2.3091,-2.3091,-2.3091,-2.3091,-2.3091,-2.3091,-2.3091,-2.3091,-2.3091,-2.3091,-2.3091,-2.3091,-2.3091,-2.3091,-2.3091,-2.3091,-2.3091,-2.3091,-2.3091,-2.3091,-2.38,-2.5168,-2.541,-2.587,-2.6524,-2.7017,-2.7098,-2.6924,-2.7976,-2.8466,-2.8557,-2.9443,-2.9792,-2.9792,-2.9792,-2.9792,-2.9792,-2.9792,-2.9792,-2.9792,-2.8291,-2.8291,-2.8291,-2.8291,-2.8291,-2.8291,-2.8291,-2.8291,-2.8291,-2.8291,-2.8291,-2.8291,-2.8291,-2.8291,-2.8291,-2.8291,-2.8291,-2.8291,-2.8291,-2.8291,-2.8291,-2.8291,-2.8291,-2.8291,-2.8291,-2.8076,-2.7969,-2.7969,-2.7539,-2.7217,-2.7002,-2.7012,-2.6894,-2.6699,-2.6914,-2.7012,-2.7012,-2.7012,-2.7012,-2.7012,-2.7012,-2.7012,-2.7012,-2.7012,-2.7012,-2.7012,-2.7012,-2.6875,-2.6592,-2.5908,-2.583,-2.6006,-2.5752,-2.5693,-2.5693,-2.5693,-2.5693,-2.5635,-2.5449,-2.5391,-2.5283,-2.4834,-2.4727,-2.456,-2.3896,-2.3549,-2.3447,-2.3447,-2.3237,-2.3091,-2.3091,-2.3091,-2.3091,-2.3091,-2.3091,-2.3091,-2.3091,-2.3091,-2.3091,-2.3091,-2.3091,-2.3091,-2.3091,-2.3091,-2.3091,-2.3091,-2.3091,-2.3091,-2.3091,-2.3091,-2.3091,-2.3091,-2.3091,-2.3091,-2.3091,-2.3091,-2.3387,-2.4006,-2.4542,-2.484,-2.4893,-2.6016,-2.6182,-2.5755,-2.6871,-2.7643,-2.8136,-2.8727,-2.9326,-2.9792,-2.9792,-2.9792,-2.9792,-2.9792,-2.9792,-2.9792,-2.8291,-2.8291,-2.8291,-2.8291,-2.8291,-2.8291,-2.8291,-2.8291,-2.8291,-2.8291,-2.8291,-2.8291,-2.8291,-2.8291,-2.8291,-2.8291,-2.8291,-2.8291,-2.8291,-2.8291,-2.8291,-2.8291,-2.8291,-2.8291,-2.8291,-2.8291,-2.8291,-2.8291,-2.7949,-2.7787,-2.7708,-2.7363,-2.7197,-2.7129,-2.7197,-2.7236,-2.7236,-2.7236,-2.7236,-2.7236,-2.7236,-2.7236,-2.7236,-2.7236,-2.7236,-2.7236,-2.7236,-2.7187,-2.7002,-2.6171,-2.6191,-2.6435,-2.6015,-2.5859,-2.5801,-2.5801,-2.5742,-2.5693,-2.5693,-2.5693,-2.5596,-2.5273,-2.5185,-2.5088,-2.4727,-2.4258,-2.3896,-2.3896,-2.3603,-2.3315,-2.3315,-2.3257,-2.3208,-2.3208,-2.314,-2.3091,-2.3091,-2.3091,-2.3091,-2.3091,-2.3091,-2.3091,-2.3091,-2.3091,-2.3091,-2.3091,-2.3091,-2.3091,-2.3091,-2.3091,-2.3091,-2.3091,-2.3091,-2.3091,-2.3091,-2.3091,-2.3091,-2.3091,-2.4049,-2.4006,-2.3178,-2.5062,-2.5389,-2.4585,-2.5714,-2.6707,-2.755,-2.7763,-2.8478,-2.9495,-2.9495,-2.9624,-2.9792,-2.9792,-2.9792,-2.9792,-2.8291,-2.8291,-2.8291,-2.8291,-2.8291,-2.8291,-2.8291,-2.8291,-2.8291,-2.8291,-2.8291,-2.8291,-2.8291,-2.8291,-2.8291,-2.8291,-2.8291,-2.8291,-2.8291,-2.8291,-2.8291,-2.8291,-2.8291,-2.8291,-2.8291,-2.8291,-2.8291,-2.8291,-2.8232,-2.8018,-2.7728,-2.7978,-2.793,-2.7598,-2.7959,-2.8115,-2.8115,-2.8115,-2.8115,-2.8115,-2.8115,-2.8115,-2.8115,-2.8115,-2.8115,-2.8115,-2.8115,-2.7881,-2.7552,-2.7002,-2.6885,-2.6914,-2.6855,-2.6592,-2.6299,-2.6299,-2.6035,-2.5693,-2.5693,-2.5693,-2.5674,-2.5615,-2.5596,-2.5586,-2.5528,-2.4922,-2.4336,-2.4336,-2.4287,-2.4238,-2.4238,-2.3945,-2.3701,-2.3701,-2.3344,-2.3091,-2.3091,-2.3091,-2.3091,-2.3091,-2.3091,-2.3091,-2.3091,-2.3091,-2.3091,-2.3091,-2.3091,-2.3091,-2.3091,-2.3091,-2.3091,-2.3091,-2.3091,-2.3091,-2.3091,-2.3091,-2.3091,-2.3091,-2.3266,-2.3256,-2.3091,-2.343,-2.3474,-2.3387,-2.4553,-2.5126,-2.5326,-2.6295,-2.7371,-2.8347,-2.8347,-2.8937,-2.9792,-2.9792,-2.9792,-2.9792,-2.8291,-2.8291,-2.8291,-2.8291,-2.8291,-2.8291,-2.8291,-2.8291,-2.8291,-2.8291,-2.8291,-2.8291,-2.8291,-2.8291,-2.8291,-2.8291,-2.8291,-2.8291,-2.8291,-2.8291,-2.8291,-2.8291,-2.8291,-2.8291,-2.8291,-2.8291,-2.8291,-2.8291,-2.8291,-2.8193,-2.8018,-2.8203,-2.8193,-2.8027,-2.8203,-2.8291,-2.8291,-2.8291,-2.8291,-2.8291,-2.8291,-2.8291,-2.8291,-2.8291,-2.8291,-2.8262,-2.8027,-2.7978,-2.791,-2.7246,-2.7178,-2.7334,-2.709,-2.6894,-2.6689,-2.6455,-2.625,-2.6045,-2.5752,-2.5693,-2.5693,-2.5693,-2.5693,-2.5693,-2.5693,-2.5382,-2.504,-2.4834,-2.459,-2.4414,-2.4414,-2.4258,-2.4062,-2.3828,-2.3633,-2.3418,-2.313,-2.3091,-2.3091,-2.3091,-2.3091,-2.3091,-2.3091,-2.3091,-2.3091,-2.3091,-2.3091,-2.3091,-2.3091,-2.3091,-2.3091,-2.3091,-2.3091,-2.3091,-2.3091,-2.3091,-2.3091,-2.3091,-2.3091,-2.3091,-2.3091,-2.3091,-2.3091,-2.3135,-2.3627,-2.4211,-2.483,-2.5336,-2.6213,-2.7209,-2.7209,-2.7867,-2.8846,-2.8846,-2.8846,-2.8937]},{"header":{"parameterUnit":"m.s-1","parameterCategory":1,"la1":30.6,"la2":28.766,"lo1":-90.7593,"lo2":-88.6598,"dy":0.0162,"dx":0.0183,"nx":116,"ny":114,"refTime":"2024-06-18T06:00:00:Z","depth":0,"parameterNumber":3,"parameterNumberName":"V-component_of_WINDS"},"data":[0.0,0.0,0.0,0.0,0.0,0.0,0.0,0.0,0.0,0.0,0.0,0.0,0.0,0.0,0.0,0.0,0.0,0.0,0.0,0.0,0.0,0.0,0.0,0.0,0.0,0.0,0.0,0.0,0.0,0.0,0.0,0.0,0.0,0.0,0.0,0.0,0.0,0.0,0.0,0.0,0.0,0.0,0.0,0.0,0.0,0.0,0.0,0.0,0.0,0.0,0.0,0.0,0.0,0.0,0.0,0.0,0.0,0.0,0.0,0.0,0.0,0.0,0.0,0.0,0.0,0.0,0.0,0.0,0.0,0.0,0.0,0.0,0.0,0.0,0.0,0.0,0.0,0.0,0.0,0.0,0.0,0.0,0.0,0.0,0.0,0.0,0.0,0.0,0.0,0.0,0.0,0.0,0.0,0.0,0.0,0.0,0.0,0.0,0.0,0.0,0.0,0.0,0.0,0.0,0.0,0.0,0.0,0.0,0.0,0.0,0.0,0.0,0.0,0.0,0.0,0.0,0.0,0.0,0.0,0.0,0.0,0.0,0.0,0.0,0.0,0.0,0.0,0.0,0.0,0.0,0.0,0.0,0.0,0.0,0.0,0.0,0.0,0.0,0.0,0.0,0.0,0.0,0.0,0.0,0.0,0.0,0.0,0.0,0.0,0.0,0.0,0.0,0.0,0.0,0.0,0.0,0.0,0.0,0.0,0.0,0.0,0.0,0.0,0.0,0.0,0.0,0.0,0.0,0.0,0.0,0.0,0.0,0.0,0.0,0.0,0.0,0.0,0.0,0.0,0.0,0.0,0.0,0.0,0.0,0.0,0.0,0.0,0.0,0.0,0.0,0.0,0.0,0.0,0.0,0.0,0.0,0.0,0.0,0.0,0.0,0.0,0.0,0.0,0.0,0.0,0.0,0.0,0.0,0.0,0.0,0.0,0.0,0.0,0.0,0.0,0.0,0.0,0.0,0.0,0.0,0.0,0.0,0.0,0.0,0.0,0.0,0.0,0.0,0.0,0.0,0.0,0.0,0.0,0.0,0.0,0.0,0.0,0.0,0.0,0.0,0.0,0.0,0.0,0.0,0.0,0.0,0.0,0.0,0.0,0.0,0.0,0.0,0.0,0.0,0.0,0.0,0.0,0.0,0.0,0.0,0.0,0.0,0.0,0.0,0.0,0.0,0.0,0.0,0.0,0.0,0.0,0.0,0.0,0.0,0.0,0.0,0.0,0.0,0.0,0.0,0.0,0.0,0.0,0.0,0.0,0.0,0.0,0.0,0.0,0.0,0.0,0.0,0.0,0.0,0.0,0.0,0.0,0.0,0.0,0.0,0.0,0.0,0.0,0.0,0.0,0.0,0.0,0.0,0.0,0.0,0.0,0.0,0.0,0.0,0.0,0.0,0.0,0.0,0.0,0.0,0.0,0.0,0.0,0.0,0.0,0.0,0.0,0.0,0.0,0.0,0.0,0.0,0.0,0.0,0.0,0.0,0.0,0.0,0.0,0.0,0.0,0.0,0.0,0.0,0.0,0.0,0.0,0.0,0.0,0.0,0.0,0.0,0.0,0.0,0.0,0.0,0.0,0.0,0.0,0.0,0.0,0.0,0.0,0.0,0.0,0.0,0.0,0.0,0.0,0.0,0.0,0.0,0.0,0.0,0.0,0.0,0.0,0.0,0.0,0.0,0.0,0.0,0.0,0.0,0.0,0.0,0.0,0.0,0.0,0.0,0.0,0.0,0.0,0.0,0.0,0.0,0.0,0.0,0.0,0.0,0.0,0.0,0.0,0.0,0.0,0.0,0.0,0.0,0.0,0.0,0.0,0.0,0.0,0.0,0.0,0.0,0.0,0.0,0.0,0.0,0.0,0.0,0.0,0.0,0.0,0.0,0.0,0.0,0.0,0.0,0.0,0.0,0.0,0.0,0.0,0.0,0.0,0.0,0.0,0.0,0.0,0.0,0.0,0.0,0.0,0.0,0.0,0.0,0.0,0.0,0.0,0.0,0.0,0.0,0.0,0.0,0.0,0.0,0.0,0.0,0.0,0.0,0.0,0.0,0.0,0.0,0.0,0.0,0.0,0.0,0.0,0.0,0.0,0.0,0.0,0.0,0.0,0.0,0.0,0.0,0.0,0.0,0.0,0.0,0.0,0.0,0.0,0.0,0.0,0.0,0.0,0.0,0.0,0.0,0.0,0.0,0.0,0.0,0.0,0.0,0.0,0.0,0.0,0.0,0.0,0.0,0.0,0.0,0.0,0.0,0.0,0.0,0.0,0.0,0.0,0.0,0.0,0.0,0.0,0.0,0.0,0.0,0.0,0.0,0.0,0.0,0.0,0.0,0.0,0.0,0.0,0.0,0.0,0.0,0.0,0.0,0.0,0.0,0.0,0.0,0.0,0.0,0.0,0.0,0.0,0.0,0.0,0.0,0.0,0.0,0.0,0.0,0.0,0.0,0.0,0.0,0.0,0.0,0.0,0.0,0.0,0.0,0.0,0.0,0.0,0.0,0.0,0.0,0.0,0.0,0.0,0.0,0.0,0.0,0.0,0.0,0.0,0.0,0.0,0.0,0.0,0.0,0.0,0.0,0.0,0.0,0.0,0.0,0.0,0.0,0.0,0.0,0.0,0.0,0.0,0.0,0.0,0.0,0.0,0.0,0.0,0.0,0.0,0.0,0.0,0.0,0.0,0.0,0.0,0.0,0.0,0.0,0.0,0.0,0.0,0.0,0.0,0.0,0.0,0.0,0.0,0.0,0.0,0.0,0.0,0.0,0.0,0.0,0.0,0.0,0.0,0.0,0.0,0.0,0.0,0.0,0.0,0.0,0.0,0.0,0.0,0.0,0.0,0.0,0.0,0.0,0.0,0.0,0.0,0.0,0.0,0.0,0.0,0.0,0.0,0.0,0.0,0.0,0.0,0.0,0.0,0.0,0.0,0.0,0.0,0.0,0.0,0.0,0.0,0.0,0.0,0.0,0.0,0.0,0.0,0.0,0.0,0.0,0.0,0.0,0.0,0.0,0.0,0.0,0.0,0.0,0.0,0.0,0.0,0.0,0.0,0.0,0.0,0.0,0.0,0.0,0.0,0.0,0.0,0.0,0.0,0.0,0.0,0.0,0.0,0.0,0.0,0.0,0.0,0.0,0.0,0.0,0.0,0.0,0.0,0.0,0.0,0.0,0.0,0.0,0.0,0.0,0.0,0.0,0.0,0.0,0.0,0.0,0.0,0.0,0.0,0.0,0.0,0.0,0.0,0.0,0.0,0.0,0.0,0.0,0.0,0.0,0.0,0.0,0.0,0.0,0.0,0.0,0.0,0.0,0.0,0.0,0.0,0.0,0.0,0.0,0.0,0.0,0.0,0.0,0.0,0.0,0.0,0.0,0.0,0.0,0.0,0.0,0.0,0.0,0.0,0.0,0.0,0.0,0.0,0.0,0.0,0.0,0.0,0.0,0.0,0.0,0.0,0.0,0.0,0.0,0.0,0.0,0.0,0.0,0.0,0.0,0.0,0.0,0.0,0.0,0.0,0.0,0.0,0.0,0.0,0.0,0.0,0.0,0.0,0.0,0.0,0.0,0.0,0.0,0.0,0.0,0.0,0.0,0.0,0.0,0.0,0.0,0.0,0.0,0.0,0.0,0.0,0.0,0.0,0.0,0.0,0.0,0.0,0.0,0.0,0.0,0.0,0.0,0.0,0.0,0.0,0.0,0.0,0.0,0.0,0.0,0.0,0.0,0.0,0.0,0.0,0.0,0.0,0.0,0.0,0.0,0.0,0.0,0.0,0.0,0.0,0.0,0.0,0.0,0.0,0.0,0.0,0.0,0.0,0.0,0.0,0.0,0.0,0.0,0.0,0.0,0.0,0.0,0.0,0.0,0.0,0.0,0.0,0.0,0.0,0.0,0.0,0.0,0.0,0.0,0.0,0.0,0.0,0.0,0.0,0.0,0.0,0.0,0.0,0.0,0.0,0.0,0.0,0.0,0.0,0.0,0.0,0.0,0.0,0.0,0.0,0.0,0.0,0.0,0.0,0.0,0.0,0.0,0.0,0.0,0.0,0.0,0.0,0.0,0.0,0.0,0.0,0.0,0.0,0.0,0.0,0.0,0.0,0.0,0.0,0.0,0.0,0.0,0.0,0.0,0.0,0.0,0.0,0.0,0.0,0.0,0.0,0.0,0.0,0.0,0.0,0.0,0.0,0.0,0.0,0.0,0.0,0.0,0.0,0.0,0.0,0.0,0.0,0.0,0.0,0.0,0.0,0.0,0.0,0.0,0.0,0.0,0.0,0.0,0.0,0.0,0.0,0.0,0.0,0.0,0.0,0.0,0.0,0.0,0.0,0.0,0.0,0.0,0.0,0.0,0.0,0.0,0.0,0.0,0.0,0.0,0.0,0.0,0.0,0.0,0.0,0.0,0.0,0.0,0.0,0.0,0.0,0.0,0.0,0.0,0.0,0.0,0.0,0.0,0.0,0.0,0.0,0.0,0.0,0.0,0.0,0.0,0.0,0.0,0.0,0.0,0.0,0.0,0.0,0.0,0.0,0.0,0.0,0.0,0.0,0.0,0.0,0.0,0.0,0.0,0.0,0.0,0.0,0.0,0.0,0.0,0.0,0.0,0.0,0.0,0.0,0.0,0.0,0.0,0.0,0.0,0.0,0.0,0.0,0.0,0.0,0.0,0.0,0.0,0.0,0.0,0.0,0.0,0.0,0.0,0.0,0.0,0.0,0.0,0.0,0.0,0.0,0.0,0.0,0.0,0.0,0.0,0.0,0.0,0.0,0.0,0.0,0.0,0.0,0.0,0.0,0.0,0.0,0.0,0.0,0.0,0.0,0.0,0.0,0.0,0.0,0.0,0.0,0.0,0.0,0.0,0.0,0.0,0.0,0.0,0.0,0.0,0.0,0.0,0.0,0.0,0.0,0.0,0.0,0.0,0.0,0.0,0.0,0.0,0.0,0.0,0.0,0.0,0.0,0.0,0.0,0.0,0.0,0.0,0.0,0.0,0.0,0.0,0.0,0.0,0.0,0.0,0.0,0.0,0.0,0.0,0.0,0.0,0.0,0.0,0.0,0.0,0.0,0.0,0.0,0.0,0.0,0.0,0.0,0.0,0.0,0.0,0.0,0.0,0.0,0.0,0.0,0.0,0.0,0.0,0.0,0.0,0.0,0.0,0.0,0.0,0.0,0.0,0.0,0.0,0.0,0.0,0.0,0.0,0.0,0.0,0.0,0.0,0.0,0.0,0.0,0.0,0.0,0.0,0.0,0.0,0.0,0.0,0.0,0.0,0.0,0.0,0.0,0.0,0.0,0.0,0.0,0.0,0.0,0.0,0.0,0.0,0.0,0.0,0.0,0.0,0.0,0.0,0.0,0.0,0.0,0.0,0.0,0.0,0.0,0.0,0.0,0.0,0.0,0.0,0.0,0.0,0.0,0.0,0.0,0.0,0.0,0.0,0.0,0.0,0.0,0.0,0.0,0.0,0.0,0.0,0.0,0.0,0.0,0.0,0.0,0.0,0.0,0.0,0.0,0.0,0.0,0.0,0.0,0.0,0.0,0.0,0.0,0.0,0.0,0.0,0.0,0.0,0.0,0.0,0.0,0.0,0.0,0.0,0.0,0.0,0.0,0.0,0.0,0.0,0.0,0.0,0.0,0.0,0.0,0.0,0.0,0.0,0.0,0.0,0.0,0.0,0.0,0.0,0.0,0.0,0.0,0.0,0.0,0.0,0.0,0.0,0.0,0.0,0.0,0.0,0.0,0.0,0.0,0.0,0.0,0.0,0.0,0.0,0.0,0.0,0.0,0.0,0.0,0.0,0.0,0.0,0.0,0.0,0.0,0.0,0.0,0.0,0.0,0.0,0.0,0.0,0.0,0.0,0.0,0.0,0.0,0.0,0.0,0.0,0.0,0.0,0.0,0.0,0.0,0.0,0.0,0.0,0.0,0.0,0.0,0.0,0.0,0.0,0.0,0.0,0.0,0.0,0.0,0.0,0.0,0.0,0.0,0.0,0.0,0.0,0.0,0.0,0.0,0.0,0.0,0.0,0.0,0.0,0.0,0.0,0.0,0.0,0.0,0.0,0.0,0.0,0.0,0.0,0.9907,0.8533,0.0,0.0,0.0,0.0,0.0,0.0,0.0,0.0,0.0,0.0,0.0,0.0,0.0,0.0,0.0,0.0,0.0,0.0,0.0,0.0,0.0,0.0,0.0,2.0899,2.104,2.1847,2.2154,2.2205,2.2024,2.2078,2.1655,2.0688,2.0706,2.0497,1.9944,1.9224,1.8836,1.8836,1.8235,1.7774,1.7466,1.6775,1.6539,1.6627,0.0,0.0,0.0,0.0,0.0,0.0,0.0,0.0,0.0,0.0,0.0,0.0,0.0,0.0,0.0,0.0,0.0,0.0,0.0,0.0,0.0,0.0,0.0,0.0,0.0,0.0,0.0,0.0,0.0,0.0,0.0,0.0,0.0,0.0,0.0,0.0,0.0,0.0,0.0,0.0,0.0,0.0,0.0,0.0,0.0,0.0,0.0,0.0,0.0,0.0,0.0,0.0,0.0,0.0,0.0,0.0,0.0,0.0,0.0,0.0,0.0,0.0,0.0,0.0,0.0,0.0,0.0,0.0,0.0,0.0,1.0625,0.9482,0.0,0.0,0.0,0.0,0.0,0.0,0.0,0.0,0.0,0.0,0.0,0.0,0.0,0.0,0.0,0.0,0.0,0.0,0.0,0.0,0.0,2.1135,2.1928,2.1547,2.1664,2.2829,2.2857,2.3045,2.3475,2.3395,2.3052,2.2524,2.2455,2.2196,2.1644,2.0925,2.049,2.0394,1.9235,1.8566,1.8279,1.8113,1.8184,1.8341,1.7308,0.0,0.0,0.0,0.0,0.0,0.0,0.0,0.0,0.0,0.0,0.0,0.0,0.0,0.0,0.0,0.0,0.0,0.0,0.0,0.0,0.0,0.0,0.0,0.0,0.0,0.0,0.0,0.0,0.0,0.0,0.0,0.0,0.0,0.0,0.0,0.0,0.0,0.0,0.0,0.0,0.0,0.0,0.0,0.0,0.0,0.0,0.0,0.0,0.0,0.0,0.0,0.0,0.0,0.0,0.0,0.0,0.0,0.0,0.0,0.0,0.0,0.0,0.0,1.3853,1.3939,1.3891,1.374,1.3762,1.3768,1.1978,1.112,1.0973,0.9482,0.0,0.0,0.0,0.0,0.0,0.0,0.0,0.0,0.0,0.0,0.0,0.0,0.0,0.0,0.0,0.0,0.0,0.0,0.0,2.1515,2.3174,2.3269,2.3698,2.4902,2.5011,2.5009,2.5078,2.4509,2.3885,2.3268,2.3102,2.2732,2.2221,2.1472,2.0878,2.0394,1.9757,1.9977,2.0977,2.0196,1.9894,1.9831,1.8204,1.7726,1.8103,0.0,0.0,0.0,0.0,0.0,0.0,0.0,0.0,0.0,0.0,0.0,0.0,0.0,0.0,0.0,0.0,0.0,0.0,0.0,0.0,0.0,0.0,0.0,0.0,0.0,0.0,0.0,0.0,0.0,0.0,0.0,0.0,0.0,0.0,0.0,0.0,0.0,0.0,0.0,0.0,0.0,1.5992,1.658,0.0,0.0,0.0,0.0,0.0,0.0,0.0,0.0,0.0,0.0,0.0,0.0,0.0,1.3308,1.3219,1.4486,1.4987,1.4769,1.6089,1.6542,1.6252,1.6213,1.6219,1.6195,1.4829,0.0,1.2389,1.098,0.0,0.0,0.0,0.0,0.0,0.0,0.0,0.0,0.0,0.0,0.0,0.0,0.0,0.0,0.0,0.0,0.0,0.0,0.0,0.0,0.0,2.3252,2.3386,2.4247,2.43,2.4447,2.4818,2.4545,2.442,2.4516,2.4048,2.3651,2.3434,2.3118,2.2528,2.164,2.1386,2.104,2.0539,2.0138,1.9963,1.9939,1.917,1.8686,1.8344,1.775,0.0,0.0,0.0,0.0,0.0,0.0,0.0,0.0,0.0,0.0,0.0,0.0,0.0,0.0,0.0,0.0,0.0,0.0,0.0,0.0,0.0,0.0,0.0,0.0,0.0,0.0,0.0,0.0,0.0,0.0,0.0,0.0,0.0,0.0,0.0,0.0,0.0,0.0,0.0,1.6279,1.6667,1.6978,1.6891,1.6864,0.0,0.0,0.0,0.0,0.0,0.0,0.0,0.0,0.0,1.551,1.563,1.5743,1.5743,1.6333,1.6601,1.648,1.7121,1.7321,1.7201,1.7201,1.7201,1.7143,1.6613,1.596,1.5018,1.1959,1.0544,1.0168,0.0,0.0,0.0,0.0,0.8286,0.8153,0.0,0.0,0.0,0.0,0.0,0.0,0.0,0.0,0.0,0.0,0.0,0.0,2.4177,2.3658,2.3574,2.4381,2.4404,2.4522,2.4881,2.4885,2.5038,2.5408,2.4869,2.4567,2.4567,2.4273,2.3633,2.2603,2.2286,2.1433,2.0055,1.9875,1.9798,1.9798,1.9798,1.948,1.8884,1.8549,1.7963,1.7275,0.0,0.0,0.0,0.0,0.0,0.0,0.0,0.0,0.0,0.0,0.0,0.0,0.0,0.0,0.0,0.0,0.0,0.0,0.0,0.0,0.0,0.0,0.0,0.0,0.0,0.0,0.0,0.0,0.0,0.0,0.0,0.0,0.0,0.0,0.0,0.0,0.0,1.6811,1.7112,1.7192,1.7266,1.7286,0.0,0.0,0.0,0.0,0.0,0.0,1.7569,1.7582,1.7615,1.7689,1.7769,1.7776,1.7702,1.7702,1.7662,1.7582,1.7582,1.7582,1.7582,1.7582,1.7582,1.7582,1.7582,1.7375,1.6752,1.2869,1.1133,1.0724,0.905,0.8508,0.8733,0.8529,0.8487,0.8557,0.0,0.0,0.0,0.0,0.0,0.0,0.0,0.0,0.0,0.0,0.0,2.4547,2.5922,2.5413,2.5516,2.6883,2.7005,2.68,2.6318,2.6251,2.5987,2.5509,2.5406,2.5342,2.5342,2.4226,2.3291,2.2592,2.1439,2.0823,2.0734,2.0105,1.9798,1.9798,1.9798,2.0086,2.0493,1.9218,1.8981,1.9376,1.8663,0.0,0.0,0.0,0.0,0.0,0.0,0.0,0.0,0.0,0.0,0.0,0.0,0.0,0.0,0.0,0.0,0.0,0.0,0.0,0.0,0.0,0.0,0.0,0.0,0.0,0.0,0.0,0.0,0.0,0.0,0.0,0.0,0.0,0.0,0.0,0.0,0.0,0.0,1.7166,1.744,0.0,0.0,0.0,0.0,1.7582,1.7353,1.7326,1.7569,1.7582,1.7709,1.7983,1.8283,1.831,1.7969,1.7969,1.7876,1.7582,1.7582,1.7582,1.7582,1.7582,1.7582,1.7582,1.7582,1.7255,1.652,1.3789,1.2537,1.2024,0.9157,0.8794,0.9789,0.8726,0.9071,0.9902,0.0,0.0,0.0,2.1207,2.166,2.2271,2.2778,2.3606,2.4438,2.5106,2.4572,2.4295,2.4786,2.4193,2.3949,2.4442,2.449,2.4585,2.4779,2.5318,2.5766,2.6002,2.6075,2.5897,2.5471,2.4609,2.3897,2.3321,2.2879,2.2207,2.1366,2.1135,2.0818,2.0446,2.0446,2.0322,2.01,1.9614,1.9259,1.9,1.8729,1.8298,0.0,0.0,0.0,0.0,0.0,0.0,0.0,0.0,0.0,0.0,0.0,0.0,0.0,0.0,0.0,0.0,0.0,0.0,0.0,0.0,0.0,0.0,0.0,0.0,0.0,0.0,0.0,0.0,0.0,0.0,0.0,0.0,0.0,0.0,0.0,0.0,0.0,1.7415,1.7522,0.0,1.7494,1.7448,1.7582,1.7862,1.7602,1.7642,1.8143,1.817,1.8303,1.8591,1.8531,1.8531,1.8555,1.8182,1.7935,1.7883,1.7675,1.7582,1.7582,1.7582,1.7582,1.7582,1.7582,1.7355,1.6872,1.4922,1.3796,1.3078,1.0364,0.9558,0.9862,0.8596,0.8417,0.8711,2.2101,2.2101,0.0,2.1309,2.215,2.2998,2.3317,2.4332,2.5106,2.5315,2.4676,2.4218,2.4218,2.3583,2.324,2.3484,2.35,2.3706,2.4154,2.5223,2.6084,2.6611,2.6781,2.6406,2.5496,2.4844,2.4247,2.3674,2.3467,2.2898,2.2016,2.1805,2.1496,2.1088,2.1088,2.0868,2.0421,2.022,1.9722,1.9083,1.9303,1.9175,1.889,0.0,0.0,0.0,0.0,0.0,0.0,0.0,0.0,0.0,0.0,0.0,0.0,0.0,0.0,0.0,0.0,0.0,0.0,0.0,0.0,0.0,0.0,0.0,0.0,0.0,0.0,0.0,0.0,0.0,0.0,0.0,0.0,0.0,0.0,1.7911,1.7943,1.7487,1.7615,1.7662,1.7455,1.7588,1.7729,1.7969,1.7949,1.811,1.8611,1.8637,1.8771,1.9065,1.8891,1.8831,1.8925,1.8382,1.8089,1.7989,1.7736,1.7582,1.7582,1.7582,1.7582,1.7582,1.7582,1.7361,1.693,1.5904,1.5097,1.4268,1.1648,1.0921,1.1161,0.9801,0.9604,0.994,2.2296,2.2296,2.2149,2.1703,2.322,2.4367,2.3967,2.5514,2.6437,2.5744,2.4966,2.4491,2.4491,2.3831,2.3646,2.4372,2.4423,2.4522,2.4742,2.6051,2.6968,2.7283,2.7413,2.6851,2.5468,2.4894,2.429,2.3616,2.3031,2.274,2.2717,2.2077,2.1744,2.172,2.172,2.172,2.1649,2.1064,2.0446,1.99,2.0467,2.0261,1.973,0.0,0.0,0.0,0.0,0.0,0.0,0.0,0.0,0.0,0.0,0.0,0.0,0.0,0.0,0.0,0.0,0.0,0.0,0.0,0.0,0.0,0.0,0.0,0.0,0.0,0.0,0.0,0.0,0.0,0.0,0.0,0.0,0.0,1.8523,1.8755,1.852,1.7367,1.7675,1.7802,1.7273,1.7963,1.8364,1.8029,1.8337,1.8631,1.8918,1.8938,1.9065,1.9417,1.9424,1.9232,1.8945,1.8637,1.8343,1.8002,1.7736,1.7582,1.7582,1.7582,1.7582,1.7582,1.7582,1.7248,1.6707,1.6707,1.6359,1.5534,1.2963,1.2764,1.3734,1.2382,1.2716,1.3632,2.2296,2.2296,2.2268,2.212,2.3435,2.446,2.4351,2.5679,2.6623,2.642,2.5286,2.4491,2.4491,2.3359,2.2682,2.2885,2.2902,2.3148,2.3751,2.4728,2.5886,2.7168,2.7317,2.6915,2.6002,2.5363,2.4739,2.4163,2.4017,2.3721,2.3355,2.3172,2.2846,2.2429,2.2429,2.2146,2.1697,2.152,2.1352,2.1099,2.0361,2.042,2.0989,0.0,0.0,0.0,0.0,0.0,0.0,0.0,0.0,0.0,0.0,0.0,0.0,0.0,0.0,0.0,0.0,0.0,0.0,0.0,0.0,0.0,0.0,0.0,0.0,0.0,0.0,0.0,0.0,0.0,0.0,0.0,2.1333,2.0774,1.9077,1.8336,1.7873,1.7514,1.7609,1.7649,1.7475,1.7889,1.8223,1.8357,1.8644,1.8931,1.9232,1.9245,1.9279,1.9424,1.9424,1.9383,1.9245,1.8744,1.845,1.8364,1.7836,1.7582,1.7582,1.7582,1.7582,1.7582,1.7582,1.7248,1.6707,1.6707,1.6359,1.5635,1.3974,1.359,1.3734,1.2382,1.2139,1.2382,2.2296,2.2296,2.2398,2.2716,2.3729,2.4654,2.5143,2.6202,2.69,2.6747,2.5673,2.4793,2.4482,2.3394,2.262,2.249,2.2771,2.3227,2.3814,2.5213,2.6429,2.7395,2.7286,2.6882,2.6131,2.5506,2.5047,2.4752,2.4752,2.4471,2.3943,2.3943,2.3629,2.3076,2.3076,2.286,2.2478,2.2239,2.2123,2.203,2.1013,2.0978,2.1578,2.1794,2.1555,2.1134,2.1403,2.0787,1.9921,2.0506,0.0,0.0,0.0,0.0,0.0,0.0,0.0,0.0,0.0,0.0,0.0,0.0,0.0,0.0,0.0,0.0,0.0,0.0,0.0,0.0,0.0,0.0,0.0,0.0,2.2537,2.2202,2.0843,1.9697,1.8654,1.772,1.7582,1.7582,1.7582,1.7976,1.8303,1.8477,1.8878,1.9185,1.9417,1.9424,1.9424,1.9424,1.9424,1.9424,1.9424,1.8784,1.849,1.8484,1.7876,1.7582,1.7582,1.7582,1.7582,1.7582,1.7582,1.7248,1.6707,1.6707,1.6359,0.0,0.0,0.0,0.0,0.0,1.3547,1.3547,2.2485,2.2553,2.2821,2.3466,2.4241,2.5105,2.6103,2.6894,2.7223,2.6825,2.6052,2.5224,2.447,2.3679,2.3081,2.2784,2.3562,2.4295,2.4785,2.6826,2.7911,2.7689,2.7364,2.6829,2.6101,2.5598,2.5354,2.5297,2.5297,2.5028,2.4491,2.4491,2.4241,2.3773,2.3724,2.3702,2.3659,2.3054,2.2785,2.2762,2.2156,2.1841,2.1771,2.2154,2.1875,2.1338,2.1769,2.1506,2.089,2.0978,0.0,0.0,0.0,0.0,0.0,0.0,0.0,0.0,0.0,0.0,0.0,0.0,0.0,0.0,0.0,0.0,0.0,0.0,0.0,0.0,0.0,0.0,0.0,0.0,2.2862,2.3202,2.3102,2.1912,2.0287,1.806,1.7687,1.7595,1.7629,1.815,1.8504,1.8537,1.9052,1.9424,1.9424,1.9424,0.0,0.0,0.0,1.9424,1.9424,1.8784,1.849,1.8484,1.7876,1.7582,1.7582,1.7582,1.7582,1.7582,1.7582,1.7248,1.6707,1.6707,1.6359,1.5784,1.5784,1.5784,1.5784,1.5784,1.5784,1.5784,2.3646,2.4102,2.461,2.4749,2.5649,2.6437,2.6647,2.7317,2.7529,2.6812,2.6008,2.5194,2.4408,2.3655,2.3177,2.3105,2.4431,2.571,2.6766,2.8347,2.8561,2.6979,2.7399,2.7313,2.6573,2.647,2.6228,2.5852,2.5852,2.5577,2.5047,2.5047,2.4989,2.4855,2.443,2.4246,2.4204,2.3666,2.3421,2.3406,2.3282,2.2901,2.2365,2.1914,2.2215,2.2814,2.2351,2.2379,2.269,2.3188,2.2592,2.18,2.2669,2.2308,0.0,0.0,0.0,0.0,0.0,0.0,0.0,0.0,0.0,0.0,0.0,0.0,0.0,0.0,0.0,0.0,0.0,0.0,0.0,2.4862,2.4794,2.444,2.3677,2.2405,2.0961,1.9413,1.8244,1.7682,1.7876,1.8283,1.8591,1.8824,1.9165,1.9424,1.9424,1.9424,1.9424,1.9424,1.9424,1.9424,1.9424,1.8784,1.849,1.8484,1.7876,0.0,1.7582,1.7582,1.7582,1.7582,1.7582,1.7248,1.6707,1.6707,1.6359,1.5784,1.5784,1.5784,1.5784,1.5784,1.5784,1.5784,2.5472,2.5438,2.5481,2.5875,2.6431,2.6983,2.7518,2.7906,2.8085,2.7877,2.7157,2.6345,2.5528,2.5118,2.4658,2.4104,2.5381,2.6609,2.7578,2.8338,2.8225,2.7053,2.754,2.7494,2.6725,2.689,2.6791,2.6349,2.6349,2.6086,2.5596,2.5596,2.5465,2.5182,2.493,2.4796,2.4776,2.4496,2.4246,2.3991,2.3991,2.3635,2.3096,2.3055,2.3208,2.3447,2.3334,2.3476,2.37,2.3586,2.3089,2.2653,2.3504,2.3254,2.2708,0.0,0.0,0.0,0.0,0.0,0.0,0.0,0.0,0.0,0.0,0.0,0.0,0.0,0.0,2.4238,2.4658,0.0,2.5146,2.5371,2.54,2.5228,2.4786,2.3534,2.1904,1.9826,1.8401,1.7702,1.7962,1.8317,1.8611,1.8905,1.9199,1.9424,1.9424,1.9424,1.9424,1.9424,1.9424,1.9299,1.9145,1.8711,1.8417,1.8263,1.7802,1.7582,1.7582,1.7582,1.7582,1.7582,1.7582,1.7248,1.6687,1.6386,1.6044,1.5784,1.5784,1.5784,1.5784,1.5784,1.5784,1.5784,2.7338,2.6849,2.644,2.7001,2.7179,2.7525,2.8381,2.8527,2.8591,2.8732,2.8209,2.7493,2.6686,2.6602,2.6351,2.5749,2.6643,2.75,2.8184,2.8237,2.7996,2.7441,2.7739,2.756,2.6824,2.7131,2.7099,2.6691,2.6691,2.6505,2.6138,2.6138,2.5924,2.5486,2.5392,2.5354,2.5354,2.524,2.5029,2.4739,2.4497,2.4311,2.4205,2.4575,2.4309,2.3804,2.408,2.4209,2.4205,2.3543,2.3215,2.3208,2.3816,2.3821,2.3771,2.473,2.4805,0.0,0.0,0.0,0.0,0.0,0.0,0.0,0.0,2.3344,2.3539,2.4277,2.4482,2.4648,2.5047,2.5498,2.5713,2.5273,2.5576,2.5781,2.5703,2.4559,2.2876,2.0641,1.8961,1.8041,1.8096,1.835,1.8637,1.8985,1.9232,1.9424,1.9424,1.9424,1.9424,1.9424,1.9424,1.9225,1.8925,1.8637,1.8343,1.7989,1.7736,1.7582,1.7582,1.7582,1.7582,1.7575,1.7462,1.7141,1.666,1.6072,1.5784,1.5784,1.5784,1.5784,1.5784,1.5784,1.5784,1.5784,2.8636,2.8697,2.8536,2.8263,2.8518,2.8784,2.891,2.8929,2.8695,2.8026,2.7871,2.7493,2.6686,2.6602,2.7123,2.8427,2.8667,2.8937,2.9381,2.9409,2.894,2.7872,2.7883,2.7678,2.7239,2.7288,2.7099,2.6691,2.6691,2.6674,2.6624,2.6624,2.659,2.6522,2.6086,2.5906,2.587,2.5392,2.555,2.5998,2.4862,2.5118,2.6108,2.5664,2.5023,2.4348,2.3844,2.396,2.4292,2.4205,2.3679,2.3208,2.3816,2.4273,2.4694,2.4917,2.5289,2.5659,2.5712,2.6019,2.6179,2.5443,2.5253,2.5033,0.0,2.4268,2.4297,2.4394,2.4727,2.5057,2.5106,2.5752,2.6172,2.5684,2.6025,2.6182,2.5742,2.4559,2.3583,2.3285,2.0947,1.9153,1.8494,1.847,1.8718,1.9279,1.941,1.9424,1.9424,1.9424,1.9424,1.9424,1.9424,1.9225,1.8925,1.8637,1.8343,1.7989,1.7736,1.7582,1.7582,1.7582,1.7582,1.7555,1.7027,1.6767,1.666,1.6072,1.5784,1.5784,1.5784,1.5784,1.5784,1.5784,1.5784,1.5784,2.8748,2.9005,2.894,2.8773,2.8893,2.9005,2.9005,2.9005,2.8877,2.8528,2.8503,2.8191,2.7383,2.7291,2.7952,2.9555,2.9702,2.9765,2.9953,2.9958,2.9424,2.8246,2.843,2.8255,2.7663,2.7648,2.7439,2.7051,2.6808,2.6691,2.6691,2.6691,2.6691,2.6708,2.694,2.7054,2.7053,2.7306,2.7413,2.7333,2.6445,2.6251,2.6435,2.584,2.5649,2.5732,2.5835,2.6004,0.0,2.5148,2.4619,2.4283,2.4059,2.4381,2.4998,2.6052,2.6721,2.7299,2.7953,2.8007,2.7706,2.7118,2.6681,2.6066,2.4916,2.4642,2.4583,2.4444,2.456,2.4844,2.5361,2.5967,2.6328,2.6143,2.6475,2.6602,2.6172,2.5599,2.488,2.3818,2.2676,2.1382,1.9808,1.9545,1.9402,1.9421,1.9205,1.9185,1.9417,1.9424,1.9424,1.9424,1.9199,1.8971,1.8677,1.8377,1.8076,1.7776,1.7642,1.7582,1.7582,1.7582,1.7488,1.736,1.6887,1.6607,1.642,1.5999,1.5784,1.5784,1.5784,1.5784,1.5784,1.5784,1.5784,1.5784,2.8767,2.9005,2.9005,2.9005,2.9005,2.9005,2.9005,2.9005,2.9005,2.9005,2.9005,2.8785,2.8191,2.8136,2.8686,3.0081,3.021,3.021,3.021,3.021,2.9716,2.8614,2.8839,2.87,2.8047,2.8034,2.7957,2.7799,2.7393,2.7266,2.7504,2.7386,2.7317,2.7368,2.7892,2.8128,2.818,2.8738,2.8893,2.8666,2.7883,2.7455,2.7201,2.6413,2.6561,2.7195,2.7448,2.752,2.7322,2.621,2.5649,2.5304,2.4561,2.4615,2.5335,2.6841,2.7783,2.8549,2.9528,2.933,2.8727,2.8235,2.7708,2.7012,2.558,2.5105,2.4927,2.4726,2.451,2.4648,2.541,2.6006,2.6387,2.6387,2.6846,2.7002,2.6465,2.6387,2.5902,2.4607,2.4421,2.3755,2.2011,2.11,2.0647,2.0644,1.9912,1.9601,1.9961,1.9649,1.939,1.9252,1.9038,1.8744,1.837,1.8102,1.7889,1.7582,1.7582,1.7582,1.7582,1.7502,1.74,1.7179,1.6747,1.6466,1.6253,1.5952,1.5784,1.5784,1.5784,1.5784,1.5784,1.5784,1.5784,1.5784,2.8987,2.9005,2.9005,2.9005,2.9005,2.9005,2.9005,2.9005,2.9005,2.9005,2.9005,2.8987,2.8968,2.8968,2.9299,3.0136,3.021,3.021,3.021,3.021,2.9831,2.903,2.8994,2.8815,2.8394,2.8376,2.8596,2.9039,2.857,2.8743,2.9503,2.9107,2.8925,2.8925,2.8959,2.8959,2.8976,2.8993,2.9397,2.993,2.8685,2.8632,2.9173,2.7927,2.7902,2.8457,2.7829,2.7553,2.7474,2.7446,2.6841,2.5937,2.5274,2.5286,2.5799,2.6942,2.8059,2.9001,2.9628,2.9352,2.8785,2.8215,2.8068,2.7787,2.6689,2.5925,2.5359,2.539,2.4871,2.4551,2.501,2.5801,2.6387,2.6387,2.71,2.7405,2.6504,2.6387,2.6387,2.6317,2.6317,2.6063,2.5298,2.3311,2.2507,2.3572,2.1886,2.1011,2.1506,2.0206,1.9232,1.8945,1.8925,1.8644,1.8009,1.7995,1.7889,1.7582,1.7582,1.7582,1.7569,1.734,1.7206,1.7166,1.6583,1.6328,1.6253,1.5952,1.5784,1.5784,1.5784,1.5784,1.5784,1.5784,1.5784,1.5784,2.8586,2.8973,2.9301,2.9446,2.9345,2.9267,2.9267,2.9112,2.9055,2.9235,2.989,0.0,0.0,0.0,0.0,0.0,3.0999,3.0999,3.0999,3.0999,3.0632,2.9831,2.928,2.9197,2.9594,2.9326,2.9553,3.0284,2.9872,2.9639,2.9589,2.9454,2.9264,2.9027,2.9499,2.9989,3.0465,3.0465,3.1444,3.2823,3.051,3.034,3.1271,2.9501,2.8984,2.9215,0.0,2.9518,2.9346,2.8419,2.8183,2.7993,2.6317,2.6332,2.7085,2.7672,2.8624,2.9465,2.9277,2.9365,2.9464,2.9277,2.9236,2.8949,2.7815,2.7365,2.6827,2.5645,2.5478,2.5452,2.5169,2.5791,2.6484,2.6758,2.7295,2.762,2.7275,2.7236,2.7129,2.6836,2.6807,2.6817,2.6941,2.4902,2.3608,2.3795,2.2715,2.237,2.3007,2.2337,2.1888,2.1773,2.0423,1.9614,1.9398,1.8302,1.7689,1.7582,1.7582,1.7534,1.734,1.7246,1.6991,1.661,1.6409,1.6159,1.5972,1.5872,1.5784,1.5784,1.5784,1.5784,1.5784,1.5784,1.5784,1.5784,2.8586,2.8952,2.9291,2.9426,2.9334,0.0,0.0,0.0,0.0,0.0,0.0,0.0,0.0,0.0,0.0,0.0,0.0,3.1091,3.1378,3.1397,3.1176,3.065,3.0136,3.0099,3.0613,3.0378,3.0656,3.1511,3.1092,3.0812,3.0623,3.0455,3.0314,3.0194,3.0666,3.1292,3.1968,3.1698,3.2408,3.3554,3.1734,3.1464,3.1956,3.0704,3.023,0.0,3.0211,3.0477,3.0677,2.9557,2.926,2.91,2.7695,2.7601,2.809,2.8476,2.8895,2.9151,2.8938,2.9202,2.9528,2.9741,2.9792,2.9624,2.8858,2.8386,2.7777,2.6612,2.6086,2.5785,2.5526,2.5964,2.6523,2.6943,2.751,2.7832,2.7738,2.7718,2.7611,2.7285,2.7246,2.7412,2.7851,2.6484,2.5509,2.5428,2.4306,2.3951,2.4565,2.3703,2.3127,2.305,2.1573,2.0746,2.0666,1.9576,1.8805,1.8297,1.7838,1.7481,1.7199,1.7092,1.6777,1.6315,1.6159,1.6005,1.5784,1.5784,1.5784,1.5784,1.5784,1.5784,1.5784,1.5784,1.5784,1.5784,2.8966,2.9003,2.901,0.0,0.0,0.0,0.0,0.0,0.0,0.0,0.0,0.0,0.0,0.0,0.0,0.0,0.0,0.0,3.1415,3.147,3.147,3.147,3.1415,3.1433,3.1525,3.1525,3.1935,3.2784,3.2381,3.2327,3.2625,3.2144,3.2065,3.2361,3.2361,3.2784,3.3406,3.2682,3.2412,3.2513,3.2395,3.2052,3.1616,3.1611,3.1659,3.1522,3.0268,3.0582,3.1496,3.0761,2.9999,2.9361,2.9418,2.9038,2.8707,2.9341,2.8928,2.8297,2.8787,2.8913,2.9063,2.9654,2.9792,2.9792,2.9792,2.8976,2.8176,2.8124,2.6738,2.5625,2.5999,2.6215,2.6494,2.6914,2.7685,2.8105,2.7796,2.7748,2.7748,2.7748,2.7748,2.7851,2.8252,2.793,2.7861,2.8262,2.6561,2.572,2.6164,2.4387,2.3257,2.2892,2.243,2.2066,2.1803,2.1744,2.1041,1.9679,1.8387,1.761,1.7364,1.6965,1.6626,1.633,1.5952,1.5784,1.5784,1.5784,1.5784,1.5784,1.5784,1.5784,1.5784,1.5784,1.5784,1.5784,0.0,0.0,0.0,0.0,0.0,0.0,0.0,0.0,0.0,0.0,0.0,0.0,0.0,0.0,0.0,0.0,0.0,0.0,3.2271,3.2302,3.2302,3.2302,3.1715,3.1966,3.3164,3.3183,3.3899,3.5367,3.4848,3.4478,3.4217,3.373,3.3368,3.3119,3.3119,3.3525,3.4167,3.3423,3.41,3.5509,3.3795,3.3693,3.4426,3.3388,3.3004,3.2977,3.2634,3.2706,3.2736,3.1061,3.0293,3.0182,3.1101,3.0498,2.9577,3.0033,2.9945,2.9548,2.9025,2.9239,2.9616,2.9754,2.9792,2.9792,2.9792,2.9585,2.9118,2.8267,2.7554,2.6791,2.5765,2.5742,2.6045,2.6475,2.6992,2.7529,2.8057,2.8135,2.8135,2.8135,2.8135,2.8174,2.8281,2.8193,2.8174,2.8281,2.7564,2.7161,2.7266,2.6489,2.5858,2.5455,2.4052,2.3282,2.3176,2.2206,2.1499,2.1143,2.0466,1.9967,1.9679,1.8342,1.7599,1.7294,1.6238,1.5784,1.5784,1.5784,1.5784,1.5784,1.5784,1.5784,1.5784,1.5784,1.5784,1.5784,0.0,0.0,0.0,0.0,0.0,0.0,0.0,0.0,0.0,0.0,0.0,0.0,0.0,0.0,0.0,0.0,0.0,0.0,0.0,3.2601,3.2815,3.333,3.2778,3.3103,3.451,3.4773,3.5245,3.5945,3.6005,3.5505,3.4492,3.4225,3.4017,3.388,3.388,3.4286,3.4928,3.4201,3.4624,0.0,0.0,3.4381,3.5015,3.4267,3.3948,3.3893,3.3622,3.3305,3.2931,3.2093,3.156,3.1379,3.2066,3.1616,3.0876,3.0963,3.0681,3.0082,2.9138,2.9352,2.9792,2.9792,2.9792,2.9854,3.0093,3.0156,3.0049,2.9613,2.9206,2.8402,2.678,2.7066,2.7303,2.6537,2.7331,2.8121,2.83,2.8291,2.8291,2.8291,2.8291,2.8291,2.8291,2.8291,2.8291,2.8291,2.8076,2.7914,2.7728,2.7246,2.6826,2.6396,2.5189,2.4559,2.4559,2.3226,2.2481,2.2259,2.1403,2.0736,2.0274,1.9328,1.873,1.8457,1.7708,1.7436,1.7436,1.7436,1.7436,1.7436,1.7436,1.7117,1.6622,1.6622,1.6292,1.5784,0.0,0.0,0.0,0.0,0.0,0.0,0.0,0.0,0.0,3.0728,3.144,3.2299,3.3344,3.3254,0.0,0.0,0.0,0.0,0.0,0.0,3.3055,3.4159,3.3931,3.4342,3.5524,3.5999,3.6069,3.574,3.6356,3.59,3.4399,3.432,3.4418,3.4641,3.4641,3.5013,3.5549,3.4928,3.4641,3.4658,3.4759,3.4726,3.4652,0.0,3.4774,3.4549,3.397,3.3335,3.2841,3.3335,3.3051,3.2542,3.2721,3.2576,3.2349,3.214,3.136,3.0375,2.9438,2.9517,2.9792,2.9792,2.9792,2.9942,3.0495,3.062,3.0758,3.1286,3.087,2.9859,2.8157,2.8936,2.9121,2.6951,2.8125,2.9157,2.8618,2.8388,2.8291,2.8291,2.8291,2.8291,2.8291,2.8291,2.8291,2.8291,2.8242,2.8027,2.765,2.7168,2.6738,2.6318,2.5937,2.5693,2.5693,2.4503,2.3684,2.3232,2.1993,2.1021,2.0399,2.0209,1.997,1.9716,1.9588,1.9497,1.9497,1.9497,1.9497,1.9497,1.9497,1.8864,1.7917,1.7777,1.699,1.6015,0.0,0.0,0.0,0.0,0.0,0.0,2.9886,2.9822,3.0197,3.1569,3.2161,3.279,3.3633,3.3687,0.0,0.0,0.0,0.0,0.0,0.0,0.0,3.3683,3.3678,3.4318,3.5811,3.5919,3.6292,3.6913,3.6601,3.6301,3.5994,3.5548,3.5367,3.5397,3.5397,3.5481,3.5583,3.5447,3.5397,3.5464,3.6129,3.6004,3.5472,3.6104,3.5925,0.0,3.5175,3.4711,3.4099,3.3649,3.3051,3.2706,3.3784,3.3735,3.3321,3.3556,3.2548,3.1295,3.0903,3.0304,2.9792,2.9792,2.9792,2.9942,3.0495,3.062,3.0758,3.1286,3.087,2.9797,2.7759,2.8208,2.8549,2.76,2.7942,2.8674,2.9787,2.9006,2.8291,2.8291,2.8291,2.8291,2.8291,2.8291,2.8291,2.8291,2.7969,2.7588,2.7148,2.6728,2.6299,2.5859,2.5732,2.5693,2.5693,2.516,2.4842,2.4707,2.3773,2.3271,2.3074,2.169,2.1042,2.0935,1.9943,1.9497,1.9497,1.9497,1.9497,1.9497,1.9497,1.936,1.9093,1.8048,1.7552,1.7225,0.0,0.0,0.0,0.0,0.0,0.0,2.9761,2.989,3.0457,3.2012,3.2752,3.327,3.3646,3.4045,3.4361,0.0,0.0,0.0,0.0,0.0,0.0,3.4416,3.4269,3.4798,3.6132,3.6419,3.6632,3.6783,0.0,3.6688,3.5985,3.5717,3.56,3.5577,3.523,3.5075,3.5052,3.4704,3.4752,3.5118,3.5497,3.5649,3.562,3.5957,3.5856,0.0,3.5499,3.5055,3.4518,3.4532,3.4098,3.3649,3.4309,3.4502,3.4552,3.453,3.3388,3.1987,3.1359,3.052,2.9792,2.9792,2.9792,3.0005,3.0834,3.1022,3.126,3.2102,3.2029,3.1246,2.9375,3.0083,3.0299,2.8305,2.9121,2.9833,2.9319,2.9058,2.8745,2.8368,2.8291,2.8291,2.8291,2.8291,2.8203,2.7988,2.7568,2.7236,2.7021,2.6406,2.5908,2.5693,2.5693,2.5577,2.5391,2.5223,2.4891,2.4404,2.3984,2.3672,2.3393,2.2587,2.2262,2.2217,2.1632,2.1364,2.1364,2.1364,2.1364,2.1364,2.1364,2.0989,2.035,1.9807,1.9177,1.8449,0.0,0.0,0.0,0.0,0.0,0.0,2.9574,2.9899,3.0643,3.2299,3.3125,3.3615,3.379,3.4339,3.4729,0.0,0.0,0.0,0.0,0.0,0.0,0.0,3.4805,3.5081,3.5989,0.0,0.0,3.6012,3.6785,0.0,0.0,0.0,0.0,0.0,3.4847,3.453,3.4358,3.3836,3.3993,0.0,0.0,3.5131,3.5584,0.0,0.0,0.0,0.0,3.516,3.4756,3.516,3.5026,3.4728,3.4728,3.516,3.5594,3.4951,3.3861,3.258,3.1489,3.052,2.9792,2.9792,2.9792,3.0068,3.1148,3.1386,3.1712,3.2885,3.3124,3.2592,3.0915,3.1872,3.2008,2.9338,3.0348,3.0997,2.9591,2.9539,2.9467,2.8807,2.8751,2.8601,2.8344,2.8213,2.8018,2.7738,2.7178,2.6846,2.6748,2.6054,2.5693,2.5693,2.5644,2.543,2.5116,2.493,2.4463,2.3789,2.3691,2.3467,2.3091,2.3091,2.3091,2.3091,2.3091,2.3091,2.3091,2.3091,2.3091,2.3091,2.3091,2.2536,2.1658,2.1391,2.0711,1.9716,0.0,0.0,0.0,0.0,0.0,0.0,2.9925,2.9815,3.0387,3.2641,3.3222,3.3671,3.4334,3.4577,3.4848,0.0,0.0,0.0,0.0,0.0,0.0,0.0,0.0,0.0,0.0,0.0,0.0,3.4788,3.546,0.0,0.0,0.0,0.0,0.0,0.0,3.4252,3.3684,3.3633,0.0,0.0,0.0,0.0,0.0,0.0,0.0,0.0,0.0,3.5459,3.5325,3.4788,3.4951,3.5415,3.5415,3.5863,3.6101,3.4559,3.3818,3.3152,3.1609,3.052,2.9792,2.9792,2.9792,3.0068,3.1148,3.1386,3.1712,3.2885,3.3124,3.2592,3.0915,3.1509,3.2029,3.1223,3.0537,3.0778,3.2752,3.1416,3.0224,3.011,3.012,2.966,2.8398,2.7949,2.7757,2.7718,2.6914,2.6269,2.583,2.5732,2.5693,2.5693,2.5342,2.5155,2.5116,2.4297,2.3867,2.3779,2.3389,2.314,2.3091,2.3091,2.3091,2.3091,2.3091,2.3091,2.3091,2.3091,2.3091,2.3091,2.3091,2.3047,2.2818,2.1702,2.1248,2.098,0.0,0.0,0.0,0.0,0.0,0.0,2.956,2.9455,3.0166,3.2881,3.3328,3.3863,3.5047,3.4859,3.4882,3.5424,3.481,0.0,0.0,0.0,0.0,0.0,0.0,0.0,0.0,0.0,3.5074,3.5213,3.5473,0.0,0.0,0.0,0.0,0.0,0.0,3.3807,3.3513,3.3119,0.0,0.0,0.0,0.0,0.0,0.0,0.0,0.0,0.0,0.0,3.5459,3.519,3.528,3.5504,3.5504,3.5953,3.6365,3.5718,3.4689,3.3586,3.2376,3.1365,3.052,2.9934,2.9792,3.0068,3.1148,3.1386,3.1712,3.2885,3.3124,3.292,3.2241,3.2461,3.2506,3.1807,3.2024,3.1935,3.0811,3.0647,3.0489,2.9979,2.9219,2.8813,2.9115,2.8267,2.7503,2.6934,2.6338,2.5918,2.5703,2.5693,2.5693,2.5693,2.5303,2.4941,2.4678,2.4092,2.3662,2.3398,2.3179,2.3091,2.3091,2.3091,2.3091,2.3091,2.3091,2.3091,2.3091,2.3091,2.3091,2.3091,2.3091,2.3091,2.3047,2.2536,2.2403,2.2217,0.0,0.0,0.0,0.0,0.0,2.7631,2.9111,2.9157,2.9983,3.2748,3.3096,3.3583,3.4878,3.4592,3.4578,3.5234,3.4683,0.0,0.0,0.0,0.0,0.0,0.0,0.0,0.0,0.0,3.4802,3.5271,3.5462,3.5571,0.0,0.0,3.5462,3.5227,0.0,0.0,0.0,0.0,0.0,0.0,0.0,0.0,0.0,0.0,0.0,0.0,0.0,0.0,0.0,0.0,0.0,3.5804,3.5804,3.5983,3.6159,3.5863,3.5073,3.3982,3.2577,3.1706,3.097,3.0037,2.9917,3.0281,3.1185,3.1512,3.1901,3.2923,3.3124,3.3124,3.3124,3.3124,3.2922,3.2329,3.2849,3.2666,3.0796,3.1191,3.1521,3.1135,3.0075,2.9493,2.9697,2.8268,2.6982,2.625,2.5908,2.5693,2.5693,2.5605,2.5537,2.5537,2.5107,2.4668,2.4238,2.3809,2.3437,2.3091,2.3091,2.3091,2.3091,2.3091,2.3091,2.3091,2.3091,2.3091,2.3091,2.3091,2.3091,2.3091,2.3091,2.3091,2.3091,2.3091,2.3091,2.3003,0.0,0.0,0.0,0.0,0.0,2.7233,2.8756,2.8993,2.9813,3.2127,3.2399,3.2733,3.354,3.3608,3.3896,3.4558,3.3998,0.0,0.0,0.0,0.0,0.0,0.0,0.0,0.0,0.0,3.4497,3.452,3.5177,3.5507,3.5507,3.5507,3.5147,3.452,0.0,0.0,0.0,0.0,0.0,0.0,0.0,0.0,3.5504,0.0,0.0,0.0,0.0,0.0,0.0,0.0,0.0,0.0,0.0,3.6028,3.5326,3.4327,3.4473,3.4455,3.1904,3.1217,3.097,3.0037,3.0206,3.0746,3.1273,3.1813,3.2365,3.2955,3.3124,3.3124,3.3124,3.3124,3.3081,3.3081,3.2414,3.2575,3.44,3.3973,3.3671,3.4265,3.3801,3.2434,2.9939,2.7723,2.6221,2.5732,2.5693,2.5693,2.5693,2.5322,2.5125,2.5125,2.4648,2.4219,2.3799,2.3315,2.3101,2.3091,2.3091,2.3091,2.3091,2.3091,2.3091,2.3091,2.3091,2.3091,2.3091,2.3091,2.3091,2.3091,2.3091,2.3091,2.3091,2.3091,2.3091,2.3091,0.0,0.0,0.0,0.0,0.0,0.0,2.7695,2.8229,2.9318,3.1489,3.1772,3.2249,3.3463,3.3566,3.3603,3.3822,3.365,0.0,0.0,0.0,0.0,0.0,0.0,0.0,0.0,3.4152,3.4708,3.5175,3.54,3.5504,3.5504,3.5504,3.5385,3.516,3.4713,3.4399,0.0,0.0,0.0,0.0,3.5594,3.5774,3.6133,0.0,0.0,0.0,0.0,0.0,0.0,0.0,0.0,0.0,0.0,0.0,0.0,3.6304,3.6191,3.582,3.4775,3.3947,3.3165,3.2201,3.1557,3.1286,3.1825,3.2089,3.2378,3.2998,3.3124,3.3124,3.3124,3.3124,3.3124,3.3124,3.3202,3.3211,3.2965,3.3323,3.3815,3.4376,3.397,3.2638,3.0134,2.9033,2.8057,2.7088,2.6982,2.662,2.5732,2.5312,2.5116,2.5116,2.4365,2.3926,2.3789,2.3315,2.3091,2.3091,2.3091,2.3091,2.3091,2.3091,2.3091,2.3091,2.3091,2.3091,2.3091,2.3091,2.3091,2.3091,2.3091,2.3091,2.3091,2.3091,2.3091,2.3091,0.0,0.0,0.0,0.0,0.0,0.0,2.7529,2.8041,2.8991,3.0877,3.1121,3.1558,3.2696,3.3008,3.323,3.349,3.3735,0.0,0.0,0.0,0.0,0.0,0.0,0.0,3.3484,3.4174,3.4816,3.5504,3.5504,3.5504,3.5504,3.5504,3.5504,3.5489,3.5055,3.4861,0.0,0.0,0.0,0.0,3.5669,3.5744,3.6073,0.0,0.0,0.0,0.0,0.0,0.0,0.0,0.0,0.0,0.0,0.0,0.0,0.0,3.6895,3.6441,3.5604,3.4627,3.358,3.262,3.2054,3.1788,3.2127,3.239,3.2641,3.3006,3.3124,3.3124,3.3124,3.3124,3.3124,3.3124,3.337,3.3457,3.3113,3.3825,3.4494,3.4857,3.3982,3.2618,3.064,2.9805,2.9096,2.8319,2.8272,2.7823,2.6878,2.6367,2.5865,2.5207,2.428,2.3711,2.3545,2.3227,2.3091,2.3091,2.3091,2.3091,2.3091,2.3091,2.3091,2.3091,2.3091,2.3091,0.0,2.3091,2.3091,2.3091,2.3091,2.3091,2.3091,2.3091,2.3091,2.3091,0.0,0.0,0.0,0.0,0.0,0.0,0.0,2.823,2.8783,3.0227,3.0454,3.0715,3.1419,3.2123,3.2826,3.344,3.4174,0.0,0.0,0.0,0.0,0.0,0.0,0.0,3.3559,3.4249,3.4861,3.5504,3.5504,3.5504,3.5504,3.5504,3.5504,3.5504,3.5504,3.5504,0.0,0.0,0.0,0.0,3.5549,3.5564,0.0,0.0,0.0,0.0,0.0,0.0,0.0,0.0,0.0,0.0,0.0,0.0,0.0,0.0,0.0,0.0,0.0,3.3702,3.2725,3.1853,3.1971,3.2277,3.2277,3.2692,0.0,3.3124,3.3124,3.3124,3.3174,3.3149,3.3106,3.3181,3.3174,3.347,3.4625,3.5207,3.552,3.5445,3.4025,3.2584,3.1463,3.0316,2.9636,2.9544,2.951,2.9195,2.8656,2.812,2.7151,2.5555,2.4533,2.3723,2.3101,2.3091,2.3091,2.3091,2.3091,2.3091,2.3091,2.3091,2.3091,2.3091,2.3091,2.3091,2.3091,2.3091,2.3091,2.3091,2.3091,2.3091,2.3091,2.3091,2.3091,2.3091,0.0,0.0,0.0,0.0,0.0,0.0,0.0,0.0,0.0,0.0,2.9818,3.025,3.139,3.2572,3.332,0.0,0.0,0.0,0.0,0.0,0.0,0.0,0.0,0.0,3.4279,3.4921,3.534,3.5504,3.5504,3.5504,3.5504,3.5504,3.5504,3.5504,3.5504,3.5504,0.0,0.0,0.0,0.0,3.5893,3.6088,0.0,0.0,0.0,0.0,3.5504,3.5609,0.0,0.0,0.0,0.0,0.0,0.0,0.0,0.0,3.6462,3.509,3.4714,0.0,3.4214,3.3981,3.3405,3.2867,0.0,3.298,3.3124,3.3124,3.3124,3.3206,3.3633,3.337,3.3357,3.4198,3.3633,3.3608,3.5094,3.583,3.5855,3.4969,3.4516,3.3859,3.2767,3.2382,3.1833,3.0855,3.0402,2.9725,2.8679,2.7752,2.7099,2.6732,2.6168,2.4966,2.3135,2.3091,2.3091,2.3091,2.3091,2.3091,2.3091,2.3091,2.3091,2.3091,2.3091,2.3091,2.3091,2.3091,2.3091,2.3091,2.3091,2.3091,2.3091,2.3091,2.3091,2.3091,0.0,0.0,0.0,0.0,0.0,0.0,0.0,0.0,0.0,0.0,2.9606,3.0088,3.1361,3.2706,3.3499,0.0,0.0,0.0,0.0,0.0,0.0,0.0,0.0,3.4503,3.4503,3.4712,3.4806,3.4806,3.4375,3.4409,3.4806,3.4375,3.4639,3.5472,3.5019,3.5067,0.0,0.0,3.5663,3.6896,3.5908,0.0,0.0,0.0,0.0,0.0,3.5504,3.5504,0.0,3.5923,3.6237,3.6656,0.0,0.0,0.0,0.0,3.6632,3.5895,3.4938,3.4541,3.434,3.434,3.3895,3.3458,3.3458,3.3257,3.3124,3.3124,3.3124,3.3212,3.347,3.3483,3.3658,3.4248,3.406,3.4236,3.5332,3.5805,3.568,3.4781,3.45,3.401,3.3156,3.3124,3.2685,3.173,3.1406,3.0719,2.9603,2.8993,2.8363,2.7559,2.7347,2.6419,2.4681,2.4135,2.3877,2.3877,2.3343,2.3091,2.3091,2.3091,2.3091,2.3091,2.3091,2.3091,2.3091,2.3091,2.3091,2.3091,2.3091,2.3091,2.3091,2.3091,2.3091,2.3091,0.0,0.0,0.0,0.0,0.0,0.0,0.0,0.0,0.0,0.0,0.0,0.0,0.0,0.0,0.0,0.0,0.0,0.0,0.0,0.0,0.0,0.0,3.4416,3.4352,3.4209,3.3922,3.3817,3.3917,3.3038,3.3038,3.3882,3.3003,3.3463,3.5034,3.4177,3.4327,3.5213,3.4211,3.4782,3.635,3.5411,0.0,0.0,0.0,0.0,0.0,0.0,0.0,0.0,3.5504,3.6013,3.6716,3.724,0.0,0.0,0.0,0.0,0.0,3.5413,3.4744,3.4474,3.4103,3.4085,3.4079,3.3828,3.3525,3.3313,3.3111,3.3124,3.3217,3.3541,3.3764,3.3991,3.4376,3.4596,3.4781,3.5082,3.5194,3.5044,3.4537,3.406,3.3583,3.3119,3.3006,3.2742,3.2252,3.2064,3.1574,3.067,3.0532,2.9836,2.8398,2.8347,2.7896,2.7017,2.5714,2.5041,2.5041,2.3887,2.3343,2.3343,2.3178,2.3091,2.3091,2.3091,0.0,2.3091,2.3091,2.3091,2.3091,2.3091,2.3091,2.3091,2.3091,2.3091,2.3091,0.0,0.0,0.0,0.0,0.0,0.0,0.0,0.0,0.0,0.0,0.0,0.0,0.0,0.0,0.0,0.0,0.0,0.0,0.0,0.0,0.0,3.4134,3.41,3.3699,3.2926,3.2835,3.3034,3.3512,3.2891,3.2905,3.3498,3.2878,3.2749,3.3031,3.289,3.3345,3.4177,3.3206,3.4023,3.5819,3.3825,0.0,0.0,0.0,0.0,0.0,0.0,0.0,0.0,3.5504,3.6282,3.7285,3.7375,0.0,0.0,0.0,0.0,0.0,3.6053,3.6675,3.7012,3.5046,3.4926,3.492,3.351,3.3849,3.4191,3.3283,3.3124,3.3677,3.5613,3.4858,3.454,3.6444,3.5603,3.4424,3.3571,3.3859,3.3947,3.3395,3.3257,3.3212,3.3124,3.2641,3.2303,3.2227,3.1373,3.0783,3.062,3.0168,2.9789,2.9546,2.9534,2.9456,2.93,2.7261,2.6224,2.6224,2.5083,2.4542,2.45,2.3551,2.3091,2.3091,0.0,2.3091,2.3091,2.3091,2.3091,2.3091,2.3091,2.3091,2.3091,2.3091,2.3091,2.3091,0.0,0.0,0.0,0.0,0.0,0.0,0.0,0.0,0.0,0.0,0.0,0.0,0.0,0.0,0.0,0.0,0.0,0.0,0.0,0.0,3.3498,3.2522,3.25,3.2522,3.2593,3.2105,3.195,3.2219,3.1474,3.1474,3.2219,3.248,3.2321,3.1852,3.1852,3.2357,3.3185,3.2554,3.3344,3.5006,0.0,0.0,0.0,0.0,0.0,0.0,0.0,0.0,0.0,0.0,3.6133,3.6971,3.73,0.0,0.0,0.0,0.0,0.0,3.7214,3.7724,3.8084,3.6712,3.6866,3.7223,3.6458,3.6191,3.5899,3.5417,3.5027,3.5232,3.663,3.62,3.5883,3.6643,3.5602,3.4449,3.3633,3.3746,3.3696,3.3144,3.3124,3.2955,3.2641,3.2365,3.1976,3.1399,3.0896,3.0482,3.0181,2.993,2.9792,2.9792,2.9792,2.9792,2.9792,2.8791,2.7959,2.736,2.6254,2.5724,2.5672,2.4553,2.4006,2.3963,0.0,2.3091,2.3091,2.3091,2.3091,2.3091,2.3091,2.3091,2.3091,2.3091,2.3091,2.3091,0.0,0.0,0.0,0.0,0.0,0.0,0.0,0.0,0.0,0.0,0.0,0.0,0.0,0.0,0.0,0.0,0.0,0.0,0.0,3.2947,3.2177,3.1254,3.1217,3.1426,3.1938,3.1254,3.0936,3.1066,3.0203,3.0241,3.1066,3.1787,3.1816,3.1262,3.1262,3.1763,3.2613,3.2089,3.2759,3.4192,0.0,0.0,0.0,0.0,0.0,0.0,0.0,0.0,0.0,0.0,0.0,0.0,0.0,0.0,0.0,3.8274,3.8745,3.9228,3.8383,3.8609,3.8942,3.8341,3.8439,3.8644,3.8394,3.7686,3.7069,3.6982,3.6583,3.647,3.7388,3.7514,3.7099,3.5913,3.5172,3.4483,3.3803,3.3709,3.3508,3.2943,3.288,3.2654,3.2077,3.1913,3.1499,3.067,3.0495,3.0231,2.9817,2.9792,2.9792,2.9792,2.9792,2.9792,2.9792,2.9792,2.9365,2.8478,2.7412,2.6883,2.6842,2.5714,2.521,2.5168,2.4264,2.3887,2.3887,2.3887,2.3724,2.3507,2.3507,2.3343,2.3091,2.3091,2.3091,2.3091,0.0,0.0,0.0,0.0,0.0,0.0,0.0,0.0,0.0,0.0,0.0,0.0,0.0,0.0,0.0,0.0,0.0,0.0,0.0,3.236,3.2177,3.1254,3.1217,3.0833,2.9998,2.9934,3.0147,3.0624,3.0082,3.0094,3.0624,3.0691,3.0956,3.1395,3.1395,3.1907,3.2738,3.1851,3.2358,3.362,3.2173,0.0,0.0,0.0,0.0,0.0,0.0,0.0,0.0,0.0,0.0,0.0,0.0,0.0,3.9313,3.9286,3.9337,3.9388,3.9301,3.9778,4.0122,3.9465,3.8522,3.7542,3.6603,3.6644,3.6712,3.6353,3.6225,3.6707,3.8364,3.8687,3.7648,3.4566,3.4418,3.4337,3.3303,3.3174,3.2918,3.234,3.2277,3.2051,3.1499,3.1022,3.0696,3.062,3.0143,2.9829,2.9792,2.9792,2.9792,2.9792,2.9792,2.9792,2.9792,2.9792,2.9753,2.9663,2.8518,2.7964,2.7964,2.6871,2.6389,2.6348,2.6307,2.6276,2.6276,2.6276,2.5641,2.467,2.467,2.4049,2.3091,2.3091,2.3091,2.3091,0.0,0.0,0.0,0.0,0.0,0.0,0.0,0.0,0.0,0.0,0.0,0.0,0.0,0.0,0.0,0.0,0.0,0.0,0.0,3.0533,3.0319,3.033,3.0317,3.0177,2.9792,2.9792,2.9892,3.0105,3.0231,3.0407,3.062,3.0947,3.1198,3.1386,3.1386,3.14,3.1441,3.1776,3.206,3.2299,3.2407,3.2595,0.0,0.0,0.0,0.0,0.0,0.0,0.0,0.0,3.5562,3.6911,3.7285,3.7764,3.8257,3.8661,3.8482,3.8257,3.8661,3.896,3.9095,3.8841,3.8154,3.7745,3.86,3.8619,3.8502,3.876,3.8481,3.8404,3.9054,3.8955,3.8246,3.6573,3.5412,3.4553,3.415,3.3208,3.2453,3.224,3.1913,3.1486,3.0959,3.0733,3.047,3.0131,2.9905,2.9792,2.9792,2.9792,2.9792,2.9792,2.9792,2.9792,2.9792,2.9792,2.9792,2.9792,2.9365,2.9157,2.9106,2.7988,2.7481,2.7441,2.6801,2.6524,2.6524,2.6524,2.6265,2.5797,2.5083,2.4082,2.3091,2.3091,2.3091,2.3091,0.0,0.0,0.0,0.0,0.0,0.0,0.0,0.0,0.0,0.0,0.0,0.0,0.0,0.0,0.0,0.0,0.0,0.0,2.9376,2.9096,2.9063,2.9503,2.9691,2.9792,2.9792,2.9792,2.9792,2.9792,3.0168,3.0532,3.0871,3.1223,3.1587,3.1913,3.1738,3.1449,3.116,3.1712,3.1838,3.1725,3.2491,3.2619,0.0,0.0,0.0,0.0,0.0,0.0,0.0,0.0,3.4884,3.6137,3.6869,3.7255,3.7494,3.7943,3.7913,3.7823,3.8272,3.8542,3.8661,3.8437,3.8048,3.8078,3.9454,3.926,3.9035,3.9903,3.9559,3.9047,3.8914,3.8774,3.8368,3.7462,3.6191,3.513,3.4496,3.3247,3.2234,3.1766,3.1373,3.0934,3.0407,3.0357,3.0193,2.9817,2.9792,2.9792,2.9792,2.9792,2.9792,2.9792,2.9792,2.9792,2.9792,2.9792,2.9792,2.9792,2.9792,2.9792,2.9753,2.8976,2.8636,2.8597,2.7867,2.7545,2.7545,2.7545,2.7342,2.6883,2.5755,2.484,2.4178,2.4178,2.393,2.3637,0.0,0.0,0.0,0.0,0.0,0.0,0.0,0.0,2.7934,2.8603,2.8567,0.0,0.0,0.0,0.0,0.0,0.0,0.0,2.7281,2.8298,2.8888,2.8888,2.9478,2.9779,2.9792,2.9804,2.9804,2.9804,2.9804,3.0344,3.1386,3.1399,3.1989,3.3074,3.2466,3.2202,3.2164,3.1625,3.17,3.2202,3.2202,3.1876,3.1386,0.0,0.0,0.0,0.0,0.0,0.0,0.0,3.443,3.5186,3.6179,3.6911,3.7404,3.7404,3.7853,3.8377,3.8377,3.8871,3.923,3.8542,3.8377,3.8377,3.8377,3.7883,3.7793,3.9104,3.8871,3.8288,3.7901,3.8149,3.792,3.644,3.6547,3.6099,3.41,3.3212,3.228,3.079,3.0608,3.0394,2.9842,2.9792,2.9792,2.9792,2.9792,2.9792,2.9792,2.9792,2.9792,2.9792,2.9792,2.9792,2.9792,2.9792,2.9792,2.9792,2.9792,2.9792,2.9792,2.9792,2.9792,2.9792,2.9792,2.9792,2.9792,2.9792,2.9145,2.8004,2.6924,2.6513,2.6524,2.6524,2.5797,2.483,0.0,0.0,0.0,0.0,0.0,0.0,0.0,0.0,2.6935,2.7135,2.7458,0.0,0.0,0.0,0.0,0.0,0.0,0.0,2.7281,2.7595,2.8109,2.8863,2.9051,2.9377,2.9779,3.0168,3.0369,3.0369,3.0369,3.0721,3.1399,3.1788,3.1938,3.1901,3.2114,3.1788,3.111,3.1298,3.1273,3.1122,3.1486,3.1323,3.0846,0.0,0.0,0.0,0.0,0.0,0.0,0.0,0.0,0.0,3.603,3.6611,3.6761,3.6761,3.6896,3.715,3.7584,3.7524,3.7404,3.7644,3.7704,3.7704,3.7704,3.7913,3.8347,3.923,3.8871,3.8366,3.8225,3.7912,3.754,3.711,3.6548,3.5961,3.5344,3.4079,3.2818,3.1707,3.1252,3.07,2.9882,2.9792,2.9792,2.9792,2.9792,2.9792,2.9792,2.9792,2.9792,2.9792,2.9792,2.9792,2.9792,2.9792,2.9792,2.9792,2.9792,2.9792,2.9792,2.9792,2.9792,2.9792,2.9792,2.9792,2.9792,2.9792,2.9145,2.8084,2.7763,2.7157,2.6524,2.6524,2.6307,2.6016,0.0,0.0,0.0,0.0,0.0,0.0,0.0,0.0,2.6499,2.6499,2.6788,2.7203,0.0,0.0,0.0,2.8084,2.7607,0.0,2.7281,2.7281,2.767,2.8524,2.8775,2.9264,3.0105,3.0444,3.0821,3.1248,3.0821,3.0884,3.1386,3.1524,3.1512,3.1399,3.1524,3.1223,3.062,3.0721,3.0696,3.0645,3.0959,3.0896,3.062,0.0,0.0,0.0,0.0,0.0,0.0,0.0,0.0,0.0,3.5944,3.6492,3.6537,3.6791,3.6686,3.6626,3.724,3.7135,3.7,3.7644,3.7808,3.7868,3.8138,3.8512,3.8841,3.8975,3.8467,3.8003,3.8003,3.7479,3.712,3.7375,3.6699,3.5985,3.5603,3.4448,3.329,3.2354,3.1957,3.1402,3.0457,3.0343,3.0216,2.983,2.9792,2.9792,2.9792,2.9792,2.9792,2.9792,2.9792,2.9792,2.9792,2.9792,2.9792,2.9792,2.9792,2.9792,2.9792,2.9792,2.9792,2.9792,2.9792,2.9792,2.9792,2.9792,2.9404,2.8767,2.8767,2.8371,2.7799,2.7799,2.7504,2.7128,0.0,0.0,2.5649,2.5598,0.0,0.0,0.0,2.6499,2.6499,2.6499,2.6499,2.67,0.0,0.0,0.0,2.7984,2.757,2.7291,2.7241,2.7241,2.7482,2.8084,2.8687,2.9477,3.0595,3.0658,3.116,3.2139,3.111,3.0884,3.1386,3.0859,3.0834,3.1235,3.0809,3.0583,3.0507,3.0005,3.008,3.0545,3.0545,3.0545,3.0545,3.0545,0.0,0.0,0.0,0.0,0.0,0.0,0.0,0.0,3.5791,3.6455,3.6671,3.718,3.6926,3.6626,3.724,3.733,3.7404,3.8123,3.8347,3.8556,3.9185,3.9334,3.9155,3.8527,3.7823,3.733,3.733,3.6821,3.6582,3.715,3.6761,3.6089,3.5183,3.4539,3.3774,3.2855,3.2749,3.2357,3.1426,3.1254,3.0833,2.9998,2.9869,2.9792,2.9792,2.9792,2.9792,2.9792,2.9792,2.9792,2.9792,2.9792,2.9792,2.9792,2.9792,2.9792,2.9792,2.9792,2.9792,2.9792,2.9792,2.9792,2.9792,2.9792,2.9792,2.9792,2.9792,2.9792,2.9792,2.9792,2.9145,2.8255,0.0,0.0,2.6172,2.5674,0.0,0.0,2.6499,2.6499,2.6499,2.6499,2.6499,2.67,2.7218,2.7281,0.0,2.7444,2.7392,2.714,2.67,2.6675,2.7115,2.8059,2.9076,2.993,3.0608,3.1009,3.1336,3.1574,3.0934,3.0884,3.1386,3.0859,3.0444,3.0156,3.047,3.0382,2.9967,2.9842,2.9867,2.9967,2.9967,2.9967,2.9967,2.9967,2.9892,0.0,0.0,0.0,0.0,0.0,0.0,0.0,3.5009,3.6148,3.715,3.6791,3.6596,3.6626,3.724,3.6686,3.6193,3.733,3.8003,3.8422,3.8571,3.8616,3.8571,3.8422,3.7479,3.6686,3.6686,3.6148,3.5759,3.5893,3.5804,3.5633,3.5421,3.5255,3.4806,3.3808,3.3705,3.3345,3.2393,3.1646,3.1106,3.0895,3.0203,2.9792,2.9792,2.9792,2.9792,2.9792,2.9792,2.9792,2.9792,2.9792,2.9792,2.9792,2.9792,2.9792,2.9792,2.9792,2.9792,2.9792,2.9792,2.9792,2.9792,2.9792,2.9792,2.9792,2.9792,2.9792,2.9792,2.9792,2.9624,2.9443,0.0,0.0,0.0,0.0,0.0,0.0,0.0,0.0,2.7457,2.6952,2.6889,2.7002,2.7291,2.7281,0.0,0.0,2.7281,2.719,2.6901,2.6889,2.7344,2.8448,2.9327,3.0043,3.0608,3.0884,3.1135,3.1386,3.0871,3.0758,3.1009,3.0746,3.0457,3.0193,3.0482,3.0457,3.0168,2.9905,2.9792,2.9792,2.9792,2.9792,2.9792,2.9792,2.9792,2.9792,2.9792,0.0,0.0,0.0,0.0,0.0,0.0,0.0,3.6335,3.679,3.6716,3.6552,3.6881,3.6477,3.6133,3.6806,3.7449,3.7913,3.7913,3.7689,3.7479,3.7479,3.6956,3.6387,3.6073,3.5744,3.5504,3.5504,3.5504,3.5504,3.5504,3.5504,3.5326,3.4758,3.4725,3.4327,3.3345,3.282,3.2177,3.1278,3.0771,3.0279,2.983,2.9792,2.9792,2.9792,2.9792,2.9792,2.9792,2.9792,2.9792,2.9792,2.9792,2.9792,2.9792,2.9792,2.9792,2.9792,2.9792,2.9792,2.9792,2.9792,2.9792,2.9792,2.9792,2.9792,2.9792,2.9792,2.9792,2.9792,0.0,0.0,0.0,0.0,0.0,0.0,0.0,0.0,0.0,2.7419,2.7281,2.7281,2.7281,2.7241,2.7178,0.0,0.0,0.0,2.7178,2.7354,2.7833,2.8712,2.9428,3.0005,3.047,3.057,3.0783,3.111,3.0783,3.062,3.062,3.062,3.067,3.0746,3.0658,3.062,3.0583,3.003,2.9792,2.9792,2.9792,2.9792,2.9792,2.9792,2.9792,2.9792,2.9792,2.9854,3.0046,3.0838,0.0,0.0,0.0,0.0,3.5288,3.6788,3.6806,3.6312,3.6312,3.6312,3.6342,3.6462,3.6941,3.7375,3.727,3.6851,3.6447,3.6342,3.6312,3.6148,3.5609,3.5504,3.5504,3.5504,3.5504,3.5504,3.5504,3.5504,3.5504,3.5504,3.5504,3.5166,3.4361,3.4095,3.3345,3.1815,3.1389,3.0871,3.0075,2.9908,2.9792,2.9792,2.9792,2.9792,2.9792,2.9792,2.9792,2.9792,2.9792,2.9792,2.9792,2.9792,2.9792,2.9792,2.9792,2.9792,2.9792,2.9792,2.9792,2.9792,2.9792,2.9792,2.9792,2.9792,2.9792,2.9792,0.0,0.0,0.0,0.0,0.0,0.0,0.0,0.0,0.0,0.0,2.7281,2.7281,2.7281,2.6889,2.66,2.66,2.66,2.66,2.66,0.0,0.0,2.821,2.9227,2.9829,2.9905,3.0369,3.0419,3.0005,3.0419,3.062,3.062,3.062,3.0859,3.1273,3.0821,3.062,3.0583,3.003,2.9792,2.9792,2.9792,2.9792,2.9792,2.9792,2.9792,2.9792,2.9792,3.0093,3.0507,3.0653,3.1694,0.0,0.0,0.0,3.5201,3.6316,3.6148,3.5639,3.5639,3.5639,3.5774,3.6342,3.6941,3.727,3.6731,3.6552,3.6327,3.5744,3.5639,3.5609,3.5519,3.5504,3.5504,3.5504,3.5504,3.5504,3.5504,3.5504,3.5504,3.5504,3.5504,3.5439,3.5311,3.4509,3.391,3.3636,3.2141,3.1143,3.1007,3.0241,2.9792,2.9792,2.9792,2.9792,2.9792,2.9792,2.9792,2.9792,2.9792,2.9792,2.9792,2.9792,2.9792,2.9792,2.9792,2.9792,2.9792,2.9792,2.9792,2.9792,2.9792,2.9792,2.9792,2.9792,2.9792,2.9792,0.0,0.0,0.0,0.0,0.0,0.0,0.0,0.0,0.0,0.0,0.0,2.7745,2.7745,2.7291,2.6839,2.6524,2.6499,2.6625,2.6939,2.7369,2.7921,2.8499,2.9051,2.9315,2.9315,2.9867,2.988,2.9315,2.988,3.0457,3.1047,3.1047,3.1336,3.1838,3.1612,3.1336,3.1009,3.0482,3.0068,2.9792,2.9792,2.998,3.0218,2.9905,2.998,3.0218,2.9905,2.9942,3.0156,3.0156,3.0608,3.1306,3.1966,0.0,0.0,0.0,3.554,3.6058,3.6058,3.5504,3.5085,3.5774,3.6148,3.6267,3.5998,3.5938,3.5848,3.5564,3.5504,3.5504,3.5504,3.5504,3.5504,3.5504,3.5504,3.5504,3.5504,3.5504,3.5504,3.5504,3.5504,3.5504,3.5504,3.51,3.461,3.4027,3.3241,3.2522,3.1997,3.1082,3.0595,3.0595,3.0075,2.9792,2.9792,2.9792,2.9792,2.9792,2.9792,2.9792,2.9792,2.9792,2.9792,2.9792,2.9792,2.9792,2.9792,2.9792,2.9792,2.9792,2.9792,2.9792,2.9792,2.9792,2.9792,2.9792,0.0,0.0,0.0,0.0,0.0,0.0,0.0,0.0,0.0,0.0,0.0,2.8109,2.8109,0.0,0.0,0.0,2.6499,2.6663,2.7077,2.7205,2.7657,2.8473,2.8737,2.8825,2.8687,2.9277,2.9365,2.8888,2.9365,3.0193,3.1386,3.1386,3.1763,3.2428,3.2277,3.1901,3.1348,3.0834,3.0382,2.9993,2.9993,3.0244,3.0583,3.0306,3.0457,3.0733,3.0193,2.9993,2.998,2.9842,2.9792,2.996,3.0895,3.1852,0.0,0.0,0.0,3.6013,3.6193,3.5504,3.4906,3.5594,3.5744,3.5744,3.5744,3.5624,3.5504,3.5504,3.5504,3.5504,3.5504,3.5504,3.5504,3.5504,3.5504,3.5504,3.5504,3.5504,3.5504,3.5504,3.5504,3.5504,3.5504,3.5504,3.518,3.4428,3.4129,3.3705,3.2996,3.2069,3.1573,3.1573,3.0671,3.0139,3.0139,2.9934,2.9792,2.9792,2.9792,2.9792,2.9792,2.9792,2.9792,2.9792,2.9792,2.9792,2.9792,2.9792,2.9792,2.9792,2.9792,2.9792,2.9792,2.9792,2.9792,2.9792,0.0,0.0,0.0,0.0,0.0,0.0,0.0,0.0,0.0,0.0,0.0,2.8109,2.8109,2.7607,2.709,2.6549,2.6499,2.6499,2.6537,2.7027,0.0,0.0,2.8373,0.0,2.816,2.865,2.8913,2.8888,2.8913,2.9804,3.1386,3.1386,3.1976,3.3048,3.2453,3.1901,3.1348,3.0834,3.0595,3.057,3.057,3.0595,3.067,3.1135,3.1323,3.1286,3.0758,3.057,3.0495,2.9967,2.9792,2.996,3.0895,3.1852,3.2784,0.0,0.0,0.0,3.5385,3.5504,3.5609,3.6267,3.6432,3.6432,3.6432,3.5953,3.5504,3.5504,3.5504,3.5504,3.5504,3.5504,3.5504,3.5504,3.5504,3.5504,3.5504,3.5504,3.5504,3.5504,3.5504,3.5504,3.5504,3.5504,3.5472,3.5439,3.4543,3.3993,3.391,3.3031,3.2522,3.2522,3.1609,3.1143,3.1143,3.0241,2.9792,2.9792,2.9792,2.9792,2.9792,2.9792,2.9792,2.9792,2.9792,2.9792,2.9792,2.9792,2.9792,2.9792,2.9792,2.9792,2.9792,2.9792,2.9792,2.9792,0.0,0.0,0.0,0.0,0.0,0.0,0.0,0.0,0.0,0.0,0.0,0.0,0.0,2.8134,2.7595,2.7065,2.67,2.6499,2.6499,2.6675,0.0,0.0,2.8185,2.8473,2.8599,2.9189,2.9302,2.8888,2.9302,2.9967,3.0896,3.1235,3.1612,3.2001,3.2152,3.2102,3.1888,3.1336,3.111,3.111,3.111,3.1323,3.1587,3.1085,3.1097,3.1273,3.0394,3.0093,3.0055,2.9854,2.9792,2.9793,2.9732,3.0758,3.2271,3.3849,3.4116,3.4083,3.5205,3.519,3.5011,3.5684,3.6576,3.7163,3.6687,3.7142,3.7558,3.7075,3.6981,3.6829,3.6306,3.5814,3.5504,3.5504,3.5504,3.5504,3.5504,3.5504,3.5504,3.5504,3.5504,3.5504,3.5504,3.5504,3.5504,3.5504,3.5166,3.4953,3.4953,3.4027,3.3206,3.2629,3.1669,3.0895,3.0317,2.9972,2.9792,2.9792,2.9792,2.9792,2.9792,2.9792,2.9792,2.9792,2.9792,2.9792,2.9792,2.9792,2.9792,2.9792,2.9792,2.9792,2.9792,2.9792,2.9792,2.9792,0.0,0.0,0.0,3.0482,0.0,2.988,2.9302,2.875,2.8511,2.8838,0.0,0.0,0.0,0.0,2.816,2.7607,2.7218,2.7052,2.7052,2.7052,0.0,0.0,2.8285,2.8461,2.8612,2.9026,2.9126,2.8888,2.9126,2.9704,3.062,3.0972,3.1223,3.1399,3.1587,3.1876,3.219,3.1813,3.1675,3.1675,3.1675,3.1888,3.2152,3.1637,3.1537,3.1549,3.0645,3.0331,3.0306,3.0131,3.0068,2.9967,2.9402,2.9962,3.1268,3.3179,3.3572,3.3648,3.4842,3.516,3.5342,3.5983,3.6728,3.7241,3.6932,3.7328,3.7635,3.7135,3.7041,3.686,3.6337,3.5831,3.5504,3.5504,3.5504,3.5504,3.5504,3.5504,3.5504,3.5504,3.5504,3.5504,3.5504,3.5504,3.5504,3.5504,3.5504,3.5504,3.5504,3.4872,3.3925,3.2629,3.1997,3.1082,2.9792,2.9792,2.9792,2.9792,2.9792,2.9792,2.9792,2.9792,2.9792,2.9792,2.9792,2.9792,2.9792,2.9792,2.9792,2.9792,2.9792,2.9792,2.9792,2.9792,2.9792,2.9792,3.1499,3.1838,3.2039,3.1486,3.0972,3.0457,2.9905,2.9327,2.8925,2.8938,0.0,0.0,0.0,0.0,0.0,2.8185,2.8134,2.8122,2.8109,2.8109,2.8109,2.8134,2.8599,2.865,2.816,2.816,2.8423,2.8913,2.8423,2.8988,3.0595,3.0608,3.0884,3.1348,3.0859,3.121,3.219,3.2177,3.219,3.2215,3.2215,3.2215,3.2277,3.2817,3.2679,3.2114,3.1549,3.1348,3.1286,3.0771,3.0595,3.0495,2.9956,2.9646,2.9856,3.1626,3.2652,3.3402,0.0,0.0,0.0,3.721,3.6944,3.666,3.7244,3.6454,3.5569,3.5569,3.5539,3.5539,3.5522,3.5537,3.5537,3.5504,3.5504,3.5504,3.5504,3.5504,3.5504,3.5504,3.5504,3.5504,3.5504,3.5504,3.5504,3.5504,3.5504,3.5504,3.5504,3.5472,3.4591,3.2713,3.2593,3.1696,2.9869,2.9792,2.9792,2.9792,2.9792,2.9792,2.9792,2.9792,2.9792,2.9792,2.9792,2.9792,2.9792,2.9792,2.9792,2.9792,2.9792,2.9792,2.9792,2.9792,2.9792,2.9792,3.1424,3.1838,3.2039,3.1486,3.1273,3.0997,3.047,2.9917,2.9704,0.0,0.0,0.0,3.0105,2.9792,2.9327,2.8712,2.8662,2.8499,2.8134,2.8109,2.8285,2.865,2.8813,2.9013,2.9315,2.9327,2.9402,2.9553,2.9402,2.9566,3.003,3.0432,3.0696,3.0834,3.1072,3.1336,3.1599,3.1223,3.1512,3.2215,3.2215,3.2215,3.219,3.1951,3.1763,3.1499,3.057,3.0495,3.0746,3.0206,3.0018,2.9958,2.9604,2.948,2.9581,3.0386,3.1805,3.3186,3.3467,0.0,0.0,0.0,0.0,0.0,3.6888,3.7048,3.7219,3.7175,3.6766,3.6415,3.6307,3.6306,3.6117,3.5587,3.5504,3.5504,3.5504,3.5504,3.5504,3.5504,3.5504,3.5504,3.5504,3.5504,3.5504,3.5504,3.5504,3.5504,3.5504,3.4806,3.4177,3.3636,3.2321,3.1328,3.0833,3.0139,2.9792,2.9792,2.9792,2.9792,2.9792,2.9792,2.9792,2.9792,2.9792,2.9792,2.9792,2.9792,2.9792,2.9792,2.9792,2.9792,2.9792,2.9792,2.9792,2.9792,3.1687,3.219,3.2466,3.2152,3.1888,3.1637,3.1336,3.0809,3.057,0.0,0.0,0.0,3.0896,3.0645,3.0331,2.998,2.9754,2.9503,2.9176,2.8938,2.895,2.9277,2.9289,2.9453,2.9779,2.9553,2.9553,2.9792,2.9553,2.9553,2.9804,3.0118,3.0269,3.0281,3.0583,3.0721,3.0696,3.0394,3.0896,3.1888,3.2127,3.2077,3.1863,3.1763,3.1461,3.0984,3.0357,3.0344,3.057,3.0244,2.998,2.9782,2.9611,2.9241,2.8989,2.9578,3.0808,3.2164,3.2939,3.3995,3.5045,3.5735,0.0,0.0,3.6576,3.6523,3.6468,3.6423,3.6314,3.6163,3.5799,3.6164,3.6326,3.5614,3.5504,3.5504,3.5504,3.5504,3.5609,3.5878,3.5908,3.5908,3.5908,3.5908,3.5804,3.5534,3.5504,3.5504,3.5504,3.4953,3.4428,3.4027,3.2558,3.1609,3.1217,3.0279,2.9792,2.9792,2.9792,2.9792,2.9792,2.9792,2.9792,2.9792,2.9792,2.9792,2.9792,2.9792,2.9792,2.9792,2.9792,2.9792,2.9792,2.9792,2.9792,2.9792,0.0,3.2679,3.3124,3.3124,3.2654,3.229,3.2227,3.18,3.1486,0.0,3.1486,3.1499,3.1562,3.1524,3.1486,3.1486,3.106,3.0746,3.062,3.0156,2.9854,2.9792,2.9792,2.9792,2.9792,2.9289,2.9277,2.9792,2.9277,2.9289,2.9792,2.9792,2.9792,2.9792,2.9792,2.9792,2.9792,2.9792,3.0344,3.126,3.1813,3.17,3.1273,3.1825,3.1449,3.0608,3.0545,3.057,3.0608,3.0545,3.0231,2.9867,2.9741,2.9089,2.8482,2.9071,2.9819,3.0824,3.2396,3.3316,3.4239,3.5811,3.5791,0.0,3.6237,3.54,3.4533,3.4608,3.5026,3.5235,3.4728,3.5672,3.6267,3.5609,3.5564,3.5594,3.5519,3.5504,3.5744,3.6417,3.6492,3.6507,3.6582,3.6522,3.6237,3.5654,3.5549,3.5504,3.5504,3.5504,3.51,3.4211,3.3241,3.2357,3.1536,3.0558,3.0075,2.9972,2.9972,2.9895,2.9792,2.9792,2.9792,2.9792,2.9792,2.9792,2.9792,2.9792,2.9792,2.9792,2.9792,2.9792,2.9792,2.9792,2.9792,2.9792,3.219,3.2679,3.3124,3.3124,3.298,3.2754,3.2277,3.2127,3.2051,3.2051,3.2051,3.2227,3.2747,3.2328,3.2051,3.2051,3.1964,3.1537,3.067,3.052,3.0256,2.9817,2.9792,2.9792,2.9792,2.9679,2.9679,2.9792,2.9679,2.9679,2.9792,2.9792,2.9792,2.9792,2.9792,2.9792,2.9792,2.9792,2.9917,3.0156,3.0708,3.0595,3.0168,3.0721,3.0796,3.0557,3.0118,3.0231,3.0545,3.0105,3.0181,3.0294,2.9352,2.9527,2.9893,2.8708,2.965,3.1026,3.0936,3.1883,3.3129,3.422,3.438,0.0,3.5475,3.507,3.4668,3.519,3.4966,3.4801,3.5235,3.5953,3.6267,3.5609,3.5953,3.6118,3.5579,3.5504,3.5744,3.6417,3.6492,3.6686,3.718,3.6776,3.6432,3.6297,3.5804,3.5504,3.5504,3.5504,3.5392,3.5213,3.4245,3.3636,3.3449,3.2536,3.1683,3.0932,3.0932,3.052,2.9792,2.9792,2.9792,2.9792,2.9792,2.9792,2.9792,2.9792,2.9792,2.9792,2.9792,2.9792,2.9792,2.9792,2.9792,2.9792,3.2591,3.288,3.3124,3.3124,3.3124,3.298,3.2692,3.2641,3.2641,3.2641,3.2641,3.2754,3.3086,3.2817,3.2641,3.2641,3.2378,3.1989,3.1449,3.0909,3.0495,3.0218,2.9942,2.9792,2.9792,2.9792,2.9792,2.9792,2.9792,2.9792,2.9792,2.9792,2.9942,3.0193,2.9917,2.9942,3.0181,2.9905,2.9628,2.944,3.0281,3.0281,2.9854,3.0407,3.0444,3.0168,2.9892,2.9967,3.0168,2.988,2.9779,2.9728,2.9728,2.9967,3.0093,2.9515,3.0075,3.0893,3.0819,3.1322,3.2141,3.3066,3.331,0.0,0.0,3.4273,3.4036,3.4857,3.4996,3.4996,3.4996,3.5818,3.6372,3.6043,3.5998,3.5878,3.5549,3.5504,3.5744,3.6417,3.6492,3.6731,3.7345,3.6851,3.6357,3.6028,3.5684,3.5504,3.5504,3.5504,3.5504,3.5504,3.4509,3.3993,3.3993,3.3066,3.2357,3.1888,3.1426,3.118,3.1169,3.0696,3.0482,3.0482,3.0482,3.0241,2.9792,2.9792,2.9792,2.9792,2.9792,2.9792,2.9792,2.9792,2.9792,2.9792,3.3023,3.3124,3.3124,3.3124,3.3124,3.3124,3.3124,3.3124,3.3124,3.3124,3.3124,3.3074,3.2918,3.2918,3.2955,3.3111,3.2554,3.2252,3.2365,3.1461,3.0871,3.0771,3.0331,3.0105,3.0105,3.0105,3.0105,3.0105,2.9993,2.9942,2.9942,2.9842,3.0093,3.0595,3.0143,3.0256,3.0721,3.0068,2.9641,2.9427,3.0168,3.0131,2.9691,3.0244,3.0181,2.9792,2.9792,2.9867,2.993,2.9829,2.9553,2.9339,3.0068,3.0131,2.9993,3.0218,3.0444,3.064,3.0889,3.0932,3.1156,3.2105,3.2321,3.2558,0.0,0.0,0.0,3.4253,3.4971,3.5325,3.4771,3.5669,3.6447,3.6312,3.5953,3.5684,3.5684,3.5684,3.5848,3.6252,3.6417,3.6731,3.7345,3.6851,3.6207,3.5549,3.5504,3.5504,3.5504,3.5504,3.5504,3.5504,3.4725,3.4279,3.4279,3.3533,3.3066,3.2855,3.2105,3.2033,3.2558,3.1815,3.1396,3.1303,3.1409,3.0992,3.0177,3.0279,3.0216,3.0037,2.9856,2.9792,2.9792,2.9792,2.9792,2.9792,3.3258,3.3124,3.3124,3.3124,3.3124,3.3124,3.3124,3.3124,3.3124,3.3124,3.3124,3.288,3.2365,3.2303,3.2516,3.3031,3.2554,3.2428,3.2943,3.2378,3.1813,3.1323,3.1235,3.121,3.121,3.121,3.121,3.121,3.0746,3.052,3.0507,3.0018,3.0093,3.062,3.0557,3.0821,3.1235,3.0218,3.0306,3.1035,3.0218,2.9541,2.9051,2.9666,2.9842,2.9792,2.9792,3.0105,3.0457,2.9955,3.0068,3.0269,2.9352,2.9728,3.0331,2.9352,2.979,3.0495,3.0085,2.9972,3.0177,3.1106,3.1352,3.1609,3.2558,0.0,3.3926,3.4028,0.0,3.5489,3.54,0.0,0.0,3.5714,3.6043,3.6372,3.6372,3.6372,3.6193,3.5684,3.6133,3.6731,3.7345,3.6851,3.6207,3.5549,3.5504,3.5504,3.5504,3.5504,3.5504,3.5504,3.5392,3.5326,3.5326,3.5213,3.4739,3.3842,3.3739,3.331,3.2593,3.25,3.214,3.159,3.2195,3.2042,3.1428,3.2031,3.1792,3.097,3.0101,2.9792,2.9792,2.9792,2.9792,2.9792,3.422,3.3513,3.3124,3.3124,3.3124,3.3124,3.3124,3.3345,3.3558,3.3558,3.3558,3.3583,3.3658,3.3106,3.2943,3.3508,3.3043,3.2667,3.2579,3.2353,3.1964,3.1411,3.1386,3.1386,3.1386,3.1386,3.1386,3.1386,3.0871,3.062,3.0608,3.0382,3.0557,3.106,3.106,3.1185,3.1336,3.0595,3.0156,2.9955,2.9842,2.9453,2.8988,2.993,3.0068,2.9792,2.9792,2.9942,3.0005,2.9114,2.8963,2.9076,2.8599,2.9001,2.9577,2.9465,2.9993,3.0495,2.9942,2.9792,2.9895,3.0279,3.0381,3.062,3.1573,3.2105,3.2664,3.3774,0.0,0.0,0.0,0.0,0.0,0.0,3.5983,3.5923,3.5923,3.6237,3.6522,3.6596,3.6851,3.712,3.7389,3.718,3.6761,3.6118,3.5729,3.5504,3.5504,3.5504,3.5504,3.5504,3.5504,3.5504,3.5504,3.5504,3.5279,3.4872,3.4279,3.4109,3.4259,3.3671,3.3055,3.2503,3.2772,3.2178,3.1055,3.175,3.1801,3.1379,3.0815,3.0279,2.9792,2.9792,2.9792,2.9792,3.5695,3.447,3.3556,3.3556,3.3313,3.3124,3.3124,3.342,3.3721,3.3884,3.3771,3.3884,3.4437,3.3508,3.3131,3.3847,3.3257,3.2729,3.2466,3.2303,3.2151,3.2049,3.1776,3.1839,3.2306,3.2003,3.1851,3.1851,3.1323,3.106,3.1047,3.0758,3.0896,3.1386,3.1386,3.1474,3.1574,3.1047,3.0444,2.9803,2.9967,2.9767,2.9427,3.0131,3.0143,2.9792,2.9792,2.9792,2.9641,2.8662,2.8235,2.8084,2.7921,2.826,2.8725,2.9026,2.9603,3.0043,2.9478,2.944,2.9553,2.9553,2.9679,2.9972,3.0658,3.1007,3.1613,3.3135,3.3669,0.0,0.0,0.0,3.5818,3.6399,0.0,3.5774,3.5774,3.6327,3.6776,3.6881,3.7195,3.7404,3.7404,3.7404,3.715,3.6537,3.6043,3.5699,3.5519,3.5504,3.5504,3.5504,3.5504,3.5504,3.5504,3.5504,3.5504,3.5504,3.4758,3.4703,3.5188,3.4479,3.3696,3.2954,3.3129,3.2522,3.1453,3.2139,3.2356,3.2229,3.2036,3.1402,3.0495,3.0011,2.9792,2.9792,3.7715,3.6055,3.4664,3.4664,3.3797,3.3124,3.3124,3.3093,3.3294,3.3834,3.3432,3.3319,3.3872,3.2918,3.2692,3.3796,3.288,3.2466,3.3018,3.2516,3.2676,3.37,3.272,3.2918,3.4556,3.3577,3.3074,3.3074,3.2441,3.2164,3.2139,3.111,3.0896,3.1386,3.1386,3.1687,3.2152,3.1599,3.165,3.2026,3.0997,3.0583,3.0507,3.0005,2.9804,2.9792,2.9792,2.9792,2.9704,2.9063,2.8512,2.8009,2.7482,2.7682,2.8034,2.7519,2.8134,2.8825,2.831,2.8512,2.8913,2.8913,2.9377,2.9792,2.983,3.0558,3.1376,3.193,3.2776,3.3913,3.559,3.5899,3.6031,3.6432,3.6477,0.0,0.0,3.6985,3.6926,3.5714,3.6656,3.7404,3.7404,3.7404,3.715,3.6537,3.6462,3.6178,3.5534,3.5504,3.5504,3.5504,3.5504,3.5504,3.5504,3.5504,3.5504,3.5504,3.5472,3.5113,3.4533,3.4502,3.3768,3.2557,3.3215,3.3453,3.3468,3.4125,3.4221,3.3916,3.391,3.3345,3.2285,3.047,2.9792,2.9792,3.887,3.7715,3.6515,3.5828,3.5386,3.4925,3.4262,3.4474,3.4641,3.4451,3.4274,3.4512,3.5475,3.4211,3.3621,3.4374,3.3432,3.2704,3.2516,3.2328,3.2676,3.3753,3.2442,3.2615,3.465,3.3953,3.376,3.415,3.4272,3.4338,3.4272,3.2857,3.2306,3.2461,3.2092,3.1838,3.1675,3.1863,3.1424,3.0583,3.0218,3.0281,3.0595,3.0407,3.0118,2.9792,2.9792,2.9792,2.9641,2.8699,2.826,2.7946,2.7065,2.7153,2.7519,2.7344,2.7808,2.8348,0.0,2.8511,2.8988,2.9402,2.9641,2.9892,3.0256,3.0303,3.0508,3.1331,3.1987,3.3057,3.4953,3.5619,3.617,3.6984,3.7105,3.6956,0.0,3.6671,3.712,3.7988,3.8467,3.8701,3.8701,3.8317,3.7973,3.7764,3.7345,3.6821,3.6193,3.6148,3.5953,3.5519,3.5504,3.5504,3.5504,3.5504,3.5504,3.5504,3.504,3.4728,3.4488,3.4054,3.335,3.2497,3.2751,3.2841,3.2901,3.3559,3.4046,3.4319,3.4071,3.3808,3.338,3.2119,3.1659,3.1549,3.9388,3.8819,3.8032,3.6982,3.6448,3.5974,3.5319,3.5216,3.5146,3.502,3.4515,3.4684,3.6215,3.5059,3.4555,3.5457,3.441,3.3427,3.2784,3.2759,3.3266,3.4312,3.3383,3.3754,3.5762,3.5048,3.4848,3.5238,3.5538,3.5684,3.5631,3.4165,3.3492,3.3467,3.3146,3.2787,3.254,3.3309,3.2587,3.0854,3.0098,3.0118,3.0595,3.0407,3.0218,3.0055,2.9867,2.9666,2.9377,2.8649,2.8134,2.7682,2.7014,2.6901,2.7027,2.7027,2.7278,2.7519,2.7519,2.7921,0.0,2.8812,2.9051,2.934,2.9853,2.9741,2.977,3.0764,3.1397,3.2418,3.4407,3.5455,3.63,3.7258,3.7599,3.7539,0.0,3.7015,3.7629,3.8901,3.905,3.9155,3.9394,3.902,3.8661,3.8407,3.8003,3.7479,3.6851,3.6611,3.6297,3.5863,3.5624,3.5504,3.5504,3.5504,3.5385,3.513,3.4728,3.4264,3.3769,3.3335,3.2781,3.2138,3.2138,3.2392,3.2901,3.332,3.4023,3.4844,3.4629,3.4543,3.4361,3.3066,3.2593,3.25,3.9388,3.9454,3.9112,3.8113,3.7046,3.6288,3.6277,3.5453,3.4987,3.5458,3.4229,3.4088,3.6144,3.546,3.5451,3.6974,3.5682,3.4536,3.3953,3.3887,3.4365,3.5474,3.5418,3.6143,3.7776,3.6743,3.6221,3.629,3.6288,3.6328,3.6328,3.5111,3.4519,3.4519,3.4481,3.4444,3.4527,3.5701,3.5002,3.2856,3.0777,3.022,3.0595,3.0043,3.0168,3.0545,2.9993,2.944,2.8925,2.89,2.821,2.7318,2.7329,2.6939,2.6499,2.6499,2.6499,2.6499,2.6499,2.6901,2.7329,2.7318,2.772,2.8247,2.8762,2.8863,2.9151,3.0269,3.0934,3.1919,3.3905,3.5261,3.6399,3.7203,3.7878,3.8078,3.7494,3.7883,3.8287,3.8377,3.8332,3.8586,3.9313,3.9394,3.911,3.8482,3.8407,3.8123,3.7494,3.6911,3.6585,3.6492,3.5878,3.5534,3.5504,3.5504,3.516,3.4503,3.4474,3.3754,3.2512,3.2482,3.2093,3.1511,3.1511,3.2243,3.3499,3.3499,3.4292,3.5504,3.5504,3.5504,3.5294,3.3429,3.2749,3.2749,3.9388,3.9813,4.0069,3.978,3.8679,3.7711,3.7425,3.6741,3.6196,3.5952,3.6008,3.644,3.7395,3.6879,3.6661,3.7056,3.629,3.5746,3.5582,3.5225,3.5665,3.7139,3.5657,3.5747,3.7776,3.6656,3.6465,3.7381,3.7673,3.8084,3.8554,3.7045,3.6325,3.6288,3.5488,3.5145,3.5186,3.5894,3.518,3.3529,3.2568,3.1794,3.1135,3.0608,3.0495,3.0545,2.9993,2.9691,2.9503,2.9038,2.8461,2.7821,2.7419,2.6939,2.6499,2.6499,2.6499,2.6499,2.6499,2.6901,2.7381,2.7795,2.7996,2.8247,0.0,0.0,2.8398,2.8687,2.9528,3.0597,3.1878,3.3608,3.5176,3.6222,3.6709,3.7075,3.736,3.6731,3.6776,3.8227,3.7554,3.7614,3.926,3.896,3.8796,3.9125,3.8676,3.8317,3.8138,3.7988,3.7464,3.6522,3.6327,3.5998,3.5504,3.5504,3.516,3.4503,3.3978,3.332,3.2467,3.1974,3.166,3.1511,3.1511,3.2243,3.3499,3.3499,3.4292,3.5504,3.5504,3.5504,3.5439,3.492,3.4739,3.4673,3.9843,4.0382,4.092,4.1205,4.0434,3.9526,3.9031,3.7962,3.7034,3.6483,3.6339,3.6607,3.7338,3.7403,3.7596,3.8078,3.7388,3.6891,3.6891,3.6634,3.6835,3.7776,3.7077,3.7257,3.8457,3.7535,3.7541,3.8509,3.8421,3.8736,3.9358,3.8176,3.76,3.76,3.6989,3.6716,3.6693,3.6585,3.6004,3.5,3.377,3.2873,0.0,3.169,3.1468,3.1428,3.1138,3.0495,2.9741,2.9415,2.8938,2.8373,2.7821,2.7268,2.6801,2.6562,2.6499,2.6499,2.6499,2.6725,2.7027,2.7341,2.7394,2.7532,2.8084,2.7971,2.7821,0.0,2.9123,3.018,3.0922,3.2764,3.4618,3.5988,3.6605,3.6911,3.7,3.6387,3.6432,3.7793,3.709,3.7255,3.9194,3.8796,3.8676,3.9364,3.9065,3.8841,3.8841,3.8272,3.7629,3.6911,3.6342,3.5878,3.5504,3.5504,3.5011,3.4038,3.3664,3.3006,3.2049,3.1675,3.1511,3.1511,3.1511,3.2243,3.3499,3.3499,3.4292,3.5504,3.5504,3.5504,3.5504,3.5504,3.5504,3.5439,4.0531,4.113,4.1826,4.2306,4.2066,4.1519,4.0771,3.9295,3.8046,3.738,3.6495,3.6306,3.7168,3.769,3.8383,3.9301,3.8546,3.7994,3.7994,3.7994,3.7994,3.7994,3.8907,3.9388,3.9388,3.8661,3.8646,3.9388,3.8646,3.8661,3.9373,3.8796,3.8527,3.8527,3.8527,3.8527,3.8476,3.7572,3.7025,3.6609,3.4612,3.3651,3.3326,3.2792,3.2593,3.2593,3.2593,3.1476,2.996,2.996,2.9517,2.88,2.8285,2.772,2.7168,2.6663,2.6499,2.6499,2.6499,2.6499,2.6499,2.6499,2.6499,2.6612,2.7102,2.7216,2.7341,2.7795,2.9001,3.0069,3.0433,3.2227,3.4221,3.5851,3.6686,3.6911,3.6193,3.6387,3.6716,3.6985,3.6626,0.0,3.8751,3.8512,3.8542,3.923,3.9215,3.9119,3.9119,3.8048,3.7375,3.7285,3.6207,3.5594,3.5504,3.5504,3.4831,3.3499,3.3499,3.2811,3.1511,3.1511,3.1511,3.1511,3.1511,3.2243,3.3499,3.3499,3.4292,3.5504,3.5504,3.5504,3.5504,3.5504,3.5504,3.5504,4.1205,4.2177,4.2851,4.247,4.3165,4.3389,4.2246,4.133,4.0546,3.9854,3.9617,3.9565,3.9765,3.9393,3.9177,3.9388,3.9228,3.9104,3.9104,3.9104,3.9104,3.9104,3.9301,3.9388,3.9388,3.8212,3.8182,3.9388,3.8182,3.8212,3.9388,3.929,3.923,3.923,3.923,3.923,3.9164,3.8439,3.7621,3.6697,3.5325,3.4192,3.3326,3.2792,3.2593,3.2593,3.2593,3.1888,3.097,3.097,3.0021,2.88,2.8285,2.772,2.7168,2.6663,2.6499,2.6499,2.6499,2.6499,2.6499,2.6499,2.6499,2.6512,2.6612,2.6637,2.6663,2.6763,2.7851,2.8818,2.8883,0.0,3.2788,3.3868,3.504,3.5415,3.4188,3.5878,3.6686,3.5207,3.54,3.5818,3.6163,3.703,3.7853,3.8512,3.8063,3.7764,3.7764,3.7539,3.718,0.0,3.6432,3.6058,0.0,0.0,3.4831,3.3499,3.3499,3.2811,3.1511,3.1511,3.1511,3.1511,3.1511,3.2243,3.3499,3.3499,3.4292,3.5504,3.5504,3.5504,3.5504,3.5504,3.5504,3.5504,4.3344,4.3643,4.3853,4.3883,4.4122,4.4107,4.3479,4.3105,4.2297,4.0621,4.0397,4.0277,3.9933,3.9903,3.9783,3.9454,3.9388,3.9388,3.9388,3.9388,3.9388,3.9388,3.9388,3.9388,3.9388,3.8093,3.8078,3.9388,3.8078,3.8093,3.9388,3.9388,3.9388,3.9388,3.9388,3.923,3.8856,3.8527,3.7743,3.6593,3.6011,3.5268,3.4473,3.4205,3.409,3.409,3.409,3.3463,3.2558,3.2105,3.1409,3.0636,2.9764,2.9336,2.8836,2.7509,2.7451,2.7604,2.6748,2.6816,2.704,2.6589,2.6499,2.6499,2.6499,2.6816,2.7129,2.7129,2.8363,2.9577,2.9989,3.1587,0.0,3.3423,3.4921,3.5789,3.5145,3.6133,3.6582,3.5672,3.5205,3.537,3.6402,3.6761,3.706,3.7375,3.7719,3.7764,3.7419,3.7105,3.6791,0.0,0.0,0.0,3.5504,0.0,3.4996,3.4039,3.4039,3.332,3.2019,3.2392,3.2333,3.2034,3.2378,3.3095,3.4038,3.4382,3.4921,3.5504,3.5504,3.5504,3.5504,3.5504,3.5504,3.5504,4.4811,4.4571,4.4436,4.4811,4.4571,4.4272,4.4122,4.4227,4.3524,4.1309,4.0905,4.0561,3.9903,4.0172,4.0127,3.9448,3.9388,3.9388,3.9388,3.9388,3.9388,3.9388,3.9388,3.9388,3.9388,3.8242,3.8138,3.92,3.8138,3.8153,3.92,3.9313,3.9298,3.92,3.92,3.8826,3.8167,3.8048,3.7404,3.6477,3.6327,3.5968,3.5504,3.5504,3.5504,3.5504,3.5504,3.4986,3.4211,3.3463,3.2925,3.2414,3.1371,3.0894,3.0457,2.8698,2.8554,2.8716,2.7384,2.7484,2.7835,2.7196,2.704,2.704,2.704,2.7517,2.7986,2.7986,2.9223,3.0554,3.1351,3.2348,0.0,3.326,3.4846,3.6013,3.5863,3.6327,3.6537,3.6103,3.5147,3.5085,3.6641,3.6477,3.6282,3.6282,3.7464,3.7838,3.7045,3.6552,3.6282,3.6282,0.0,3.5504,3.5504,0.0,3.516,3.4503,3.4503,3.3858,3.2736,3.326,3.3215,3.2751,3.3275,3.3858,3.4563,3.522,3.5504,3.5504,3.5504,3.5504,3.5504,3.5504,3.5504,3.5504,4.3589,4.3943,4.4152,4.3574,4.3958,4.4122,4.3484,4.3888,4.4003,4.3125,4.2536,4.1976,4.1265,4.0726,4.0127,3.9448,3.9388,3.9388,3.9388,3.9388,3.9388,3.9388,3.9388,3.9388,3.9388,3.8676,3.8362,3.8482,3.8362,3.8362,3.8497,3.9125,3.9095,3.8482,3.8482,3.8123,0.0,3.6911,3.6596,3.6432,3.5833,3.5564,3.5504,3.5504,3.5504,3.5504,3.5504,3.5439,3.5359,3.5246,3.4056,3.2483,3.1889,3.1274,3.0673,2.9978,2.943,2.8971,2.8812,2.8812,2.8876,2.878,2.878,2.878,2.878,2.8812,2.8876,2.8876,2.9628,3.0554,3.1351,3.16,3.1884,3.2482,3.3769,3.4488,3.3858,3.5818,3.6656,3.4908,3.4578,3.4578,3.4758,3.5265,3.5594,3.5594,3.6776,3.6971,3.5744,3.5624,3.5594,3.5594,3.5534,3.5504,3.5504,3.5504,3.516,3.4503,3.4503,3.4129,3.341,3.3469,3.3469,3.341,3.3469,3.3858,3.4563,3.522,3.5504,3.5504,3.5504,3.5504,3.5504,3.5504,3.5504,3.5504,4.4556,4.4407,4.4347,4.4481,4.4077,4.3738,4.3898,4.3768,4.3589,4.3334,4.3105,4.2551,4.1489,4.1145,4.0561,3.9514,3.9388,3.9388,3.9388,3.9388,3.9388,3.9388,3.9388,3.9388,3.9388,3.8736,3.8601,3.9005,3.8601,3.8601,3.902,3.9254,3.905,3.8377,3.7973,3.7449,3.6836,3.6596,3.6252,3.5878,3.5609,3.5504,3.5504,3.5504,3.5504,3.5504,3.5504,3.5504,3.5504,3.5504,3.4986,3.4225,3.3605,3.326,3.2796,3.165,3.1226,3.0892,2.9861,2.9691,2.9659,2.9129,2.9002,2.9002,2.9002,2.9411,2.9797,2.9797,3.0419,3.1117,3.1438,3.1824,3.2183,3.2452,3.3963,3.5011,3.4741,3.6267,3.6985,3.5851,3.534,3.525,3.5639,3.5938,3.6252,3.6626,3.7479,3.7599,3.6701,3.6641,3.6477,3.6103,0.0,3.5908,3.5504,3.5504,3.537,3.51,3.51,3.4741,3.4098,3.4517,3.4696,3.4696,3.4696,3.4846,3.5115,3.5385,3.5504,3.5504,3.5504,3.5504,3.5504,3.5504,3.5504,3.5504,4.4721,4.4347,4.4167,4.4631,4.3943,4.3454,4.3917,4.3589,4.329,4.329,4.329,4.2796,4.1519,4.1422,4.0846,3.9529,3.9388,3.9388,3.9388,3.9388,3.9388,3.9388,3.9388,3.9388,3.9388,3.8945,3.8841,3.9125,3.8841,3.8736,3.8826,3.8826,3.8467,3.7808,3.7345,3.6791,3.6193,3.6193,3.5923,3.5504,3.5504,3.5504,3.5504,3.5504,3.5504,3.5504,3.5504,3.5504,3.5504,3.5504,3.5504,3.5429,3.4936,3.4668,3.4288,3.3199,3.2845,3.254,3.1352,3.0986,3.08,3.019,2.9893,2.9735,2.9735,3.0208,3.0644,3.0644,3.1087,3.1511,3.1511,3.1884,3.2333,3.2736,3.3993,3.5055,3.5444,3.6282,3.6761,3.6522,3.5729,3.5549,3.6402,3.6492,3.6746,3.736,3.8197,3.8317,3.7464,3.724,0.0,0.0,0.0,0.0,3.5504,3.5504,3.5504,3.5504,3.5504,3.525,3.4801,3.528,3.5504,3.5504,3.5504,3.5504,3.5504,3.5504,3.5504,3.5504,3.5504,3.5504,3.5504,3.5504,3.5504,3.5504,4.3319,4.3305,4.3305,4.3319,4.3305,4.329,4.3305,4.3305,4.329,4.329,4.329,4.2796,4.1519,4.1422,4.0846,3.9529,3.9388,3.9388,3.9388,3.9388,3.9388,3.9388,3.9388,3.9388,3.9388,3.9373,3.908,3.8407,3.908,3.8701,3.7434,0.0,3.7105,3.6507,3.6492,3.6133,3.5519,3.5519,3.5519,3.5504,3.5504,3.5504,3.5504,3.5504,3.5504,3.5504,3.5504,3.5504,3.5504,3.5504,3.5504,3.5504,3.5489,3.5026,3.4503,3.4488,3.3993,3.3484,3.3454,3.2975,3.2467,3.2467,3.1945,3.1467,3.1467,3.1467,3.1511,3.1511,3.1511,3.1511,3.1511,3.1511,3.1944,3.3275,0.0,3.3978,3.531,3.5519,3.5774,3.6417,3.5327,3.5058,3.6357,3.6492,3.6746,3.736,3.8646,3.8826,3.7479,0.0,0.0,3.6492,3.5863,0.0,3.5504,3.5504,3.5504,3.5504,3.5504,3.5504,3.5489,3.5504,3.5504,3.5504,3.5504,3.5504,3.5504,3.5504,3.5504,3.5504,3.5504,3.5504,3.5504,3.5504,3.5504,3.5504,4.329,4.329,4.329,4.329,4.329,4.329,4.329,4.329,4.329,4.329,4.329,4.3015,4.2186,4.1692,4.1025,4.0172,3.9679,3.9388,3.9388,3.9388,3.9388,3.9388,3.9388,3.9388,3.9388,3.9388,3.932,3.9095,0.0,0.0,0.0,3.718,3.6671,3.6462,3.6013,3.5699,3.5504,3.5504,3.5504,3.5504,3.5504,3.5504,3.5504,3.5504,3.5504,3.5504,3.5504,3.5504,3.5504,3.5504,3.5504,3.5504,3.5504,3.5355,3.5175,3.5175,3.4696,3.4158,3.4158,3.3679,3.3185,3.3185,3.2691,3.2168,3.2168,3.1824,3.1511,3.1511,3.1511,3.1511,3.1511,3.1869,3.2303,3.2766,3.3589,0.0,3.4741,3.5205,3.5744,3.6417,3.5714,3.5519,3.6402,3.6492,3.6567,3.6761,3.7988,3.8736,3.8745,0.0,0.0,0.0,3.6507,0.0,3.5504,3.5504,3.5504,3.5504,3.5504,3.5504,3.5504,3.5504,3.5504,3.5504,3.5504,3.5504,3.5504,3.5504,3.5504,3.5504,3.5504,3.5504,3.5504,3.5504,3.5504,3.5504,4.4403,4.4403,4.4403,4.4403,4.4403,4.4403,4.4403,4.409,4.3989,4.4327,4.3756,4.3283,4.3312,4.2401,4.1422,4.0472,4.0023,3.9679,3.9439,3.9388,3.9388,3.9388,3.9388,3.9388,3.9388,3.9388,0.0,3.9388,3.8916,3.8437,3.8003,3.6716,3.6118,3.6103,3.5684,3.5504,3.5504,3.5504,3.5504,3.5504,3.5504,3.5504,3.5504,3.5504,3.5504,3.5504,3.5504,3.5504,3.5504,3.5504,3.5504,3.5504,3.5504,3.5504,3.5504,3.5504,3.519,3.4861,3.4861,3.4382,3.3858,3.3858,3.3365,3.2826,3.2572,3.2168,3.1795,3.1555,3.1511,3.1585,3.1824,3.2213,3.2677,3.317,3.3933,3.4593,3.4831,3.5235,3.5654,3.6073,3.5744,3.5669,3.6073,3.6342,3.6492,3.6492,3.7449,3.8212,0.0,0.0,3.7719,3.709,3.6447,3.5923,3.5504,3.5504,3.5504,3.5504,3.5504,3.5504,3.5504,3.5504,3.5504,3.5504,3.5504,3.5504,3.5504,3.5504,3.5504,3.5504,3.5504,3.5504,3.5504,3.5504,3.5504,3.5504,4.6208,4.6208,4.6208,4.6208,4.6208,4.6208,4.6208,4.5468,4.5227,4.6083,4.4615,4.3849,4.4812,4.3556,4.2122,4.0843,4.0516,4.0142,3.9493,3.9454,3.9388,3.9388,3.9388,3.9388,3.9388,3.9388,3.9388,3.9388,3.8108,3.7464,3.7375,3.6148,3.5549,3.5504,3.5504,3.5504,3.5504,3.5504,3.5504,3.5504,3.5504,3.5504,3.5504,3.5504,3.5504,3.5504,3.5504,3.5504,3.5504,3.5504,3.5504,3.5504,3.5504,3.5504,3.5504,3.5504,3.5504,3.5504,3.5504,3.504,3.4578,3.4578,3.4053,3.3395,3.2736,3.2557,3.2392,3.1705,3.1615,3.1809,3.2378,3.2587,3.3051,3.4309,3.4548,3.4771,3.5415,3.5504,3.5504,3.5504,3.5504,0.0,3.5504,3.6058,3.6417,3.6417,3.6985,3.733,0.0,0.0,3.709,3.6507,3.5848,3.5504,3.5504,3.5504,3.5504,3.5504,3.5504,3.5504,3.5504,3.5504,3.5504,3.5504,3.5504,3.5504,3.5504,3.5504,3.5504,3.5504,3.5504,3.5504,3.5504,3.5504,3.5504,3.5504,4.6208,4.6208,4.6208,4.6208,4.6208,4.6208,4.6208,4.6012,4.5941,4.6173,4.5782,4.5602,4.5834,4.5547,4.4962,4.4129,4.1826,4.0337,4.0172,3.9694,3.9388,3.9388,3.9388,3.9388,3.9388,3.9388,3.9388,3.9388,3.8571,3.7898,3.7389,3.6611,3.5983,3.5504,3.5504,3.5504,3.5504,3.5504,3.5504,3.5504,3.5504,3.5504,3.5504,3.5504,3.5504,3.5504,3.5504,3.5504,3.5504,3.5504,3.5504,3.5504,3.5504,3.5504,3.5504,3.5504,3.5504,3.5504,3.5504,3.5385,3.5265,3.5265,3.4756,3.4099,3.341,3.326,3.308,3.2392,3.2677,3.2916,3.2587,3.3335,3.4144,3.4459,3.4921,3.5325,3.5489,3.5504,3.5504,3.5504,3.5504,3.5504,3.5504,3.5639,3.5744,0.0,3.6342,3.6492,3.5983,3.6432,3.6641,3.6492,3.5848,3.5504,3.5504,3.5504,3.5504,3.5504,3.5504,3.5504,3.5504,3.5504,3.5504,3.5504,3.5504,3.5504,3.5504,3.5504,3.5504,3.5504,3.5504,3.5504,3.5504,3.5504,3.5504,3.5504,4.7489,4.7489,4.7489,4.7489,4.7489,4.7489,4.7489,4.7138,4.6986,4.7406,4.6747,4.6349,4.6781,4.6454,4.6048,4.568,4.3111,4.1349,4.1045,4.0007,3.9388,3.9388,3.9388,3.9388,3.9388,3.9388,3.9388,3.9388,3.8736,3.8197,3.7838,3.6926,3.6297,3.5938,3.5639,3.5504,3.5504,3.5504,3.5504,3.5504,3.5504,3.5504,3.5504,3.5504,3.5504,3.5504,3.5504,3.5504,3.5504,3.5504,3.5504,3.5504,3.5504,3.5504,3.5504,3.5504,3.5504,3.5504,3.5504,3.5504,3.5504,3.5504,3.522,3.4771,3.4098,3.3948,3.3754,3.3095,3.3245,3.3484,3.3425,3.3993,3.4608,3.4906,3.5265,3.5504,3.5504,3.5504,3.5504,3.5504,3.5504,3.5504,3.5504,3.5504,3.5504,3.5504,3.5833,0.0,3.5534,3.5848,3.6028,3.6028,3.5684,3.5504,3.5504,3.5504,3.5504,3.5504,3.5504,3.5504,3.5504,3.5504,3.5504,3.5504,3.5504,3.5504,3.5504,3.5504,3.5504,3.5504,3.5504,3.5504,3.5504,3.5504,3.5504,3.5504,4.9001,4.9001,4.9001,4.9001,4.9001,4.9001,4.9001,4.8321,4.808,4.8909,4.7622,4.6918,4.7721,4.7088,4.6627,4.6627,4.4608,4.304,4.2178,4.0775,3.9843,3.961,3.961,3.9538,3.9388,3.9388,3.9388,3.9388,3.8841,3.8497,3.8362,3.7285,3.6716,3.6596,3.6043,3.5744,3.5654,3.5654,3.5594,3.5504,3.5504,3.5504,3.5504,3.5504,3.5504,3.5504,3.5504,3.5504,3.5504,3.5504,3.5504,3.5504,3.5504,3.5504,3.5504,3.5504,3.5504,3.5504,3.5504,3.5504,3.5504,3.5504,3.5504,3.5355,3.4788,3.4668,3.4474,3.3784,3.3724,3.3933,3.4414,3.4593,3.4848,3.5415,3.5594,3.5624,3.5519,0.0,3.5609,3.5519,3.5504,3.5522,3.5651,3.5569,3.5569,3.5651,3.5554,3.5504,3.5504,3.5504,3.5504,3.5504,3.5504,3.5504,3.5504,3.5504,3.5504,3.5504,3.5504,3.5504,3.5504,3.5504,3.5504,3.5504,3.5504,3.5504,3.5504,3.5504,3.5504,3.5504,3.5504,3.5504,3.5504,3.5504,3.5504,3.5504,4.9001,4.9001,4.9001,4.9001,4.9001,4.9001,4.9001,4.8861,4.8829,4.897,4.875,4.8608,4.875,4.8656,4.8576,4.8576,4.6993,4.5357,4.3847,4.2995,4.1911,4.055,4.05,4.015,3.9424,3.9388,3.9388,3.9388,3.932,3.896,3.8392,3.8182,3.7793,3.727,3.7165,3.6821,3.6327,3.6327,3.6013,3.5504,3.5504,3.5504,3.5504,3.5504,3.5504,3.5504,3.5504,3.5504,3.5504,3.5504,3.5504,3.5504,3.5504,3.5504,3.5504,3.5504,3.5504,3.5504,3.5504,3.5504,3.5504,3.5504,3.5504,3.5474,3.537,3.534,3.5145,3.4488,3.4786,3.5055,3.4593,3.4951,3.5385,3.5489,3.5968,3.6148,3.5579,0.0,3.6133,3.5564,3.5504,3.575,3.6368,3.5863,3.575,3.6384,3.5831,3.5504,3.5504,3.5504,3.5504,3.5504,3.5504,3.5504,3.5504,3.5504,3.5504,3.5504,3.5504,3.5504,3.5504,3.5504,3.5504,3.5504,3.5504,3.5504,3.5504,3.5504,3.5504,3.5504,3.5504,3.5504,3.5504,3.5504,3.5504,3.5504,4.9001,4.9001,4.9001,4.9001,4.9001,4.9001,4.9001,4.9001,4.9001,4.9001,4.9001,4.9001,4.9001,4.9001,4.9001,4.9001,4.8337,4.7393,4.6218,4.4221,4.2779,4.2031,4.1601,4.1213,4.0808,4.0808,4.0585,4.008,4.0585,4.0415,3.9627,3.9261,3.894,3.8586,3.7759,3.7255,3.6985,3.6985,3.6806,3.6522,3.6522,3.6522,3.6522,3.6522,3.6522,3.6522,3.6522,3.6522,3.6477,3.6148,3.6028,3.5968,3.5609,3.5504,3.5587,3.5975,3.5814,3.5504,3.5504,3.5504,3.5504,3.5504,3.5504,3.5504,3.5504,3.5504,3.5415,3.51,3.528,3.5415,3.51,3.5295,3.5504,3.5504,3.5759,0.0,3.5549,3.5774,3.5848,3.5549,3.5504,3.5782,3.6523,3.6275,3.6228,3.6584,3.6275,3.5926,3.5537,3.5504,3.5504,3.5504,3.5504,3.5504,3.5504,3.5504,3.5504,3.5504,3.5504,3.5504,3.5504,3.5504,3.5504,3.5504,3.5504,3.5504,3.5504,3.5504,3.5504,3.5504,3.5504,3.5504,3.5504,3.5504,3.5504,3.5504,4.9001,4.9001,4.9001,4.9001,4.9001,4.9001,4.9001,4.9001,4.9001,4.9001,4.9001,4.9001,4.9001,4.9001,4.9001,4.9001,4.9001,4.8765,4.8176,4.5658,4.3961,4.3428,4.2494,4.1997,4.1997,4.1997,4.1658,4.1013,4.1658,4.1674,4.0997,4.0482,4.0232,4.0167,3.9023,3.8382,3.8229,3.8229,3.8138,3.7986,3.7986,3.7986,3.7986,3.7782,3.7849,3.8001,3.7782,3.7834,3.791,3.7237,3.7155,3.7164,3.6284,3.6137,3.6363,3.6753,3.6461,3.6022,3.6022,3.591,3.575,3.575,3.5651,3.5504,3.5504,3.5651,3.575,3.575,3.575,3.575,3.575,3.5619,3.5504,3.5504,0.0,3.5684,3.5534,3.5639,3.5734,3.5733,3.575,3.6117,3.7038,3.6994,3.6964,3.7128,3.6994,3.6631,3.6053,3.6022,3.5941,3.575,3.5587,3.5504,3.5504,3.5504,3.5504,3.5504,3.5504,3.5504,3.5504,3.5504,3.5504,3.5504,3.5504,3.5504,3.5504,3.5504,3.5504,3.5504,3.5504,3.5504,3.5504,3.5504,3.5504,3.5504,4.9001,4.9001,4.9001,4.9001,4.9001,4.9001,4.9001,4.9001,4.9001,4.9001,4.9001,4.9001,4.9001,4.9001,4.9001,4.9001,4.9001,4.8984,4.8934,4.8051,4.6592,4.4379,4.2813,4.1997,4.1997,4.1997,4.1965,4.1901,4.1965,4.1965,4.1901,4.1837,4.1821,4.1821,4.1709,4.1326,4.0736,4.0736,4.0385,3.9823,3.9823,3.9823,3.9731,3.8919,3.9109,3.9701,3.8887,3.9125,3.967,3.884,3.9062,3.9479,3.7951,3.8011,3.8519,3.791,3.7661,3.7648,3.7648,3.71,3.6523,3.6523,3.6006,3.5504,3.5504,3.6023,3.6523,3.6523,3.6523,3.6523,3.6523,3.5943,3.5504,3.5504,0.0,0.0,3.5594,3.6028,3.6444,3.6523,3.6523,3.7098,3.8591,3.8104,3.7991,3.8674,3.8104,3.769,3.7648,3.7648,3.7279,3.6554,3.5863,3.5504,3.5504,3.5504,3.5504,3.5504,3.5504,3.5504,3.5504,3.5504,3.5504,3.5504,3.5504,3.5504,3.5504,3.5504,3.5504,3.5504,3.5504,3.5504,3.5504,3.5504,3.5504,3.5504,4.9001,4.9001,4.9001,4.9001,4.9001,4.9001,4.9001,4.9001,4.9001,4.9001,4.9001,4.9001,4.9001,4.9001,4.9001,4.9001,4.9001,4.9001,4.9001,4.8748,4.7548,4.5312,4.4197,4.3604,4.3604,4.3604,4.335,4.2816,4.335,4.335,4.2816,4.2816,4.2816,4.2785,4.2221,4.1853,4.1629,4.1629,4.1469,4.1244,4.1244,4.1244,4.1213,4.0865,4.0928,4.1181,4.088,4.096,4.1117,4.0372,4.0355,4.0444,3.9419,3.8985,3.8833,3.8569,3.8859,3.9226,3.9226,3.8318,3.7338,3.7338,3.7145,3.692,3.692,3.7145,3.7338,3.7338,3.695,3.6615,3.6615,3.6353,3.6023,3.5554,0.0,3.7033,3.629,3.6848,3.7323,3.734,3.7338,3.7745,3.8799,3.8635,3.8608,3.8881,3.8635,3.8274,3.7806,3.7793,3.7661,3.7352,3.66,3.5943,3.5504,3.5504,3.5504,3.5504,3.5504,3.5504,3.5504,3.5504,3.5504,3.5504,3.5504,3.5504,3.5504,3.5504,3.5504,3.5504,3.5504,3.5504,3.5504,3.5504,3.5504,3.5504,4.9001,4.9001,4.9001,4.9001,4.9001,4.9001,4.9001,4.9001,4.9001,4.9001,4.9001,4.9001,4.9001,4.9001,4.9001,4.9001,4.9001,4.9001,4.9001,4.8781,4.7885,4.6126,4.5331,4.4852,4.4615,4.4615,4.4327,4.371,4.4327,4.4281,4.371,4.371,4.371,4.368,4.3092,4.2831,4.2831,4.2831,4.2831,4.2831,4.2831,4.2831,4.28,4.252,4.2583,4.2769,4.252,4.2583,4.2688,4.1954,4.1914,4.1966,4.0994,4.0352,3.9911,3.9702,4.0014,4.0375,4.0163,3.9332,3.8458,3.8206,3.7978,3.7793,3.7793,3.7978,3.8149,3.8149,3.7716,3.732,3.732,3.7128,3.6798,3.6305,3.7131,3.7602,3.7054,3.7456,3.7908,3.8121,3.8149,3.8442,3.9209,3.9289,3.9289,3.9289,3.9289,3.9076,3.8541,3.8513,3.8402,3.8133,3.76,3.6964,3.6227,3.5733,3.5504,3.5504,3.5504,3.5504,3.5504,3.5504,3.5504,3.5504,3.5504,3.5504,3.5504,3.5504,3.5504,3.5504,3.5504,3.5504,3.5504,3.5504,3.5504,3.5504,4.9001,4.9001,4.9001,4.9001,4.9001,4.9001,4.9001,4.9001,4.9001,4.9001,4.9001,4.9001,4.9001,4.9001,4.9001,4.9001,4.9001,4.9001,4.9001,4.8294,4.7597,4.6836,4.6109,4.5365,4.4632,4.4615,4.4615,4.4615,4.4615,4.4615,4.4615,4.4615,4.4615,4.4615,4.4615,4.4615,4.4615,4.4615,4.4615,4.4615,4.4615,4.4615,4.4514,4.3651,4.3844,4.4485,4.3621,4.3873,4.4485,4.3591,4.3873,4.4322,4.2713,4.2239,4.2151,4.1424,4.1221,4.1052,4.0316,4.0113,3.9918,3.9113,3.8358,3.7822,3.7822,3.8386,3.8908,3.8908,3.8908,3.8908,3.8908,3.8302,3.7822,3.7793,3.7806,3.7822,3.7822,3.7806,3.8092,3.8827,3.8908,3.9219,4.002,4.0096,4.0096,4.0096,4.0096,4.0096,4.0096,4.0096,3.9731,3.8935,3.8908,3.8553,3.7822,3.629,3.5504,3.5504,3.5504,3.5504,3.5504,3.5504,3.5504,3.5504,3.5504,3.5504,3.5504,3.5504,3.5504,3.5504,3.5504,3.5504,3.5504,3.5504,3.5504,3.5504,4.9001,4.9001,4.9001,4.9001,4.9001,4.9001,4.9001,4.9001,4.9001,4.9001,4.9001,4.9001,4.9001,4.9001,4.9001,4.9001,4.9001,4.9001,4.9001,4.8798,4.8342,4.7614,4.687,4.6363,4.6143,4.5635,4.5365,4.5365,4.4869,4.4615,4.4615,4.4615,4.4615,4.4615,4.4615,4.4615,4.4615,4.4615,4.4615,4.4615,4.4615,4.4615,4.457,4.4327,4.4384,4.457,4.4327,4.4384,4.4542,4.4298,4.4384,4.4406,4.3362,4.3058,4.2929,4.2185,4.1965,4.1813,4.1068,4.0865,4.0679,3.9942,3.9584,3.9411,3.9411,3.9584,3.9756,3.9756,3.9289,3.8908,3.8908,3.8718,3.8386,3.7892,3.8723,3.9226,3.8635,3.9049,3.9506,3.9731,3.9756,3.9833,4.007,4.0096,4.0096,4.0096,4.0096,4.0096,4.0096,4.0096,3.9995,3.9756,3.9193,3.8799,3.858,3.7602,3.6814,3.6275,3.6275,3.6006,3.5504,3.5504,3.5504,3.5504,3.5504,3.5504,3.5504,3.5504,3.5504,3.5504,3.5504,3.5504,3.5504,3.5504,3.5504,3.5504,4.9001,4.9001,4.9001,4.9001,4.9001,4.9001,4.9001,4.9001,4.9001,4.9001,4.9001,4.9001,4.9001,4.9001,4.9001,4.9001,4.9001,4.9001,4.9001,4.9001,4.8798,4.8359,4.7919,4.7394,4.6802,4.6363,4.6143,4.6143,4.5399,4.5026,4.501,4.475,4.4615,4.4615,4.4615,4.4615,4.4615,4.4615,4.4615,4.4615,4.4615,4.4615,4.4615,4.4615,4.4615,4.4615,4.4615,4.4615,4.4615,4.4615,4.4615,4.453,4.4028,4.3876,4.3724,4.2963,4.2743,4.2574,4.183,4.1644,4.1457,4.0713,4.0333,4.0096,4.0096,4.0096,4.0096,4.0096,3.9714,3.9368,3.9368,3.9368,3.9236,3.8761,3.948,3.9927,3.9437,3.9782,4.0096,4.0096,4.0096,4.0096,4.0096,4.0096,4.0096,4.0096,4.0096,4.0096,4.0096,4.0096,4.0096,4.0096,3.9636,3.9368,3.9368,3.8941,3.8161,3.7054,3.6752,3.6538,3.6399,3.5765,3.5668,3.5926,3.5651,3.5504,3.5504,3.5504,3.5504,3.5504,3.5504,3.5504,3.5504,3.5504,3.5504,3.5504,4.9001,4.9001,4.9001,4.9001,4.9001,4.9001,4.9001,4.9001,4.9001,4.9001,4.9001,4.9001,4.9001,4.9001,4.9001,4.9001,4.9001,4.9001,4.9001,4.9001,4.9001,4.9001,4.9001,4.8376,4.7022,4.6921,4.6887,4.6887,4.616,4.5771,4.5703,4.506,4.4767,4.4699,4.4784,4.4801,4.4801,4.4801,4.4801,4.4801,4.4801,4.4801,4.4801,4.4801,4.4801,4.4801,4.4801,4.475,4.4699,4.4632,4.4615,4.4615,4.4615,4.4615,4.4479,4.3724,4.3521,4.3352,4.2591,4.2388,4.2219,4.1491,4.0781,4.0265,4.013,4.0096,4.0096,4.0096,4.0096,4.0096,4.0096,4.0096,4.0096,4.0096,4.0096,4.0096,4.0096,4.0096,4.0096,4.0096,4.0096,4.0096,4.0096,4.0096,4.0096,4.0096,4.0096,4.0096,4.0096,4.0096,4.0096,4.0096,4.0096,4.0096,4.0096,4.0096,3.9358,3.7892,3.7174,3.7144,3.7764,3.6352,3.607,3.6676,3.5926,3.5587,3.5587,3.5537,3.5504,3.5504,3.5504,3.5504,3.5504,3.5504,3.5504,3.5504,4.9001,4.9001,4.9001,4.9001,4.9001,4.9001,4.9001,4.9001,4.9001,4.9001,4.9001,4.9001,4.9001,4.9001,4.9001,4.9001,4.9001,4.9001,4.9001,4.9001,4.9001,4.9001,4.9001,4.8849,4.8528,4.797,4.7682,4.7682,4.6921,4.6261,4.572,4.6126,4.6007,4.5483,4.6058,4.6312,4.6312,4.6312,4.6312,4.6312,4.6312,4.6312,4.6312,4.6312,4.6312,4.6312,4.6312,4.594,4.5365,4.4801,4.4615,4.4615,4.4615,4.4615,4.4581,4.4384,4.4333,4.4164,4.3386,4.3139,4.2997,4.2252,4.1931,4.1534,4.0367,4.0096,4.0096,4.0096,4.0096,4.0096,4.0096,4.0096,4.0096,4.0096,4.0096,4.0096,4.0096,4.0096,4.0096,4.0096,4.0096,4.0096,4.0096,4.0096,4.0096,4.0096,4.0096,4.0096,4.0096,4.0096,4.0096,4.0096,4.0096,4.0096,4.0096,4.0096,3.961,3.8663,3.8481,3.8173,3.7793,3.7442,3.7383,3.7485,3.6707,3.6353,3.6306,3.5718,3.5504,3.5504,3.5504,3.5504,3.5504,3.5504,3.5504,3.5504,4.9001,4.9001,4.9001,4.9001,4.9001,4.9001,4.9001,4.9001,4.9001,4.9001,4.9001,4.9001,4.9001,4.9001,4.9001,4.9001,4.9001,4.9001,4.9001,4.9001,4.9001,4.9001,4.9001,4.9001,4.9001,4.8629,4.8443,4.8443,4.7699,4.7141,4.6769,4.6786,4.6583,4.6244,4.6616,4.6786,4.6786,4.6786,4.6786,4.6786,4.6786,4.6786,4.6786,4.6786,4.6786,4.6786,4.6786,4.6549,4.6058,4.4987,4.4852,4.5043,4.4716,4.4615,4.4615,4.4615,4.4615,4.4513,4.4079,4.3978,4.3792,4.3014,4.2828,4.254,4.139,4.0891,4.0612,4.0612,4.035,4.0096,4.0096,4.0096,4.0096,4.0096,4.0096,4.0096,4.0096,4.0096,4.0096,4.0096,4.0096,4.0096,4.0096,4.0096,4.0096,4.0096,4.0096,4.0096,4.0096,4.0096,4.0096,4.0096,4.0096,4.0096,4.0096,4.0096,3.9901,3.9463,3.9086,3.8897,3.8887,3.8121,3.8007,3.8274,3.7499,3.6934,3.6584,3.6196,3.5814,3.5504,3.5504,3.5504,3.5504,3.5504,3.5504,3.5504,4.9001,4.9001,4.9001,4.9001,4.9001,4.9001,4.9001,4.9001,4.9001,4.9001,4.9001,4.9001,4.9001,4.9001,4.9001,4.9001,4.9001,4.9001,4.9001,4.9001,4.9001,4.9001,4.9001,4.9001,4.9001,4.9001,4.9001,4.9001,4.8409,4.8007,4.7872,4.7394,4.7107,4.6989,4.7107,4.7175,4.7175,4.7175,4.7175,4.7175,4.7175,4.7175,4.7175,4.7175,4.7175,4.7175,4.7175,4.709,4.6769,4.5444,4.5365,4.5788,4.5173,4.4902,4.4801,4.4801,4.4699,4.4615,4.4615,4.4615,4.4445,4.3775,4.3623,4.3453,4.2828,4.2016,4.139,4.139,4.0882,4.0485,4.0485,4.0383,4.0299,4.0299,4.018,4.0096,4.0096,4.0096,4.0096,4.0096,4.0096,4.0096,4.0096,4.0096,4.0096,4.0096,4.0096,4.0096,4.0096,4.0096,4.0096,4.0096,4.0096,4.0096,4.0096,4.0096,4.0096,4.0096,3.9437,3.9463,4.0045,3.8778,3.8541,3.9059,3.8302,3.7616,3.6978,3.6843,3.6368,3.5701,3.5701,3.5619,3.5504,3.5504,3.5504,3.5504,4.9001,4.9001,4.9001,4.9001,4.9001,4.9001,4.9001,4.9001,4.9001,4.9001,4.9001,4.9001,4.9001,4.9001,4.9001,4.9001,4.9001,4.9001,4.9001,4.9001,4.9001,4.9001,4.9001,4.9001,4.9001,4.9001,4.9001,4.9001,4.89,4.8528,4.7906,4.846,4.8376,4.78,4.8426,4.8697,4.8697,4.8697,4.8697,4.8697,4.8697,4.8697,4.8697,4.8697,4.8697,4.8697,4.8697,4.8291,4.7601,4.6769,4.6566,4.6616,4.6515,4.6058,4.5551,4.5551,4.5094,4.4615,4.4615,4.4615,4.4581,4.4479,4.4445,4.4429,4.4327,4.3166,4.2151,4.2151,4.2066,4.1982,4.1982,4.1474,4.1052,4.1052,4.0536,4.0096,4.0096,4.0096,4.0096,4.0096,4.0096,4.0096,4.0096,4.0096,4.0096,4.0096,4.0096,4.0096,4.0096,4.0096,4.0096,4.0096,4.0096,4.0096,4.0096,4.0096,4.0096,4.0096,3.9995,3.9978,4.0096,3.9876,3.985,3.9901,3.9102,3.869,3.8536,3.7905,3.716,3.6446,3.6446,3.6054,3.5504,3.5504,3.5504,3.5504,4.9001,4.9001,4.9001,4.9001,4.9001,4.9001,4.9001,4.9001,4.9001,4.9001,4.9001,4.9001,4.9001,4.9001,4.9001,4.9001,4.9001,4.9001,4.9001,4.9001,4.9001,4.9001,4.9001,4.9001,4.9001,4.9001,4.9001,4.9001,4.9001,4.8832,4.8528,4.8849,4.8832,4.8545,4.8849,4.9001,4.9001,4.9001,4.9001,4.9001,4.9001,4.9001,4.9001,4.9001,4.9001,4.8951,4.8545,4.846,4.8342,4.7192,4.7073,4.7344,4.6921,4.6583,4.6227,4.5821,4.5466,4.5111,4.4716,4.4615,4.4615,4.4615,4.4615,4.4615,4.4615,4.4073,4.3481,4.3014,4.2591,4.2286,4.2286,4.2016,4.1677,4.1271,4.0933,4.0561,4.0163,4.0096,4.0096,4.0096,4.0096,4.0096,4.0096,4.0096,4.0096,4.0096,4.0096,4.0096,4.0096,4.0096,4.0096,4.0096,4.0096,4.0096,4.0096,4.0096,4.0096,4.0096,4.0096,4.0096,4.0096,4.0096,4.0096,4.007,3.9714,3.9315,3.8881,3.8553,3.7962,3.7279,3.7279,3.6814,3.6102,3.6102,3.6102,3.6054]}]]